<?xml version="1.0" encoding="UTF-8" standalone="no" ?>
<gpx xmlns="http://www.topografix.com/GPX/1/1" xmlns:xsi="http://www.w3.org/2001/XMLSchema-instance" xsi:schemaLocation="http://www.topografix.com/GPX/1/1 http://www.topografix.com/GPX/1/1/gpx.xsd" version="1.1" creator="VisuGPX - https://www.visugpx.com">
  <metadata>
    <name>St Lary - Lac Aumar - Barrage Cap de long - Pla d'adet - St lary</name>
  </metadata>
  <trk>
    <name><![CDATA[St Lary - Lac Aumar - Barrage Cap de long - Pla d'adet - St lary]]></name>
    <trkseg>
      <trkpt lat="42.8252" lon="0.32639">
        <ele>801.86926269531</ele>
        <time>2020-08-23T17:58:16.000Z</time>
      </trkpt>
      <trkpt lat="42.82499" lon="0.32614">
        <ele>801.96081542969</ele>
        <time>2020-08-23T17:58:16.005Z</time>
      </trkpt>
      <trkpt lat="42.82496" lon="0.32611">
        <ele>801.98657226562</ele>
        <time>2020-08-23T17:58:16.010Z</time>
      </trkpt>
      <trkpt lat="42.82475" lon="0.32586">
        <ele>802.19250488281</ele>
        <time>2020-08-23T17:58:16.020Z</time>
      </trkpt>
      <trkpt lat="42.82436" lon="0.32539">
        <ele>802.74859619141</ele>
        <time>2020-08-23T17:58:16.038Z</time>
      </trkpt>
      <trkpt lat="42.82436" lon="0.32539">
        <ele>802.74877929688</ele>
        <time>2020-08-23T17:58:16.056Z</time>
      </trkpt>
      <trkpt lat="42.82415" lon="0.32512">
        <ele>803.68420410156</ele>
        <time>2020-08-23T17:58:16.079Z</time>
      </trkpt>
      <trkpt lat="42.82402" lon="0.32495">
        <ele>804.34069824219</ele>
        <time>2020-08-23T17:58:16.104Z</time>
      </trkpt>
      <trkpt lat="42.82352" lon="0.32435">
        <ele>806.19689941406</ele>
        <time>2020-08-23T17:58:16.140Z</time>
      </trkpt>
      <trkpt lat="42.82334" lon="0.32406">
        <ele>806.36395263672</ele>
        <time>2020-08-23T17:58:16.180Z</time>
      </trkpt>
      <trkpt lat="42.8234" lon="0.32385">
        <ele>806.01635742188</ele>
        <time>2020-08-23T17:58:16.223Z</time>
      </trkpt>
      <trkpt lat="42.82332" lon="0.32371">
        <ele>806.11236572266</ele>
        <time>2020-08-23T17:58:16.268Z</time>
      </trkpt>
      <trkpt lat="42.82313" lon="0.32374">
        <ele>806.30902099609</ele>
        <time>2020-08-23T17:58:16.316Z</time>
      </trkpt>
      <trkpt lat="42.82286" lon="0.32355">
        <ele>806.63073730469</ele>
        <time>2020-08-23T17:58:16.369Z</time>
      </trkpt>
      <trkpt lat="42.82283" lon="0.32353">
        <ele>806.66937255859</ele>
        <time>2020-08-23T17:58:16.423Z</time>
      </trkpt>
      <trkpt lat="42.82239" lon="0.32325">
        <ele>807.59167480469</ele>
        <time>2020-08-23T17:58:16.484Z</time>
      </trkpt>
      <trkpt lat="42.82239" lon="0.32325">
        <ele>807.59143066406</ele>
        <time>2020-08-23T17:58:16.545Z</time>
      </trkpt>
      <trkpt lat="42.82162" lon="0.3228">
        <ele>810.20672607422</ele>
        <time>2020-08-23T17:58:16.620Z</time>
      </trkpt>
      <trkpt lat="42.82157" lon="0.32278">
        <ele>810.41320800781</ele>
        <time>2020-08-23T17:58:16.696Z</time>
      </trkpt>
      <trkpt lat="42.82157" lon="0.32278">
        <ele>810.41271972656</ele>
        <time>2020-08-23T17:58:16.772Z</time>
      </trkpt>
      <trkpt lat="42.82153" lon="0.32276">
        <ele>810.61920166016</ele>
        <time>2020-08-23T17:58:16.848Z</time>
      </trkpt>
      <trkpt lat="42.82153" lon="0.32276">
        <ele>810.61865234375</ele>
        <time>2020-08-23T17:58:16.924Z</time>
      </trkpt>
      <trkpt lat="42.82133" lon="0.32263">
        <ele>811.41455078125</ele>
        <time>2020-08-23T17:58:17.004Z</time>
      </trkpt>
      <trkpt lat="42.82095" lon="0.32251">
        <ele>812.76641845703</ele>
        <time>2020-08-23T17:58:17.090Z</time>
      </trkpt>
      <trkpt lat="42.82095" lon="0.32251">
        <ele>812.76611328125</ele>
        <time>2020-08-23T17:58:17.176Z</time>
      </trkpt>
      <trkpt lat="42.82006" lon="0.32253">
        <ele>817.0283203125</ele>
        <time>2020-08-23T17:58:17.276Z</time>
      </trkpt>
      <trkpt lat="42.82" lon="0.3224">
        <ele>817.2978515625</ele>
        <time>2020-08-23T17:58:17.378Z</time>
      </trkpt>
      <trkpt lat="42.81992" lon="0.3224">
        <ele>817.20776367188</ele>
        <time>2020-08-23T17:58:17.481Z</time>
      </trkpt>
      <trkpt lat="42.81989" lon="0.32242">
        <ele>817.11767578125</ele>
        <time>2020-08-23T17:58:17.585Z</time>
      </trkpt>
      <trkpt lat="42.81986" lon="0.32257">
        <ele>816.71850585938</ele>
        <time>2020-08-23T17:58:17.691Z</time>
      </trkpt>
      <trkpt lat="42.8196" lon="0.32272">
        <ele>816.04913330078</ele>
        <time>2020-08-23T17:58:17.801Z</time>
      </trkpt>
      <trkpt lat="42.81932" lon="0.32278">
        <ele>815.58575439453</ele>
        <time>2020-08-23T17:58:17.916Z</time>
      </trkpt>
      <trkpt lat="42.81932" lon="0.32278">
        <ele>815.58581542969</ele>
        <time>2020-08-23T17:58:18.031Z</time>
      </trkpt>
      <trkpt lat="42.81882" lon="0.32255">
        <ele>815.52136230469</ele>
        <time>2020-08-23T17:58:18.154Z</time>
      </trkpt>
      <trkpt lat="42.81858" lon="0.32253">
        <ele>816.00537109375</ele>
        <time>2020-08-23T17:58:18.281Z</time>
      </trkpt>
      <trkpt lat="42.81853" lon="0.32248">
        <ele>816.06994628906</ele>
        <time>2020-08-23T17:58:18.409Z</time>
      </trkpt>
      <trkpt lat="42.81853" lon="0.32248">
        <ele>816.06976318359</ele>
        <time>2020-08-23T17:58:18.537Z</time>
      </trkpt>
      <trkpt lat="42.81819" lon="0.32197">
        <ele>817.11871337891</ele>
        <time>2020-08-23T17:58:18.673Z</time>
      </trkpt>
      <trkpt lat="42.81804" lon="0.3218">
        <ele>818.04553222656</ele>
        <time>2020-08-23T17:58:18.812Z</time>
      </trkpt>
      <trkpt lat="42.81769" lon="0.3215">
        <ele>820.10516357422</ele>
        <time>2020-08-23T17:58:18.958Z</time>
      </trkpt>
      <trkpt lat="42.81749" lon="0.32144">
        <ele>820.92126464844</ele>
        <time>2020-08-23T17:58:19.107Z</time>
      </trkpt>
      <trkpt lat="42.81749" lon="0.32144">
        <ele>820.92114257812</ele>
        <time>2020-08-23T17:58:19.256Z</time>
      </trkpt>
      <trkpt lat="42.81737" lon="0.3214">
        <ele>821.10144042969</ele>
        <time>2020-08-23T17:58:19.407Z</time>
      </trkpt>
      <trkpt lat="42.8166" lon="0.32043">
        <ele>824.34802246094</ele>
        <time>2020-08-23T17:58:19.575Z</time>
      </trkpt>
      <trkpt lat="42.8166" lon="0.32043">
        <ele>824.34783935547</ele>
        <time>2020-08-23T17:58:19.743Z</time>
      </trkpt>
      <trkpt lat="42.81642" lon="0.32019">
        <ele>825.04296875</ele>
        <time>2020-08-23T17:58:19.915Z</time>
      </trkpt>
      <trkpt lat="42.81633" lon="0.32">
        <ele>825.21844482422</ele>
        <time>2020-08-23T17:58:20.090Z</time>
      </trkpt>
      <trkpt lat="42.81626" lon="0.31973">
        <ele>824.96051025391</ele>
        <time>2020-08-23T17:58:20.268Z</time>
      </trkpt>
      <trkpt lat="42.81546" lon="0.31914">
        <ele>825.64141845703</ele>
        <time>2020-08-23T17:58:20.461Z</time>
      </trkpt>
      <trkpt lat="42.81537" lon="0.31909">
        <ele>825.59014892578</ele>
        <time>2020-08-23T17:58:20.655Z</time>
      </trkpt>
      <trkpt lat="42.81462" lon="0.31855">
        <ele>825.9423828125</ele>
        <time>2020-08-23T17:58:20.863Z</time>
      </trkpt>
      <trkpt lat="42.8145" lon="0.31851">
        <ele>826.26422119141</ele>
        <time>2020-08-23T17:58:21.073Z</time>
      </trkpt>
      <trkpt lat="42.8144" lon="0.31849">
        <ele>826.59918212891</ele>
        <time>2020-08-23T17:58:21.285Z</time>
      </trkpt>
      <trkpt lat="42.8144" lon="0.31849">
        <ele>826.59887695312</ele>
        <time>2020-08-23T17:58:21.497Z</time>
      </trkpt>
      <trkpt lat="42.81341" lon="0.31798">
        <ele>831.85583496094</ele>
        <time>2020-08-23T17:58:21.725Z</time>
      </trkpt>
      <trkpt lat="42.81329" lon="0.31801">
        <ele>834.43536376953</ele>
        <time>2020-08-23T17:58:21.955Z</time>
      </trkpt>
      <trkpt lat="42.81321" lon="0.31793">
        <ele>835.99432373047</ele>
        <time>2020-08-23T17:58:22.187Z</time>
      </trkpt>
      <trkpt lat="42.81311" lon="0.31801">
        <ele>839.24963378906</ele>
        <time>2020-08-23T17:58:22.421Z</time>
      </trkpt>
      <trkpt lat="42.81244" lon="0.31748">
        <ele>849.54809570312</ele>
        <time>2020-08-23T17:58:22.667Z</time>
      </trkpt>
      <trkpt lat="42.81244" lon="0.31748">
        <ele>849.55151367188</ele>
        <time>2020-08-23T17:58:22.913Z</time>
      </trkpt>
      <trkpt lat="42.81223" lon="0.31718">
        <ele>852.89831542969</ele>
        <time>2020-08-23T17:58:23.164Z</time>
      </trkpt>
      <trkpt lat="42.81197" lon="0.31647">
        <ele>848.64312744141</ele>
        <time>2020-08-23T17:58:23.424Z</time>
      </trkpt>
      <trkpt lat="42.81197" lon="0.31647">
        <ele>848.64459228516</ele>
        <time>2020-08-23T17:58:23.684Z</time>
      </trkpt>
      <trkpt lat="42.81185" lon="0.31606">
        <ele>851.15063476562</ele>
        <time>2020-08-23T17:58:23.950Z</time>
      </trkpt>
      <trkpt lat="42.81137" lon="0.31523">
        <ele>860.65454101562</ele>
        <time>2020-08-23T17:58:24.228Z</time>
      </trkpt>
      <trkpt lat="42.81116" lon="0.31454">
        <ele>864.47314453125</ele>
        <time>2020-08-23T17:58:24.515Z</time>
      </trkpt>
      <trkpt lat="42.81104" lon="0.31437">
        <ele>862.46545410156</ele>
        <time>2020-08-23T17:58:24.805Z</time>
      </trkpt>
      <trkpt lat="42.81041" lon="0.31338">
        <ele>862.24090576172</ele>
        <time>2020-08-23T17:58:25.110Z</time>
      </trkpt>
      <trkpt lat="42.80993" lon="0.31295">
        <ele>866.89495849609</ele>
        <time>2020-08-23T17:58:25.424Z</time>
      </trkpt>
      <trkpt lat="42.80943" lon="0.31281">
        <ele>878.13262939453</ele>
        <time>2020-08-23T17:58:25.746Z</time>
      </trkpt>
      <trkpt lat="42.80933" lon="0.31269">
        <ele>878.53167724609</ele>
        <time>2020-08-23T17:58:26.071Z</time>
      </trkpt>
      <trkpt lat="42.80921" lon="0.31241">
        <ele>876.49798583984</ele>
        <time>2020-08-23T17:58:26.399Z</time>
      </trkpt>
      <trkpt lat="42.80895" lon="0.31122">
        <ele>877.14733886719</ele>
        <time>2020-08-23T17:58:26.742Z</time>
      </trkpt>
      <trkpt lat="42.80841" lon="0.31073">
        <ele>882.86273193359</ele>
        <time>2020-08-23T17:58:27.095Z</time>
      </trkpt>
      <trkpt lat="42.80799" lon="0.3101">
        <ele>879.61907958984</ele>
        <time>2020-08-23T17:58:27.458Z</time>
      </trkpt>
      <trkpt lat="42.80799" lon="0.3101">
        <ele>879.62121582031</ele>
        <time>2020-08-23T17:58:27.821Z</time>
      </trkpt>
      <trkpt lat="42.80757" lon="0.30968">
        <ele>878.6171875</ele>
        <time>2020-08-23T17:58:28.193Z</time>
      </trkpt>
      <trkpt lat="42.80702" lon="0.30983">
        <ele>894.24322509766</ele>
        <time>2020-08-23T17:58:28.574Z</time>
      </trkpt>
      <trkpt lat="42.80702" lon="0.30983">
        <ele>894.24493408203</ele>
        <time>2020-08-23T17:58:28.955Z</time>
      </trkpt>
      <trkpt lat="42.80663" lon="0.30973">
        <ele>900.66583251953</ele>
        <time>2020-08-23T17:58:29.342Z</time>
      </trkpt>
      <trkpt lat="42.80638" lon="0.30957">
        <ele>902.47979736328</ele>
        <time>2020-08-23T17:58:29.733Z</time>
      </trkpt>
      <trkpt lat="42.80606" lon="0.30913">
        <ele>896.97039794922</ele>
        <time>2020-08-23T17:58:30.132Z</time>
      </trkpt>
      <trkpt lat="42.80586" lon="0.30869">
        <ele>889.96624755859</ele>
        <time>2020-08-23T17:58:30.537Z</time>
      </trkpt>
      <trkpt lat="42.80586" lon="0.30869">
        <ele>889.96832275391</ele>
        <time>2020-08-23T17:58:30.942Z</time>
      </trkpt>
      <trkpt lat="42.80533" lon="0.30695">
        <ele>882.109375</ele>
        <time>2020-08-23T17:58:31.369Z</time>
      </trkpt>
      <trkpt lat="42.80471" lon="0.30589">
        <ele>908.15979003906</ele>
        <time>2020-08-23T17:58:31.812Z</time>
      </trkpt>
      <trkpt lat="42.80342" lon="0.30242">
        <ele>925.90637207031</ele>
        <time>2020-08-23T17:58:32.301Z</time>
      </trkpt>
      <trkpt lat="42.80295" lon="0.30153">
        <ele>927.81762695312</ele>
        <time>2020-08-23T17:58:32.803Z</time>
      </trkpt>
      <trkpt lat="42.80119" lon="0.29878">
        <ele>921.87219238281</ele>
        <time>2020-08-23T17:58:33.348Z</time>
      </trkpt>
      <trkpt lat="42.80119" lon="0.29878">
        <ele>921.87530517578</ele>
        <time>2020-08-23T17:58:33.893Z</time>
      </trkpt>
      <trkpt lat="42.80044" lon="0.29813">
        <ele>926.81805419922</ele>
        <time>2020-08-23T17:58:34.452Z</time>
      </trkpt>
      <trkpt lat="42.80022" lon="0.29786">
        <ele>925.20233154297</ele>
        <time>2020-08-23T17:58:35.016Z</time>
      </trkpt>
      <trkpt lat="42.7986" lon="0.29459">
        <ele>922.92602539062</ele>
        <time>2020-08-23T17:58:35.626Z</time>
      </trkpt>
      <trkpt lat="42.79845" lon="0.29432">
        <ele>922.42401123047</ele>
        <time>2020-08-23T17:58:36.240Z</time>
      </trkpt>
      <trkpt lat="42.79845" lon="0.29432">
        <ele>922.42645263672</ele>
        <time>2020-08-23T17:58:36.854Z</time>
      </trkpt>
      <trkpt lat="42.79793" lon="0.29358">
        <ele>924.60772705078</ele>
        <time>2020-08-23T17:58:37.480Z</time>
      </trkpt>
      <trkpt lat="42.79782" lon="0.2932">
        <ele>925.57037353516</ele>
        <time>2020-08-23T17:58:38.111Z</time>
      </trkpt>
      <trkpt lat="42.79778" lon="0.29269">
        <ele>925.58630371094</ele>
        <time>2020-08-23T17:58:38.748Z</time>
      </trkpt>
      <trkpt lat="42.79796" lon="0.29219">
        <ele>921.59588623047</ele>
        <time>2020-08-23T17:58:39.392Z</time>
      </trkpt>
      <trkpt lat="42.79822" lon="0.29189">
        <ele>918.44354248047</ele>
        <time>2020-08-23T17:58:40.041Z</time>
      </trkpt>
      <trkpt lat="42.79822" lon="0.29189">
        <ele>918.44464111328</ele>
        <time>2020-08-23T17:58:40.690Z</time>
      </trkpt>
      <trkpt lat="42.799" lon="0.29126">
        <ele>926.91271972656</ele>
        <time>2020-08-23T17:58:41.354Z</time>
      </trkpt>
      <trkpt lat="42.7991" lon="0.29099">
        <ele>930.77014160156</ele>
        <time>2020-08-23T17:58:42.021Z</time>
      </trkpt>
      <trkpt lat="42.79913" lon="0.29061">
        <ele>935.82904052734</ele>
        <time>2020-08-23T17:58:42.692Z</time>
      </trkpt>
      <trkpt lat="42.79858" lon="0.28914">
        <ele>948.24249267578</ele>
        <time>2020-08-23T17:58:43.383Z</time>
      </trkpt>
      <trkpt lat="42.79802" lon="0.28811">
        <ele>955.50915527344</ele>
        <time>2020-08-23T17:58:44.089Z</time>
      </trkpt>
      <trkpt lat="42.79795" lon="0.28773">
        <ele>958.91333007812</ele>
        <time>2020-08-23T17:58:44.800Z</time>
      </trkpt>
      <trkpt lat="42.79811" lon="0.28713">
        <ele>956.88525390625</ele>
        <time>2020-08-23T17:58:45.518Z</time>
      </trkpt>
      <trkpt lat="42.79866" lon="0.28647">
        <ele>961.17272949219</ele>
        <time>2020-08-23T17:58:46.248Z</time>
      </trkpt>
      <trkpt lat="42.79876" lon="0.28617">
        <ele>962.14904785156</ele>
        <time>2020-08-23T17:58:46.982Z</time>
      </trkpt>
      <trkpt lat="42.79882" lon="0.28547">
        <ele>968.80548095703</ele>
        <time>2020-08-23T17:58:47.724Z</time>
      </trkpt>
      <trkpt lat="42.79869" lon="0.28422">
        <ele>989.00994873047</ele>
        <time>2020-08-23T17:58:48.481Z</time>
      </trkpt>
      <trkpt lat="42.79869" lon="0.28355">
        <ele>993.87200927734</ele>
        <time>2020-08-23T17:58:49.246Z</time>
      </trkpt>
      <trkpt lat="42.79887" lon="0.28214">
        <ele>997.65197753906</ele>
        <time>2020-08-23T17:58:50.028Z</time>
      </trkpt>
      <trkpt lat="42.79873" lon="0.28119">
        <ele>1006.1627197266</ele>
        <time>2020-08-23T17:58:50.821Z</time>
      </trkpt>
      <trkpt lat="42.79875" lon="0.2809">
        <ele>1006.5488891602</ele>
        <time>2020-08-23T17:58:51.618Z</time>
      </trkpt>
      <trkpt lat="42.79893" lon="0.28036">
        <ele>996.84747314453</ele>
        <time>2020-08-23T17:58:52.422Z</time>
      </trkpt>
      <trkpt lat="42.79896" lon="0.27982">
        <ele>998.00701904297</ele>
        <time>2020-08-23T17:58:53.232Z</time>
      </trkpt>
      <trkpt lat="42.79885" lon="0.27926">
        <ele>1010.364440918</ele>
        <time>2020-08-23T17:58:54.049Z</time>
      </trkpt>
      <trkpt lat="42.79869" lon="0.27772">
        <ele>1016.3720092773</ele>
        <time>2020-08-23T17:58:54.884Z</time>
      </trkpt>
      <trkpt lat="42.79852" lon="0.27699">
        <ele>1017.8993530273</ele>
        <time>2020-08-23T17:58:55.728Z</time>
      </trkpt>
      <trkpt lat="42.79852" lon="0.27699">
        <ele>1017.9052734375</ele>
        <time>2020-08-23T17:58:56.572Z</time>
      </trkpt>
      <trkpt lat="42.79813" lon="0.27567">
        <ele>1010.9228515625</ele>
        <time>2020-08-23T17:58:57.433Z</time>
      </trkpt>
      <trkpt lat="42.79778" lon="0.27515">
        <ele>1023.2894287109</ele>
        <time>2020-08-23T17:58:58.302Z</time>
      </trkpt>
      <trkpt lat="42.79755" lon="0.27457">
        <ele>1014.2453613281</ele>
        <time>2020-08-23T17:58:59.179Z</time>
      </trkpt>
      <trkpt lat="42.79668" lon="0.27391">
        <ele>1038.1812744141</ele>
        <time>2020-08-23T17:59:00.072Z</time>
      </trkpt>
      <trkpt lat="42.79631" lon="0.27334">
        <ele>1024.0893554688</ele>
        <time>2020-08-23T17:59:00.974Z</time>
      </trkpt>
      <trkpt lat="42.79631" lon="0.27334">
        <ele>1024.0908203125</ele>
        <time>2020-08-23T17:59:01.876Z</time>
      </trkpt>
      <trkpt lat="42.79609" lon="0.27306">
        <ele>1019.2492675781</ele>
        <time>2020-08-23T17:59:02.783Z</time>
      </trkpt>
      <trkpt lat="42.79609" lon="0.27306">
        <ele>1019.250793457</ele>
        <time>2020-08-23T17:59:03.690Z</time>
      </trkpt>
      <trkpt lat="42.79592" lon="0.27258">
        <ele>1011.4417114258</ele>
        <time>2020-08-23T17:59:04.603Z</time>
      </trkpt>
      <trkpt lat="42.79543" lon="0.27168">
        <ele>1023.766784668</ele>
        <time>2020-08-23T17:59:05.529Z</time>
      </trkpt>
      <trkpt lat="42.79502" lon="0.27">
        <ele>1016.6383056641</ele>
        <time>2020-08-23T17:59:06.476Z</time>
      </trkpt>
      <trkpt lat="42.79449" lon="0.26871">
        <ele>1027.0794677734</ele>
        <time>2020-08-23T17:59:07.440Z</time>
      </trkpt>
      <trkpt lat="42.79449" lon="0.26871">
        <ele>1027.0831298828</ele>
        <time>2020-08-23T17:59:08.404Z</time>
      </trkpt>
      <trkpt lat="42.79432" lon="0.26835">
        <ele>1027.697265625</ele>
        <time>2020-08-23T17:59:09.373Z</time>
      </trkpt>
      <trkpt lat="42.79432" lon="0.26835">
        <ele>1027.7010498047</ele>
        <time>2020-08-23T17:59:10.342Z</time>
      </trkpt>
      <trkpt lat="42.79377" lon="0.26737">
        <ele>1043.1337890625</ele>
        <time>2020-08-23T17:59:11.326Z</time>
      </trkpt>
      <trkpt lat="42.79375" lon="0.26716">
        <ele>1044.7685546875</ele>
        <time>2020-08-23T17:59:12.312Z</time>
      </trkpt>
      <trkpt lat="42.79394" lon="0.26645">
        <ele>1030.3846435547</ele>
        <time>2020-08-23T17:59:13.307Z</time>
      </trkpt>
      <trkpt lat="42.79386" lon="0.266">
        <ele>1026.6644287109</ele>
        <time>2020-08-23T17:59:14.308Z</time>
      </trkpt>
      <trkpt lat="42.79324" lon="0.26472">
        <ele>1021.8899536133</ele>
        <time>2020-08-23T17:59:15.327Z</time>
      </trkpt>
      <trkpt lat="42.79272" lon="0.26399">
        <ele>1017.2204589844</ele>
        <time>2020-08-23T17:59:16.358Z</time>
      </trkpt>
      <trkpt lat="42.79254" lon="0.26348">
        <ele>1016.7899169922</ele>
        <time>2020-08-23T17:59:17.395Z</time>
      </trkpt>
      <trkpt lat="42.79254" lon="0.26348">
        <ele>1016.7902832031</ele>
        <time>2020-08-23T17:59:18.432Z</time>
      </trkpt>
      <trkpt lat="42.79194" lon="0.26212">
        <ele>1019.6245727539</ele>
        <time>2020-08-23T17:59:19.488Z</time>
      </trkpt>
      <trkpt lat="42.7907" lon="0.26093">
        <ele>1023.6510620117</ele>
        <time>2020-08-23T17:59:20.568Z</time>
      </trkpt>
      <trkpt lat="42.79026" lon="0.26042">
        <ele>1031.2517089844</ele>
        <time>2020-08-23T17:59:21.658Z</time>
      </trkpt>
      <trkpt lat="42.78977" lon="0.25971">
        <ele>1033.3294677734</ele>
        <time>2020-08-23T17:59:22.759Z</time>
      </trkpt>
      <trkpt lat="42.78914" lon="0.25822">
        <ele>1038.6077880859</ele>
        <time>2020-08-23T17:59:23.880Z</time>
      </trkpt>
      <trkpt lat="42.78914" lon="0.25822">
        <ele>1038.6070556641</ele>
        <time>2020-08-23T17:59:25.001Z</time>
      </trkpt>
      <trkpt lat="42.78887" lon="0.25763">
        <ele>1040.912109375</ele>
        <time>2020-08-23T17:59:26.130Z</time>
      </trkpt>
      <trkpt lat="42.78831" lon="0.25675">
        <ele>1043.6994628906</ele>
        <time>2020-08-23T17:59:27.273Z</time>
      </trkpt>
      <trkpt lat="42.78831" lon="0.25675">
        <ele>1043.6982421875</ele>
        <time>2020-08-23T17:59:28.416Z</time>
      </trkpt>
      <trkpt lat="42.78718" lon="0.2551">
        <ele>1050.8819580078</ele>
        <time>2020-08-23T17:59:29.586Z</time>
      </trkpt>
      <trkpt lat="42.78695" lon="0.25464">
        <ele>1057.2651367188</ele>
        <time>2020-08-23T17:59:30.762Z</time>
      </trkpt>
      <trkpt lat="42.78689" lon="0.25431">
        <ele>1057.0933837891</ele>
        <time>2020-08-23T17:59:31.942Z</time>
      </trkpt>
      <trkpt lat="42.78702" lon="0.25279">
        <ele>1072.0303955078</ele>
        <time>2020-08-23T17:59:33.140Z</time>
      </trkpt>
      <trkpt lat="42.78721" lon="0.2521">
        <ele>1073.6070556641</ele>
        <time>2020-08-23T17:59:34.347Z</time>
      </trkpt>
      <trkpt lat="42.78724" lon="0.25166">
        <ele>1072.6568603516</ele>
        <time>2020-08-23T17:59:35.559Z</time>
      </trkpt>
      <trkpt lat="42.78721" lon="0.24992">
        <ele>1067.2302246094</ele>
        <time>2020-08-23T17:59:36.792Z</time>
      </trkpt>
      <trkpt lat="42.78709" lon="0.24937">
        <ele>1067.4366455078</ele>
        <time>2020-08-23T17:59:38.031Z</time>
      </trkpt>
      <trkpt lat="42.787" lon="0.24799">
        <ele>1072.1407470703</ele>
        <time>2020-08-23T17:59:39.287Z</time>
      </trkpt>
      <trkpt lat="42.78705" lon="0.24691">
        <ele>1071.1772460938</ele>
        <time>2020-08-23T17:59:40.556Z</time>
      </trkpt>
      <trkpt lat="42.78706" lon="0.24678">
        <ele>1071.421875</ele>
        <time>2020-08-23T17:59:41.826Z</time>
      </trkpt>
      <trkpt lat="42.78708" lon="0.24621">
        <ele>1072.2457275391</ele>
        <time>2020-08-23T17:59:43.103Z</time>
      </trkpt>
      <trkpt lat="42.78706" lon="0.24535">
        <ele>1075.8381347656</ele>
        <time>2020-08-23T17:59:44.390Z</time>
      </trkpt>
      <trkpt lat="42.78706" lon="0.24535">
        <ele>1075.8354492188</ele>
        <time>2020-08-23T17:59:45.677Z</time>
      </trkpt>
      <trkpt lat="42.78698" lon="0.24482">
        <ele>1076.7307128906</ele>
        <time>2020-08-23T17:59:46.970Z</time>
      </trkpt>
      <trkpt lat="42.78703" lon="0.24455">
        <ele>1080.0498046875</ele>
        <time>2020-08-23T17:59:48.267Z</time>
      </trkpt>
      <trkpt lat="42.78741" lon="0.2431">
        <ele>1089.8472900391</ele>
        <time>2020-08-23T17:59:49.582Z</time>
      </trkpt>
      <trkpt lat="42.78747" lon="0.2425">
        <ele>1091.7781982422</ele>
        <time>2020-08-23T17:59:50.904Z</time>
      </trkpt>
      <trkpt lat="42.78735" lon="0.24128">
        <ele>1093.2149658203</ele>
        <time>2020-08-23T17:59:52.240Z</time>
      </trkpt>
      <trkpt lat="42.78738" lon="0.24099">
        <ele>1092.8450927734</ele>
        <time>2020-08-23T17:59:53.580Z</time>
      </trkpt>
      <trkpt lat="42.78797" lon="0.24014">
        <ele>1112.4890136719</ele>
        <time>2020-08-23T17:59:54.934Z</time>
      </trkpt>
      <trkpt lat="42.78828" lon="0.23931">
        <ele>1103.3696289062</ele>
        <time>2020-08-23T17:59:56.299Z</time>
      </trkpt>
      <trkpt lat="42.78829" lon="0.23896">
        <ele>1099.33984375</ele>
        <time>2020-08-23T17:59:57.668Z</time>
      </trkpt>
      <trkpt lat="42.78836" lon="0.23867">
        <ele>1097.1555175781</ele>
        <time>2020-08-23T17:59:59.040Z</time>
      </trkpt>
      <trkpt lat="42.78881" lon="0.2379">
        <ele>1109.3591308594</ele>
        <time>2020-08-23T18:00:00.424Z</time>
      </trkpt>
      <trkpt lat="42.78893" lon="0.23745">
        <ele>1112.5677490234</ele>
        <time>2020-08-23T18:00:01.813Z</time>
      </trkpt>
      <trkpt lat="42.78895" lon="0.2374">
        <ele>1112.9797363281</ele>
        <time>2020-08-23T18:00:03.203Z</time>
      </trkpt>
      <trkpt lat="42.78903" lon="0.23694">
        <ele>1114.5096435547</ele>
        <time>2020-08-23T18:00:04.599Z</time>
      </trkpt>
      <trkpt lat="42.78903" lon="0.23694">
        <ele>1114.5078125</ele>
        <time>2020-08-23T18:00:05.995Z</time>
      </trkpt>
      <trkpt lat="42.78909" lon="0.23584">
        <ele>1109.3176269531</ele>
        <time>2020-08-23T18:00:07.404Z</time>
      </trkpt>
      <trkpt lat="42.78931" lon="0.23528">
        <ele>1114.275390625</ele>
        <time>2020-08-23T18:00:08.820Z</time>
      </trkpt>
      <trkpt lat="42.78933" lon="0.23503">
        <ele>1114.9990234375</ele>
        <time>2020-08-23T18:00:10.239Z</time>
      </trkpt>
      <trkpt lat="42.78934" lon="0.23477">
        <ele>1115.3594970703</ele>
        <time>2020-08-23T18:00:11.661Z</time>
      </trkpt>
      <trkpt lat="42.78939" lon="0.23425">
        <ele>1117.2700195312</ele>
        <time>2020-08-23T18:00:13.089Z</time>
      </trkpt>
      <trkpt lat="42.78914" lon="0.23306">
        <ele>1119.0679931641</ele>
        <time>2020-08-23T18:00:14.532Z</time>
      </trkpt>
      <trkpt lat="42.78914" lon="0.23306">
        <ele>1119.0660400391</ele>
        <time>2020-08-23T18:00:15.975Z</time>
      </trkpt>
      <trkpt lat="42.789" lon="0.23231">
        <ele>1120.4813232422</ele>
        <time>2020-08-23T18:00:17.427Z</time>
      </trkpt>
      <trkpt lat="42.78899" lon="0.23149">
        <ele>1127.6434326172</ele>
        <time>2020-08-23T18:00:18.889Z</time>
      </trkpt>
      <trkpt lat="42.78899" lon="0.23149">
        <ele>1127.6408691406</ele>
        <time>2020-08-23T18:00:20.351Z</time>
      </trkpt>
      <trkpt lat="42.78916" lon="0.23062">
        <ele>1137.5861816406</ele>
        <time>2020-08-23T18:00:21.823Z</time>
      </trkpt>
      <trkpt lat="42.78968" lon="0.23006">
        <ele>1146.7083740234</ele>
        <time>2020-08-23T18:00:23.306Z</time>
      </trkpt>
      <trkpt lat="42.78986" lon="0.22974">
        <ele>1147.7664794922</ele>
        <time>2020-08-23T18:00:24.794Z</time>
      </trkpt>
      <trkpt lat="42.78986" lon="0.22974">
        <ele>1147.7639160156</ele>
        <time>2020-08-23T18:00:26.282Z</time>
      </trkpt>
      <trkpt lat="42.79018" lon="0.22905">
        <ele>1151.8489990234</ele>
        <time>2020-08-23T18:00:27.779Z</time>
      </trkpt>
      <trkpt lat="42.79041" lon="0.22864">
        <ele>1156.2525634766</ele>
        <time>2020-08-23T18:00:29.282Z</time>
      </trkpt>
      <trkpt lat="42.79079" lon="0.22816">
        <ele>1161.7542724609</ele>
        <time>2020-08-23T18:00:30.794Z</time>
      </trkpt>
      <trkpt lat="42.79091" lon="0.228">
        <ele>1161.6787109375</ele>
        <time>2020-08-23T18:00:32.308Z</time>
      </trkpt>
      <trkpt lat="42.79095" lon="0.22772">
        <ele>1159.9514160156</ele>
        <time>2020-08-23T18:00:33.826Z</time>
      </trkpt>
      <trkpt lat="42.79092" lon="0.22756">
        <ele>1158.0572509766</ele>
        <time>2020-08-23T18:00:35.346Z</time>
      </trkpt>
      <trkpt lat="42.79103" lon="0.22711">
        <ele>1154.5286865234</ele>
        <time>2020-08-23T18:00:36.871Z</time>
      </trkpt>
      <trkpt lat="42.79144" lon="0.22683">
        <ele>1159.0084228516</ele>
        <time>2020-08-23T18:00:38.404Z</time>
      </trkpt>
      <trkpt lat="42.79151" lon="0.22661">
        <ele>1158.1966552734</ele>
        <time>2020-08-23T18:00:39.939Z</time>
      </trkpt>
      <trkpt lat="42.79151" lon="0.22661">
        <ele>1158.1975097656</ele>
        <time>2020-08-23T18:00:41.474Z</time>
      </trkpt>
      <trkpt lat="42.79164" lon="0.22627">
        <ele>1157.1473388672</ele>
        <time>2020-08-23T18:00:43.014Z</time>
      </trkpt>
      <trkpt lat="42.79234" lon="0.2258">
        <ele>1167.5230712891</ele>
        <time>2020-08-23T18:00:44.566Z</time>
      </trkpt>
      <trkpt lat="42.79358" lon="0.22554">
        <ele>1182.7791748047</ele>
        <time>2020-08-23T18:00:46.139Z</time>
      </trkpt>
      <trkpt lat="42.79358" lon="0.22554">
        <ele>1182.7779541016</ele>
        <time>2020-08-23T18:00:47.712Z</time>
      </trkpt>
      <trkpt lat="42.79383" lon="0.2257">
        <ele>1186.1376953125</ele>
        <time>2020-08-23T18:00:49.289Z</time>
      </trkpt>
      <trkpt lat="42.79433" lon="0.22577">
        <ele>1193.8856201172</ele>
        <time>2020-08-23T18:00:50.874Z</time>
      </trkpt>
      <trkpt lat="42.79472" lon="0.22592">
        <ele>1200.5755615234</ele>
        <time>2020-08-23T18:00:52.465Z</time>
      </trkpt>
      <trkpt lat="42.79572" lon="0.22584">
        <ele>1207.7922363281</ele>
        <time>2020-08-23T18:00:54.072Z</time>
      </trkpt>
      <trkpt lat="42.7964" lon="0.2263">
        <ele>1216.6829833984</ele>
        <time>2020-08-23T18:00:55.692Z</time>
      </trkpt>
      <trkpt lat="42.7965" lon="0.22638">
        <ele>1217.8930664062</ele>
        <time>2020-08-23T18:00:57.313Z</time>
      </trkpt>
      <trkpt lat="42.79658" lon="0.22667">
        <ele>1215.7819824219</ele>
        <time>2020-08-23T18:00:58.938Z</time>
      </trkpt>
      <trkpt lat="42.79708" lon="0.22769">
        <ele>1223.2836914062</ele>
        <time>2020-08-23T18:01:00.578Z</time>
      </trkpt>
      <trkpt lat="42.7972" lon="0.22777">
        <ele>1223.3352050781</ele>
        <time>2020-08-23T18:01:02.220Z</time>
      </trkpt>
      <trkpt lat="42.79804" lon="0.22796">
        <ele>1225.0780029297</ele>
        <time>2020-08-23T18:01:03.875Z</time>
      </trkpt>
      <trkpt lat="42.79849" lon="0.22879">
        <ele>1232.2277832031</ele>
        <time>2020-08-23T18:01:05.542Z</time>
      </trkpt>
      <trkpt lat="42.79873" lon="0.22899">
        <ele>1238.2520751953</ele>
        <time>2020-08-23T18:01:07.214Z</time>
      </trkpt>
      <trkpt lat="42.79909" lon="0.22952">
        <ele>1248.8895263672</ele>
        <time>2020-08-23T18:01:08.895Z</time>
      </trkpt>
      <trkpt lat="42.79912" lon="0.22977">
        <ele>1261.1143798828</ele>
        <time>2020-08-23T18:01:10.578Z</time>
      </trkpt>
      <trkpt lat="42.79928" lon="0.22994">
        <ele>1270.3452148438</ele>
        <time>2020-08-23T18:01:12.265Z</time>
      </trkpt>
      <trkpt lat="42.79986" lon="0.23011">
        <ele>1282.1817626953</ele>
        <time>2020-08-23T18:01:13.961Z</time>
      </trkpt>
      <trkpt lat="42.8004" lon="0.22992">
        <ele>1267.7150878906</ele>
        <time>2020-08-23T18:01:15.666Z</time>
      </trkpt>
      <trkpt lat="42.801" lon="0.23004">
        <ele>1273.5638427734</ele>
        <time>2020-08-23T18:01:17.381Z</time>
      </trkpt>
      <trkpt lat="42.80134" lon="0.22997">
        <ele>1277.4188232422</ele>
        <time>2020-08-23T18:01:19.101Z</time>
      </trkpt>
      <trkpt lat="42.80202" lon="0.22961">
        <ele>1285.2694091797</ele>
        <time>2020-08-23T18:01:20.833Z</time>
      </trkpt>
      <trkpt lat="42.80234" lon="0.22924">
        <ele>1288.6104736328</ele>
        <time>2020-08-23T18:01:22.572Z</time>
      </trkpt>
      <trkpt lat="42.80263" lon="0.2287">
        <ele>1280.2932128906</ele>
        <time>2020-08-23T18:01:24.319Z</time>
      </trkpt>
      <trkpt lat="42.80354" lon="0.2279">
        <ele>1295.9577636719</ele>
        <time>2020-08-23T18:01:26.083Z</time>
      </trkpt>
      <trkpt lat="42.80447" lon="0.22752">
        <ele>1313.4489746094</ele>
        <time>2020-08-23T18:01:27.863Z</time>
      </trkpt>
      <trkpt lat="42.80509" lon="0.22752">
        <ele>1325.9666748047</ele>
        <time>2020-08-23T18:01:29.653Z</time>
      </trkpt>
      <trkpt lat="42.80587" lon="0.22735">
        <ele>1334.2723388672</ele>
        <time>2020-08-23T18:01:31.455Z</time>
      </trkpt>
      <trkpt lat="42.80644" lon="0.2267">
        <ele>1328.3414306641</ele>
        <time>2020-08-23T18:01:33.269Z</time>
      </trkpt>
      <trkpt lat="42.80719" lon="0.22568">
        <ele>1324.9206542969</ele>
        <time>2020-08-23T18:01:35.100Z</time>
      </trkpt>
      <trkpt lat="42.80751" lon="0.22546">
        <ele>1325.5771484375</ele>
        <time>2020-08-23T18:01:36.937Z</time>
      </trkpt>
      <trkpt lat="42.80778" lon="0.22547">
        <ele>1334.4633789062</ele>
        <time>2020-08-23T18:01:38.778Z</time>
      </trkpt>
      <trkpt lat="42.80778" lon="0.22547">
        <ele>1334.4608154297</ele>
        <time>2020-08-23T18:01:40.619Z</time>
      </trkpt>
      <trkpt lat="42.80798" lon="0.2255">
        <ele>1342.4289550781</ele>
        <time>2020-08-23T18:01:42.463Z</time>
      </trkpt>
      <trkpt lat="42.80851" lon="0.22495">
        <ele>1342.1912841797</ele>
        <time>2020-08-23T18:01:44.318Z</time>
      </trkpt>
      <trkpt lat="42.8093" lon="0.22313">
        <ele>1349.533203125</ele>
        <time>2020-08-23T18:01:46.198Z</time>
      </trkpt>
      <trkpt lat="42.80938" lon="0.22256">
        <ele>1347.2191162109</ele>
        <time>2020-08-23T18:01:48.085Z</time>
      </trkpt>
      <trkpt lat="42.80936" lon="0.22193">
        <ele>1342.4158935547</ele>
        <time>2020-08-23T18:01:49.979Z</time>
      </trkpt>
      <trkpt lat="42.80956" lon="0.2212">
        <ele>1354.2219238281</ele>
        <time>2020-08-23T18:01:51.882Z</time>
      </trkpt>
      <trkpt lat="42.80982" lon="0.22098">
        <ele>1370.7299804688</ele>
        <time>2020-08-23T18:01:53.790Z</time>
      </trkpt>
      <trkpt lat="42.81003" lon="0.22096">
        <ele>1372.7895507812</ele>
        <time>2020-08-23T18:01:55.702Z</time>
      </trkpt>
      <trkpt lat="42.81015" lon="0.22101">
        <ele>1374.6141357422</ele>
        <time>2020-08-23T18:01:57.616Z</time>
      </trkpt>
      <trkpt lat="42.81052" lon="0.22145">
        <ele>1387.1296386719</ele>
        <time>2020-08-23T18:01:59.537Z</time>
      </trkpt>
      <trkpt lat="42.81094" lon="0.22167">
        <ele>1402.1389160156</ele>
        <time>2020-08-23T18:02:01.466Z</time>
      </trkpt>
      <trkpt lat="42.81151" lon="0.22168">
        <ele>1410.1328125</ele>
        <time>2020-08-23T18:02:03.404Z</time>
      </trkpt>
      <trkpt lat="42.81203" lon="0.22154">
        <ele>1415.4379882812</ele>
        <time>2020-08-23T18:02:05.350Z</time>
      </trkpt>
      <trkpt lat="42.8124" lon="0.22096">
        <ele>1406.6320800781</ele>
        <time>2020-08-23T18:02:07.305Z</time>
      </trkpt>
      <trkpt lat="42.81276" lon="0.21995">
        <ele>1405.3244628906</ele>
        <time>2020-08-23T18:02:09.273Z</time>
      </trkpt>
      <trkpt lat="42.81288" lon="0.21929">
        <ele>1411.93359375</ele>
        <time>2020-08-23T18:02:11.249Z</time>
      </trkpt>
      <trkpt lat="42.8134" lon="0.21766">
        <ele>1395.0690917969</ele>
        <time>2020-08-23T18:02:13.246Z</time>
      </trkpt>
      <trkpt lat="42.81339" lon="0.21743">
        <ele>1393.8848876953</ele>
        <time>2020-08-23T18:02:15.246Z</time>
      </trkpt>
      <trkpt lat="42.814" lon="0.21572">
        <ele>1414.9888916016</ele>
        <time>2020-08-23T18:02:17.268Z</time>
      </trkpt>
      <trkpt lat="42.81416" lon="0.21425">
        <ele>1418.6964111328</ele>
        <time>2020-08-23T18:02:19.308Z</time>
      </trkpt>
      <trkpt lat="42.81449" lon="0.21318">
        <ele>1433.9254150391</ele>
        <time>2020-08-23T18:02:21.362Z</time>
      </trkpt>
      <trkpt lat="42.81455" lon="0.21217">
        <ele>1443.4235839844</ele>
        <time>2020-08-23T18:02:23.427Z</time>
      </trkpt>
      <trkpt lat="42.81469" lon="0.21142">
        <ele>1445.8845214844</ele>
        <time>2020-08-23T18:02:25.502Z</time>
      </trkpt>
      <trkpt lat="42.81461" lon="0.2108">
        <ele>1457.3843994141</ele>
        <time>2020-08-23T18:02:27.584Z</time>
      </trkpt>
      <trkpt lat="42.81461" lon="0.2102">
        <ele>1465.1568603516</ele>
        <time>2020-08-23T18:02:29.673Z</time>
      </trkpt>
      <trkpt lat="42.81469" lon="0.20987">
        <ele>1465.2159423828</ele>
        <time>2020-08-23T18:02:31.766Z</time>
      </trkpt>
      <trkpt lat="42.81474" lon="0.2096">
        <ele>1464.0573730469</ele>
        <time>2020-08-23T18:02:33.862Z</time>
      </trkpt>
      <trkpt lat="42.815" lon="0.20927">
        <ele>1452.2593994141</ele>
        <time>2020-08-23T18:02:35.964Z</time>
      </trkpt>
      <trkpt lat="42.81537" lon="0.20816">
        <ele>1471.7502441406</ele>
        <time>2020-08-23T18:02:38.081Z</time>
      </trkpt>
      <trkpt lat="42.81538" lon="0.208">
        <ele>1469.6262207031</ele>
        <time>2020-08-23T18:02:40.199Z</time>
      </trkpt>
      <trkpt lat="42.81525" lon="0.20757">
        <ele>1476.3850097656</ele>
        <time>2020-08-23T18:02:42.323Z</time>
      </trkpt>
      <trkpt lat="42.81524" lon="0.20731">
        <ele>1479.9764404297</ele>
        <time>2020-08-23T18:02:44.450Z</time>
      </trkpt>
      <trkpt lat="42.81542" lon="0.20689">
        <ele>1483.4486083984</ele>
        <time>2020-08-23T18:02:46.583Z</time>
      </trkpt>
      <trkpt lat="42.81574" lon="0.20656">
        <ele>1475.9653320312</ele>
        <time>2020-08-23T18:02:48.722Z</time>
      </trkpt>
      <trkpt lat="42.81576" lon="0.2064">
        <ele>1474.5235595703</ele>
        <time>2020-08-23T18:02:50.863Z</time>
      </trkpt>
      <trkpt lat="42.8155" lon="0.20558">
        <ele>1485.5734863281</ele>
        <time>2020-08-23T18:02:53.015Z</time>
      </trkpt>
      <trkpt lat="42.81536" lon="0.20551">
        <ele>1489.3708496094</ele>
        <time>2020-08-23T18:02:55.169Z</time>
      </trkpt>
      <trkpt lat="42.81531" lon="0.20656">
        <ele>1488.9837646484</ele>
        <time>2020-08-23T18:02:57.335Z</time>
      </trkpt>
      <trkpt lat="42.81523" lon="0.20672">
        <ele>1488.1341552734</ele>
        <time>2020-08-23T18:02:59.504Z</time>
      </trkpt>
      <trkpt lat="42.81508" lon="0.20674">
        <ele>1490.0393066406</ele>
        <time>2020-08-23T18:03:01.675Z</time>
      </trkpt>
      <trkpt lat="42.81506" lon="0.20657">
        <ele>1492.4078369141</ele>
        <time>2020-08-23T18:03:03.848Z</time>
      </trkpt>
      <trkpt lat="42.81516" lon="0.20632">
        <ele>1492.8538818359</ele>
        <time>2020-08-23T18:03:06.024Z</time>
      </trkpt>
      <trkpt lat="42.81506" lon="0.2058">
        <ele>1496.2978515625</ele>
        <time>2020-08-23T18:03:08.207Z</time>
      </trkpt>
      <trkpt lat="42.81457" lon="0.2051">
        <ele>1525.7349853516</ele>
        <time>2020-08-23T18:03:10.401Z</time>
      </trkpt>
      <trkpt lat="42.8145" lon="0.20457">
        <ele>1529.3024902344</ele>
        <time>2020-08-23T18:03:12.601Z</time>
      </trkpt>
      <trkpt lat="42.81453" lon="0.20411">
        <ele>1528.5173339844</ele>
        <time>2020-08-23T18:03:14.807Z</time>
      </trkpt>
      <trkpt lat="42.81464" lon="0.20362">
        <ele>1524.1564941406</ele>
        <time>2020-08-23T18:03:17.019Z</time>
      </trkpt>
      <trkpt lat="42.81436" lon="0.20213">
        <ele>1550.7293701172</ele>
        <time>2020-08-23T18:03:19.249Z</time>
      </trkpt>
      <trkpt lat="42.81439" lon="0.20155">
        <ele>1552.3167724609</ele>
        <time>2020-08-23T18:03:21.486Z</time>
      </trkpt>
      <trkpt lat="42.81444" lon="0.20125">
        <ele>1553.5690917969</ele>
        <time>2020-08-23T18:03:23.726Z</time>
      </trkpt>
      <trkpt lat="42.81456" lon="0.20099">
        <ele>1551.1103515625</ele>
        <time>2020-08-23T18:03:25.970Z</time>
      </trkpt>
      <trkpt lat="42.81494" lon="0.20066">
        <ele>1540.0190429688</ele>
        <time>2020-08-23T18:03:28.221Z</time>
      </trkpt>
      <trkpt lat="42.81528" lon="0.19989">
        <ele>1555.6823730469</ele>
        <time>2020-08-23T18:03:30.483Z</time>
      </trkpt>
      <trkpt lat="42.816" lon="0.19915">
        <ele>1561.8620605469</ele>
        <time>2020-08-23T18:03:32.759Z</time>
      </trkpt>
      <trkpt lat="42.81608" lon="0.19863">
        <ele>1566.0187988281</ele>
        <time>2020-08-23T18:03:35.042Z</time>
      </trkpt>
      <trkpt lat="42.81601" lon="0.19805">
        <ele>1573.9796142578</ele>
        <time>2020-08-23T18:03:37.331Z</time>
      </trkpt>
      <trkpt lat="42.81609" lon="0.19732">
        <ele>1581.0256347656</ele>
        <time>2020-08-23T18:03:39.629Z</time>
      </trkpt>
      <trkpt lat="42.81631" lon="0.19663">
        <ele>1578.2583007812</ele>
        <time>2020-08-23T18:03:41.936Z</time>
      </trkpt>
      <trkpt lat="42.81644" lon="0.19647">
        <ele>1572.1953125</ele>
        <time>2020-08-23T18:03:44.246Z</time>
      </trkpt>
      <trkpt lat="42.81657" lon="0.19643">
        <ele>1565.7939453125</ele>
        <time>2020-08-23T18:03:46.558Z</time>
      </trkpt>
      <trkpt lat="42.81657" lon="0.19643">
        <ele>1565.7977294922</ele>
        <time>2020-08-23T18:03:48.870Z</time>
      </trkpt>
      <trkpt lat="42.81678" lon="0.19639">
        <ele>1560.6805419922</ele>
        <time>2020-08-23T18:03:51.185Z</time>
      </trkpt>
      <trkpt lat="42.81682" lon="0.19624">
        <ele>1561.4591064453</ele>
        <time>2020-08-23T18:03:53.502Z</time>
      </trkpt>
      <trkpt lat="42.8167" lon="0.19614">
        <ele>1562.2734375</ele>
        <time>2020-08-23T18:03:55.822Z</time>
      </trkpt>
      <trkpt lat="42.81656" lon="0.19628">
        <ele>1566.1066894531</ele>
        <time>2020-08-23T18:03:58.144Z</time>
      </trkpt>
      <trkpt lat="42.81646" lon="0.19629">
        <ele>1571.0111083984</ele>
        <time>2020-08-23T18:04:00.468Z</time>
      </trkpt>
      <trkpt lat="42.81642" lon="0.19608">
        <ele>1576.5969238281</ele>
        <time>2020-08-23T18:04:02.795Z</time>
      </trkpt>
      <trkpt lat="42.81693" lon="0.19578">
        <ele>1571.5625</ele>
        <time>2020-08-23T18:04:05.130Z</time>
      </trkpt>
      <trkpt lat="42.81726" lon="0.19595">
        <ele>1573.7760009766</ele>
        <time>2020-08-23T18:04:07.471Z</time>
      </trkpt>
      <trkpt lat="42.81739" lon="0.19593">
        <ele>1575.2434082031</ele>
        <time>2020-08-23T18:04:09.814Z</time>
      </trkpt>
      <trkpt lat="42.81749" lon="0.19581">
        <ele>1577.4445800781</ele>
        <time>2020-08-23T18:04:12.159Z</time>
      </trkpt>
      <trkpt lat="42.81771" lon="0.19519">
        <ele>1586.6727294922</ele>
        <time>2020-08-23T18:04:14.512Z</time>
      </trkpt>
      <trkpt lat="42.81775" lon="0.19481">
        <ele>1593.3759765625</ele>
        <time>2020-08-23T18:04:16.870Z</time>
      </trkpt>
      <trkpt lat="42.81795" lon="0.1944">
        <ele>1596.4438476562</ele>
        <time>2020-08-23T18:04:19.234Z</time>
      </trkpt>
      <trkpt lat="42.81819" lon="0.19414">
        <ele>1594.947265625</ele>
        <time>2020-08-23T18:04:21.603Z</time>
      </trkpt>
      <trkpt lat="42.81819" lon="0.19414">
        <ele>1594.9500732422</ele>
        <time>2020-08-23T18:04:23.972Z</time>
      </trkpt>
      <trkpt lat="42.81815" lon="0.19388">
        <ele>1599.4296875</ele>
        <time>2020-08-23T18:04:26.344Z</time>
      </trkpt>
      <trkpt lat="42.818" lon="0.19367">
        <ele>1608.4033203125</ele>
        <time>2020-08-23T18:04:28.719Z</time>
      </trkpt>
      <trkpt lat="42.81801" lon="0.19347">
        <ele>1612.9216308594</ele>
        <time>2020-08-23T18:04:31.097Z</time>
      </trkpt>
      <trkpt lat="42.81806" lon="0.19339">
        <ele>1613.3120117188</ele>
        <time>2020-08-23T18:04:33.476Z</time>
      </trkpt>
      <trkpt lat="42.81816" lon="0.19337">
        <ele>1609.6047363281</ele>
        <time>2020-08-23T18:04:35.857Z</time>
      </trkpt>
      <trkpt lat="42.81846" lon="0.19346">
        <ele>1600.6982421875</ele>
        <time>2020-08-23T18:04:38.242Z</time>
      </trkpt>
      <trkpt lat="42.81865" lon="0.19319">
        <ele>1609.390625</ele>
        <time>2020-08-23T18:04:40.632Z</time>
      </trkpt>
      <trkpt lat="42.81876" lon="0.19282">
        <ele>1615.1505126953</ele>
        <time>2020-08-23T18:04:43.027Z</time>
      </trkpt>
      <trkpt lat="42.81876" lon="0.19236">
        <ele>1625.0637207031</ele>
        <time>2020-08-23T18:04:45.427Z</time>
      </trkpt>
      <trkpt lat="42.81895" lon="0.19181">
        <ele>1634.4553222656</ele>
        <time>2020-08-23T18:04:47.834Z</time>
      </trkpt>
      <trkpt lat="42.819" lon="0.19141">
        <ele>1636.0515136719</ele>
        <time>2020-08-23T18:04:50.246Z</time>
      </trkpt>
      <trkpt lat="42.81893" lon="0.19103">
        <ele>1643.2169189453</ele>
        <time>2020-08-23T18:04:52.663Z</time>
      </trkpt>
      <trkpt lat="42.81873" lon="0.1906">
        <ele>1652.5329589844</ele>
        <time>2020-08-23T18:04:55.086Z</time>
      </trkpt>
      <trkpt lat="42.81874" lon="0.19045">
        <ele>1651.2640380859</ele>
        <time>2020-08-23T18:04:57.510Z</time>
      </trkpt>
      <trkpt lat="42.81902" lon="0.18958">
        <ele>1643.4561767578</ele>
        <time>2020-08-23T18:04:59.945Z</time>
      </trkpt>
      <trkpt lat="42.81902" lon="0.18958">
        <ele>1643.4613037109</ele>
        <time>2020-08-23T18:05:02.380Z</time>
      </trkpt>
      <trkpt lat="42.81933" lon="0.18848">
        <ele>1649.4743652344</ele>
        <time>2020-08-23T18:05:04.829Z</time>
      </trkpt>
      <trkpt lat="42.81949" lon="0.18701">
        <ele>1667.3125</ele>
        <time>2020-08-23T18:05:07.296Z</time>
      </trkpt>
      <trkpt lat="42.81965" lon="0.1863">
        <ele>1677.9068603516</ele>
        <time>2020-08-23T18:05:09.772Z</time>
      </trkpt>
      <trkpt lat="42.81983" lon="0.18609">
        <ele>1673.8173828125</ele>
        <time>2020-08-23T18:05:12.251Z</time>
      </trkpt>
      <trkpt lat="42.82002" lon="0.18557">
        <ele>1667.9094238281</ele>
        <time>2020-08-23T18:05:14.737Z</time>
      </trkpt>
      <trkpt lat="42.82023" lon="0.18537">
        <ele>1671.3095703125</ele>
        <time>2020-08-23T18:05:17.227Z</time>
      </trkpt>
      <trkpt lat="42.82033" lon="0.18498">
        <ele>1683.8988037109</ele>
        <time>2020-08-23T18:05:19.722Z</time>
      </trkpt>
      <trkpt lat="42.82047" lon="0.18473">
        <ele>1683.2980957031</ele>
        <time>2020-08-23T18:05:22.221Z</time>
      </trkpt>
      <trkpt lat="42.82105" lon="0.18434">
        <ele>1691.0812988281</ele>
        <time>2020-08-23T18:05:24.730Z</time>
      </trkpt>
      <trkpt lat="42.82131" lon="0.18438">
        <ele>1702.7823486328</ele>
        <time>2020-08-23T18:05:27.243Z</time>
      </trkpt>
      <trkpt lat="42.82136" lon="0.18448">
        <ele>1702.203125</ele>
        <time>2020-08-23T18:05:29.758Z</time>
      </trkpt>
      <trkpt lat="42.82134" lon="0.1847">
        <ele>1696.6958007812</ele>
        <time>2020-08-23T18:05:32.275Z</time>
      </trkpt>
      <trkpt lat="42.82101" lon="0.18514">
        <ele>1681.0893554688</ele>
        <time>2020-08-23T18:05:34.800Z</time>
      </trkpt>
      <trkpt lat="42.82078" lon="0.18581">
        <ele>1673.0911865234</ele>
        <time>2020-08-23T18:05:37.334Z</time>
      </trkpt>
      <trkpt lat="42.82081" lon="0.18593">
        <ele>1672.6278076172</ele>
        <time>2020-08-23T18:05:39.869Z</time>
      </trkpt>
      <trkpt lat="42.8209" lon="0.18595">
        <ele>1673.7864990234</ele>
        <time>2020-08-23T18:05:42.405Z</time>
      </trkpt>
      <trkpt lat="42.82097" lon="0.18581">
        <ele>1677.5838623047</ele>
        <time>2020-08-23T18:05:44.944Z</time>
      </trkpt>
      <trkpt lat="42.8211" lon="0.18522">
        <ele>1685.234375</ele>
        <time>2020-08-23T18:05:47.490Z</time>
      </trkpt>
      <trkpt lat="42.82162" lon="0.18465">
        <ele>1710.6752929688</ele>
        <time>2020-08-23T18:05:50.046Z</time>
      </trkpt>
      <trkpt lat="42.8218" lon="0.18407">
        <ele>1713.5856933594</ele>
        <time>2020-08-23T18:05:52.610Z</time>
      </trkpt>
      <trkpt lat="42.82182" lon="0.18382">
        <ele>1712.1931152344</ele>
        <time>2020-08-23T18:05:55.177Z</time>
      </trkpt>
      <trkpt lat="42.82164" lon="0.18292">
        <ele>1718.0677490234</ele>
        <time>2020-08-23T18:05:57.755Z</time>
      </trkpt>
      <trkpt lat="42.82162" lon="0.1824">
        <ele>1725.5321044922</ele>
        <time>2020-08-23T18:06:00.339Z</time>
      </trkpt>
      <trkpt lat="42.82153" lon="0.18228">
        <ele>1729.4171142578</ele>
        <time>2020-08-23T18:06:02.925Z</time>
      </trkpt>
      <trkpt lat="42.82153" lon="0.18228">
        <ele>1729.4195556641</ele>
        <time>2020-08-23T18:06:05.511Z</time>
      </trkpt>
      <trkpt lat="42.82136" lon="0.18207">
        <ele>1737.3732910156</ele>
        <time>2020-08-23T18:06:08.101Z</time>
      </trkpt>
      <trkpt lat="42.82122" lon="0.18171">
        <ele>1749.0357666016</ele>
        <time>2020-08-23T18:06:10.695Z</time>
      </trkpt>
      <trkpt lat="42.82118" lon="0.18131">
        <ele>1756.5430908203</ele>
        <time>2020-08-23T18:06:13.294Z</time>
      </trkpt>
      <trkpt lat="42.8213" lon="0.17988">
        <ele>1763.8591308594</ele>
        <time>2020-08-23T18:06:15.910Z</time>
      </trkpt>
      <trkpt lat="42.82116" lon="0.17867">
        <ele>1771.3291015625</ele>
        <time>2020-08-23T18:06:18.541Z</time>
      </trkpt>
      <trkpt lat="42.82145" lon="0.17784">
        <ele>1753.5855712891</ele>
        <time>2020-08-23T18:06:21.182Z</time>
      </trkpt>
      <trkpt lat="42.8214" lon="0.17764">
        <ele>1754.1166992188</ele>
        <time>2020-08-23T18:06:23.826Z</time>
      </trkpt>
      <trkpt lat="42.8213" lon="0.17752">
        <ele>1757.8054199219</ele>
        <time>2020-08-23T18:06:26.472Z</time>
      </trkpt>
      <trkpt lat="42.82118" lon="0.17752">
        <ele>1762.5997314453</ele>
        <time>2020-08-23T18:06:29.120Z</time>
      </trkpt>
      <trkpt lat="42.82079" lon="0.17785">
        <ele>1781.1228027344</ele>
        <time>2020-08-23T18:06:31.775Z</time>
      </trkpt>
      <trkpt lat="42.82071" lon="0.17805">
        <ele>1782.3920898438</ele>
        <time>2020-08-23T18:06:34.433Z</time>
      </trkpt>
      <trkpt lat="42.82095" lon="0.17905">
        <ele>1778.9129638672</ele>
        <time>2020-08-23T18:06:37.103Z</time>
      </trkpt>
      <trkpt lat="42.82097" lon="0.17972">
        <ele>1775.5128173828</ele>
        <time>2020-08-23T18:06:39.781Z</time>
      </trkpt>
      <trkpt lat="42.82081" lon="0.18052">
        <ele>1778.0394287109</ele>
        <time>2020-08-23T18:06:42.469Z</time>
      </trkpt>
      <trkpt lat="42.82066" lon="0.18048">
        <ele>1784.0379638672</ele>
        <time>2020-08-23T18:06:45.160Z</time>
      </trkpt>
      <trkpt lat="42.82066" lon="0.18035">
        <ele>1784.3607177734</ele>
        <time>2020-08-23T18:06:47.852Z</time>
      </trkpt>
      <trkpt lat="42.82086" lon="0.17994">
        <ele>1778.8737792969</ele>
        <time>2020-08-23T18:06:50.550Z</time>
      </trkpt>
      <trkpt lat="42.8209" lon="0.1796">
        <ele>1778.6812744141</ele>
        <time>2020-08-23T18:06:53.252Z</time>
      </trkpt>
      <trkpt lat="42.82076" lon="0.17913">
        <ele>1784.4371337891</ele>
        <time>2020-08-23T18:06:55.960Z</time>
      </trkpt>
      <trkpt lat="42.82039" lon="0.17869">
        <ele>1795.4307861328</ele>
        <time>2020-08-23T18:06:58.676Z</time>
      </trkpt>
      <trkpt lat="42.82009" lon="0.17846">
        <ele>1802.1888427734</ele>
        <time>2020-08-23T18:07:01.397Z</time>
      </trkpt>
      <trkpt lat="42.82003" lon="0.17827">
        <ele>1803.1499023438</ele>
        <time>2020-08-23T18:07:04.121Z</time>
      </trkpt>
      <trkpt lat="42.82008" lon="0.17807">
        <ele>1799.1638183594</ele>
        <time>2020-08-23T18:07:06.847Z</time>
      </trkpt>
      <trkpt lat="42.8203" lon="0.17768">
        <ele>1797.0330810547</ele>
        <time>2020-08-23T18:07:09.579Z</time>
      </trkpt>
      <trkpt lat="42.82049" lon="0.17755">
        <ele>1794.0982666016</ele>
        <time>2020-08-23T18:07:12.314Z</time>
      </trkpt>
      <trkpt lat="42.82067" lon="0.17706">
        <ele>1786.0263671875</ele>
        <time>2020-08-23T18:07:15.056Z</time>
      </trkpt>
      <trkpt lat="42.82122" lon="0.17625">
        <ele>1790.0059814453</ele>
        <time>2020-08-23T18:07:17.811Z</time>
      </trkpt>
      <trkpt lat="42.82138" lon="0.1759">
        <ele>1798.2723388672</ele>
        <time>2020-08-23T18:07:20.571Z</time>
      </trkpt>
      <trkpt lat="42.8216" lon="0.17567">
        <ele>1792.9559326172</ele>
        <time>2020-08-23T18:07:23.335Z</time>
      </trkpt>
      <trkpt lat="42.82186" lon="0.17553">
        <ele>1788.8935546875</ele>
        <time>2020-08-23T18:07:26.104Z</time>
      </trkpt>
      <trkpt lat="42.82198" lon="0.17535">
        <ele>1792.2154541016</ele>
        <time>2020-08-23T18:07:28.875Z</time>
      </trkpt>
      <trkpt lat="42.82207" lon="0.17527">
        <ele>1794.0677490234</ele>
        <time>2020-08-23T18:07:31.648Z</time>
      </trkpt>
      <trkpt lat="42.82231" lon="0.17523">
        <ele>1791.1599121094</ele>
        <time>2020-08-23T18:07:34.425Z</time>
      </trkpt>
      <trkpt lat="42.82234" lon="0.17503">
        <ele>1796.0161132812</ele>
        <time>2020-08-23T18:07:37.205Z</time>
      </trkpt>
      <trkpt lat="42.8222" lon="0.175">
        <ele>1801.0106201172</ele>
        <time>2020-08-23T18:07:39.987Z</time>
      </trkpt>
      <trkpt lat="42.82192" lon="0.17522">
        <ele>1798.2398681641</ele>
        <time>2020-08-23T18:07:42.774Z</time>
      </trkpt>
      <trkpt lat="42.82185" lon="0.17519">
        <ele>1800.5568847656</ele>
        <time>2020-08-23T18:07:45.562Z</time>
      </trkpt>
      <trkpt lat="42.82184" lon="0.17506">
        <ele>1805.6800537109</ele>
        <time>2020-08-23T18:07:48.352Z</time>
      </trkpt>
      <trkpt lat="42.82238" lon="0.17475">
        <ele>1801.7572021484</ele>
        <time>2020-08-23T18:07:51.151Z</time>
      </trkpt>
      <trkpt lat="42.82237" lon="0.1746">
        <ele>1806.0673828125</ele>
        <time>2020-08-23T18:07:53.952Z</time>
      </trkpt>
      <trkpt lat="42.82224" lon="0.17457">
        <ele>1811.3218994141</ele>
        <time>2020-08-23T18:07:56.755Z</time>
      </trkpt>
      <trkpt lat="42.82182" lon="0.17489">
        <ele>1812.6312255859</ele>
        <time>2020-08-23T18:07:59.565Z</time>
      </trkpt>
      <trkpt lat="42.82171" lon="0.17487">
        <ele>1815.68359375</ele>
        <time>2020-08-23T18:08:02.377Z</time>
      </trkpt>
      <trkpt lat="42.82169" lon="0.17477">
        <ele>1821.0899658203</ele>
        <time>2020-08-23T18:08:05.190Z</time>
      </trkpt>
      <trkpt lat="42.82189" lon="0.1745">
        <ele>1824.7221679688</ele>
        <time>2020-08-23T18:08:08.008Z</time>
      </trkpt>
      <trkpt lat="42.82228" lon="0.1743">
        <ele>1821.041015625</ele>
        <time>2020-08-23T18:08:10.833Z</time>
      </trkpt>
      <trkpt lat="42.82228" lon="0.17416">
        <ele>1825.0572509766</ele>
        <time>2020-08-23T18:08:13.659Z</time>
      </trkpt>
      <trkpt lat="42.82222" lon="0.17408">
        <ele>1830.3864746094</ele>
        <time>2020-08-23T18:08:16.487Z</time>
      </trkpt>
      <trkpt lat="42.82176" lon="0.17426">
        <ele>1839.2421875</ele>
        <time>2020-08-23T18:08:19.322Z</time>
      </trkpt>
      <trkpt lat="42.82163" lon="0.17458">
        <ele>1833.6416015625</ele>
        <time>2020-08-23T18:08:22.162Z</time>
      </trkpt>
      <trkpt lat="42.82154" lon="0.17457">
        <ele>1840.8630371094</ele>
        <time>2020-08-23T18:08:25.003Z</time>
      </trkpt>
      <trkpt lat="42.82151" lon="0.17448">
        <ele>1846.8100585938</ele>
        <time>2020-08-23T18:08:27.845Z</time>
      </trkpt>
      <trkpt lat="42.82166" lon="0.17408">
        <ele>1852.7738037109</ele>
        <time>2020-08-23T18:08:30.693Z</time>
      </trkpt>
      <trkpt lat="42.82181" lon="0.17388">
        <ele>1853.8525390625</ele>
        <time>2020-08-23T18:08:33.544Z</time>
      </trkpt>
      <trkpt lat="42.82214" lon="0.17372">
        <ele>1844.5391845703</ele>
        <time>2020-08-23T18:08:36.401Z</time>
      </trkpt>
      <trkpt lat="42.82226" lon="0.17358">
        <ele>1844.8223876953</ele>
        <time>2020-08-23T18:08:39.260Z</time>
      </trkpt>
      <trkpt lat="42.82268" lon="0.17236">
        <ele>1868.9362792969</ele>
        <time>2020-08-23T18:08:42.135Z</time>
      </trkpt>
      <trkpt lat="42.82294" lon="0.17125">
        <ele>1883.5128173828</ele>
        <time>2020-08-23T18:08:45.024Z</time>
      </trkpt>
      <trkpt lat="42.82314" lon="0.17093">
        <ele>1879.1174316406</ele>
        <time>2020-08-23T18:08:47.918Z</time>
      </trkpt>
      <trkpt lat="42.82359" lon="0.16984">
        <ele>1903.8724365234</ele>
        <time>2020-08-23T18:08:50.826Z</time>
      </trkpt>
      <trkpt lat="42.82416" lon="0.16918">
        <ele>1874.4305419922</ele>
        <time>2020-08-23T18:08:53.746Z</time>
      </trkpt>
      <trkpt lat="42.82416" lon="0.16918">
        <ele>1874.4378662109</ele>
        <time>2020-08-23T18:08:56.666Z</time>
      </trkpt>
      <trkpt lat="42.82434" lon="0.16898">
        <ele>1877.3695068359</ele>
        <time>2020-08-23T18:08:59.590Z</time>
      </trkpt>
      <trkpt lat="42.8245" lon="0.1684">
        <ele>1889.5297851562</ele>
        <time>2020-08-23T18:09:02.521Z</time>
      </trkpt>
      <trkpt lat="42.8246" lon="0.16725">
        <ele>1899.6143798828</ele>
        <time>2020-08-23T18:09:05.466Z</time>
      </trkpt>
      <trkpt lat="42.82456" lon="0.16463">
        <ele>1888.03125</ele>
        <time>2020-08-23T18:09:08.442Z</time>
      </trkpt>
      <trkpt lat="42.82458" lon="0.16447">
        <ele>1885.052734375</ele>
        <time>2020-08-23T18:09:11.420Z</time>
      </trkpt>
      <trkpt lat="42.82465" lon="0.16437">
        <ele>1879.7061767578</ele>
        <time>2020-08-23T18:09:14.399Z</time>
      </trkpt>
      <trkpt lat="42.82476" lon="0.16444">
        <ele>1874.8192138672</ele>
        <time>2020-08-23T18:09:17.380Z</time>
      </trkpt>
      <trkpt lat="42.82475" lon="0.16487">
        <ele>1879.3037109375</ele>
        <time>2020-08-23T18:09:20.366Z</time>
      </trkpt>
      <trkpt lat="42.82492" lon="0.16651">
        <ele>1877.5275878906</ele>
        <time>2020-08-23T18:09:23.372Z</time>
      </trkpt>
      <trkpt lat="42.82507" lon="0.16748">
        <ele>1868.4086914062</ele>
        <time>2020-08-23T18:09:26.390Z</time>
      </trkpt>
      <trkpt lat="42.82506" lon="0.16791">
        <ele>1866.0787353516</ele>
        <time>2020-08-23T18:09:29.413Z</time>
      </trkpt>
      <trkpt lat="42.82487" lon="0.16869">
        <ele>1861.2489013672</ele>
        <time>2020-08-23T18:09:32.445Z</time>
      </trkpt>
      <trkpt lat="42.82502" lon="0.16885">
        <ele>1849.6094970703</ele>
        <time>2020-08-23T18:09:35.480Z</time>
      </trkpt>
      <trkpt lat="42.82582" lon="0.16904">
        <ele>1861.0183105469</ele>
        <time>2020-08-23T18:09:38.528Z</time>
      </trkpt>
      <trkpt lat="42.82613" lon="0.16849">
        <ele>1860.5139160156</ele>
        <time>2020-08-23T18:09:41.585Z</time>
      </trkpt>
      <trkpt lat="42.82636" lon="0.16842">
        <ele>1863.4874267578</ele>
        <time>2020-08-23T18:09:44.645Z</time>
      </trkpt>
      <trkpt lat="42.82652" lon="0.16856">
        <ele>1868.4125976562</ele>
        <time>2020-08-23T18:09:47.708Z</time>
      </trkpt>
      <trkpt lat="42.82721" lon="0.1694">
        <ele>1880.2762451172</ele>
        <time>2020-08-23T18:09:50.786Z</time>
      </trkpt>
      <trkpt lat="42.8273" lon="0.16952">
        <ele>1880.9842529297</ele>
        <time>2020-08-23T18:09:53.866Z</time>
      </trkpt>
      <trkpt lat="42.82746" lon="0.16961">
        <ele>1879.3948974609</ele>
        <time>2020-08-23T18:09:56.949Z</time>
      </trkpt>
      <trkpt lat="42.82755" lon="0.16964">
        <ele>1877.7471923828</ele>
        <time>2020-08-23T18:10:00.034Z</time>
      </trkpt>
      <trkpt lat="42.82757" lon="0.16967">
        <ele>1877.8359375</ele>
        <time>2020-08-23T18:10:03.119Z</time>
      </trkpt>
      <trkpt lat="42.82771" lon="0.16979">
        <ele>1878.6350097656</ele>
        <time>2020-08-23T18:10:06.207Z</time>
      </trkpt>
      <trkpt lat="42.82773" lon="0.17009">
        <ele>1884.1444091797</ele>
        <time>2020-08-23T18:10:09.298Z</time>
      </trkpt>
      <trkpt lat="42.82796" lon="0.17043">
        <ele>1887.8259277344</ele>
        <time>2020-08-23T18:10:12.395Z</time>
      </trkpt>
      <trkpt lat="42.8281" lon="0.17051">
        <ele>1888.0456542969</ele>
        <time>2020-08-23T18:10:15.494Z</time>
      </trkpt>
      <trkpt lat="42.82843" lon="0.17045">
        <ele>1884.0931396484</ele>
        <time>2020-08-23T18:10:18.598Z</time>
      </trkpt>
      <trkpt lat="42.82843" lon="0.17045">
        <ele>1884.0910644531</ele>
        <time>2020-08-23T18:10:21.702Z</time>
      </trkpt>
      <trkpt lat="42.82885" lon="0.1702">
        <ele>1890.8334960938</ele>
        <time>2020-08-23T18:10:24.814Z</time>
      </trkpt>
      <trkpt lat="42.82906" lon="0.16993">
        <ele>1889.0609130859</ele>
        <time>2020-08-23T18:10:27.930Z</time>
      </trkpt>
      <trkpt lat="42.8292" lon="0.16992">
        <ele>1890.8243408203</ele>
        <time>2020-08-23T18:10:31.049Z</time>
      </trkpt>
      <trkpt lat="42.82923" lon="0.17006">
        <ele>1894.8214111328</ele>
        <time>2020-08-23T18:10:34.169Z</time>
      </trkpt>
      <trkpt lat="42.82864" lon="0.17079">
        <ele>1897.3714599609</ele>
        <time>2020-08-23T18:10:37.302Z</time>
      </trkpt>
      <trkpt lat="42.82864" lon="0.17079">
        <ele>1897.3693847656</ele>
        <time>2020-08-23T18:10:40.435Z</time>
      </trkpt>
      <trkpt lat="42.82828" lon="0.17122">
        <ele>1902.4927978516</ele>
        <time>2020-08-23T18:10:43.576Z</time>
      </trkpt>
      <trkpt lat="42.82791" lon="0.17148">
        <ele>1916.3084716797</ele>
        <time>2020-08-23T18:10:46.723Z</time>
      </trkpt>
      <trkpt lat="42.82771" lon="0.17144">
        <ele>1919.8464355469</ele>
        <time>2020-08-23T18:10:49.874Z</time>
      </trkpt>
      <trkpt lat="42.82726" lon="0.17088">
        <ele>1913.7359619141</ele>
        <time>2020-08-23T18:10:53.034Z</time>
      </trkpt>
      <trkpt lat="42.82712" lon="0.17081">
        <ele>1914.8302001953</ele>
        <time>2020-08-23T18:10:56.197Z</time>
      </trkpt>
      <trkpt lat="42.82706" lon="0.17093">
        <ele>1917.7602539062</ele>
        <time>2020-08-23T18:10:59.361Z</time>
      </trkpt>
      <trkpt lat="42.82711" lon="0.17106">
        <ele>1919.5367431641</ele>
        <time>2020-08-23T18:11:02.527Z</time>
      </trkpt>
      <trkpt lat="42.82804" lon="0.17239">
        <ele>1939.7824707031</ele>
        <time>2020-08-23T18:11:05.715Z</time>
      </trkpt>
      <trkpt lat="42.82804" lon="0.17239">
        <ele>1939.7850341797</ele>
        <time>2020-08-23T18:11:08.903Z</time>
      </trkpt>
      <trkpt lat="42.82845" lon="0.17238">
        <ele>1929.8604736328</ele>
        <time>2020-08-23T18:11:12.097Z</time>
      </trkpt>
      <trkpt lat="42.82885" lon="0.17227">
        <ele>1936.8508300781</ele>
        <time>2020-08-23T18:11:15.298Z</time>
      </trkpt>
      <trkpt lat="42.8292" lon="0.17206">
        <ele>1942.1571044922</ele>
        <time>2020-08-23T18:11:18.505Z</time>
      </trkpt>
      <trkpt lat="42.82986" lon="0.17146">
        <ele>1951.0322265625</ele>
        <time>2020-08-23T18:11:21.725Z</time>
      </trkpt>
      <trkpt lat="42.83014" lon="0.17108">
        <ele>1956.4033203125</ele>
        <time>2020-08-23T18:11:24.951Z</time>
      </trkpt>
      <trkpt lat="42.83033" lon="0.17064">
        <ele>1961.3275146484</ele>
        <time>2020-08-23T18:11:28.183Z</time>
      </trkpt>
      <trkpt lat="42.83055" lon="0.16962">
        <ele>1972.0804443359</ele>
        <time>2020-08-23T18:11:31.428Z</time>
      </trkpt>
      <trkpt lat="42.83067" lon="0.16817">
        <ele>1962.5684814453</ele>
        <time>2020-08-23T18:11:34.690Z</time>
      </trkpt>
      <trkpt lat="42.83058" lon="0.16569">
        <ele>1972.3404541016</ele>
        <time>2020-08-23T18:11:37.981Z</time>
      </trkpt>
      <trkpt lat="42.83133" lon="0.16269">
        <ele>2018.2907714844</ele>
        <time>2020-08-23T18:11:41.309Z</time>
      </trkpt>
      <trkpt lat="42.83213" lon="0.16046">
        <ele>2038.0338134766</ele>
        <time>2020-08-23T18:11:44.667Z</time>
      </trkpt>
      <trkpt lat="42.83221" lon="0.15993">
        <ele>2040.6954345703</ele>
        <time>2020-08-23T18:11:48.031Z</time>
      </trkpt>
      <trkpt lat="42.8321" lon="0.15914">
        <ele>2041.8310546875</ele>
        <time>2020-08-23T18:11:51.404Z</time>
      </trkpt>
      <trkpt lat="42.83219" lon="0.15907">
        <ele>2043.9549560547</ele>
        <time>2020-08-23T18:11:54.779Z</time>
      </trkpt>
      <trkpt lat="42.83226" lon="0.15911">
        <ele>2045.4224853516</ele>
        <time>2020-08-23T18:11:58.155Z</time>
      </trkpt>
      <trkpt lat="42.83235" lon="0.15947">
        <ele>2045.3494873047</ele>
        <time>2020-08-23T18:12:01.536Z</time>
      </trkpt>
      <trkpt lat="42.83266" lon="0.16005">
        <ele>2056.9487304688</ele>
        <time>2020-08-23T18:12:04.925Z</time>
      </trkpt>
      <trkpt lat="42.8326" lon="0.16073">
        <ele>2060.5981445312</ele>
        <time>2020-08-23T18:12:08.322Z</time>
      </trkpt>
      <trkpt lat="42.83247" lon="0.16113">
        <ele>2062.3627929688</ele>
        <time>2020-08-23T18:12:11.724Z</time>
      </trkpt>
      <trkpt lat="42.83253" lon="0.16127">
        <ele>2066.5070800781</ele>
        <time>2020-08-23T18:12:15.128Z</time>
      </trkpt>
      <trkpt lat="42.83264" lon="0.16128">
        <ele>2072.1059570312</ele>
        <time>2020-08-23T18:12:18.534Z</time>
      </trkpt>
      <trkpt lat="42.83269" lon="0.1612">
        <ele>2073.5219726562</ele>
        <time>2020-08-23T18:12:21.941Z</time>
      </trkpt>
      <trkpt lat="42.83275" lon="0.1606">
        <ele>2066.080078125</ele>
        <time>2020-08-23T18:12:25.355Z</time>
      </trkpt>
      <trkpt lat="42.83306" lon="0.15986">
        <ele>2074.6625976562</ele>
        <time>2020-08-23T18:12:28.779Z</time>
      </trkpt>
      <trkpt lat="42.83311" lon="0.15948">
        <ele>2072.9731445312</ele>
        <time>2020-08-23T18:12:32.208Z</time>
      </trkpt>
      <trkpt lat="42.83308" lon="0.15889">
        <ele>2070.4045410156</ele>
        <time>2020-08-23T18:12:35.644Z</time>
      </trkpt>
      <trkpt lat="42.83353" lon="0.15819">
        <ele>2083.2475585938</ele>
        <time>2020-08-23T18:12:39.091Z</time>
      </trkpt>
      <trkpt lat="42.83377" lon="0.15753">
        <ele>2090.3740234375</ele>
        <time>2020-08-23T18:12:42.546Z</time>
      </trkpt>
      <trkpt lat="42.83394" lon="0.15745">
        <ele>2094.6071777344</ele>
        <time>2020-08-23T18:12:46.004Z</time>
      </trkpt>
      <trkpt lat="42.83404" lon="0.15768">
        <ele>2098.1728515625</ele>
        <time>2020-08-23T18:12:49.466Z</time>
      </trkpt>
      <trkpt lat="42.83376" lon="0.15831">
        <ele>2094.3278808594</ele>
        <time>2020-08-23T18:12:52.936Z</time>
      </trkpt>
      <trkpt lat="42.83372" lon="0.15855">
        <ele>2093.5710449219</ele>
        <time>2020-08-23T18:12:56.409Z</time>
      </trkpt>
      <trkpt lat="42.83373" lon="0.15901">
        <ele>2098.5219726562</ele>
        <time>2020-08-23T18:12:59.888Z</time>
      </trkpt>
      <trkpt lat="42.83363" lon="0.15941">
        <ele>2096.2248535156</ele>
        <time>2020-08-23T18:13:03.371Z</time>
      </trkpt>
      <trkpt lat="42.8337" lon="0.15955">
        <ele>2100.3698730469</ele>
        <time>2020-08-23T18:13:06.856Z</time>
      </trkpt>
      <trkpt lat="42.83377" lon="0.15955">
        <ele>2104.4245605469</ele>
        <time>2020-08-23T18:13:10.343Z</time>
      </trkpt>
      <trkpt lat="42.83436" lon="0.15852">
        <ele>2120.5546875</ele>
        <time>2020-08-23T18:13:13.845Z</time>
      </trkpt>
      <trkpt lat="42.8348" lon="0.15735">
        <ele>2128.3930664062</ele>
        <time>2020-08-23T18:13:17.362Z</time>
      </trkpt>
      <trkpt lat="42.8348" lon="0.15735">
        <ele>2128.3896484375</ele>
        <time>2020-08-23T18:13:20.879Z</time>
      </trkpt>
      <trkpt lat="42.83502" lon="0.15681">
        <ele>2132.3232421875</ele>
        <time>2020-08-23T18:13:24.404Z</time>
      </trkpt>
      <trkpt lat="42.83511" lon="0.1562">
        <ele>2134.3977050781</ele>
        <time>2020-08-23T18:13:27.936Z</time>
      </trkpt>
      <trkpt lat="42.83497" lon="0.1554">
        <ele>2131.1071777344</ele>
        <time>2020-08-23T18:13:31.478Z</time>
      </trkpt>
      <trkpt lat="42.83507" lon="0.15533">
        <ele>2135.7868652344</ele>
        <time>2020-08-23T18:13:35.021Z</time>
      </trkpt>
      <trkpt lat="42.83515" lon="0.15538">
        <ele>2140.4338378906</ele>
        <time>2020-08-23T18:13:38.566Z</time>
      </trkpt>
      <trkpt lat="42.83532" lon="0.15617">
        <ele>2145.5239257812</ele>
        <time>2020-08-23T18:13:42.120Z</time>
      </trkpt>
      <trkpt lat="42.83532" lon="0.15617">
        <ele>2145.51953125</ele>
        <time>2020-08-23T18:13:45.674Z</time>
      </trkpt>
      <trkpt lat="42.83539" lon="0.15664">
        <ele>2150.53515625</ele>
        <time>2020-08-23T18:13:49.234Z</time>
      </trkpt>
      <trkpt lat="42.83531" lon="0.15784">
        <ele>2158.7583007812</ele>
        <time>2020-08-23T18:13:52.808Z</time>
      </trkpt>
      <trkpt lat="42.83474" lon="0.16056">
        <ele>2162.7258300781</ele>
        <time>2020-08-23T18:13:56.416Z</time>
      </trkpt>
      <trkpt lat="42.83479" lon="0.16072">
        <ele>2165.8793945312</ele>
        <time>2020-08-23T18:14:00.026Z</time>
      </trkpt>
      <trkpt lat="42.8349" lon="0.16066">
        <ele>2169.9343261719</ele>
        <time>2020-08-23T18:14:03.638Z</time>
      </trkpt>
      <trkpt lat="42.83502" lon="0.16021">
        <ele>2171.4914550781</ele>
        <time>2020-08-23T18:14:07.255Z</time>
      </trkpt>
      <trkpt lat="42.83536" lon="0.15965">
        <ele>2177.6499023438</ele>
        <time>2020-08-23T18:14:10.881Z</time>
      </trkpt>
      <trkpt lat="42.83536" lon="0.15965">
        <ele>2177.6474609375</ele>
        <time>2020-08-23T18:14:14.507Z</time>
      </trkpt>
      <trkpt lat="42.83589" lon="0.158">
        <ele>2187.1501464844</ele>
        <time>2020-08-23T18:14:18.154Z</time>
      </trkpt>
      <trkpt lat="42.83654" lon="0.15702">
        <ele>2195.0771484375</ele>
        <time>2020-08-23T18:14:21.817Z</time>
      </trkpt>
      <trkpt lat="42.83782" lon="0.15663">
        <ele>2202.0388183594</ele>
        <time>2020-08-23T18:14:25.500Z</time>
      </trkpt>
      <trkpt lat="42.83832" lon="0.15615">
        <ele>2202.0603027344</ele>
        <time>2020-08-23T18:14:29.193Z</time>
      </trkpt>
      <trkpt lat="42.83854" lon="0.15564">
        <ele>2203.9091796875</ele>
        <time>2020-08-23T18:14:32.893Z</time>
      </trkpt>
      <trkpt lat="42.83877" lon="0.15429">
        <ele>2205.419921875</ele>
        <time>2020-08-23T18:14:36.610Z</time>
      </trkpt>
      <trkpt lat="42.83871" lon="0.15366">
        <ele>2210.3562011719</ele>
        <time>2020-08-23T18:14:40.334Z</time>
      </trkpt>
      <trkpt lat="42.83873" lon="0.15279">
        <ele>2208.4089355469</ele>
        <time>2020-08-23T18:14:44.068Z</time>
      </trkpt>
      <trkpt lat="42.83915" lon="0.15054">
        <ele>2200.2619628906</ele>
        <time>2020-08-23T18:14:47.830Z</time>
      </trkpt>
      <trkpt lat="42.83856" lon="0.1492">
        <ele>2213.876953125</ele>
        <time>2020-08-23T18:14:51.610Z</time>
      </trkpt>
      <trkpt lat="42.83848" lon="0.14891">
        <ele>2214.9067382812</ele>
        <time>2020-08-23T18:14:55.394Z</time>
      </trkpt>
      <trkpt lat="42.83848" lon="0.1484">
        <ele>2211.9721679688</ele>
        <time>2020-08-23T18:14:59.184Z</time>
      </trkpt>
      <trkpt lat="42.83862" lon="0.14703">
        <ele>2198.5812988281</ele>
        <time>2020-08-23T18:15:02.990Z</time>
      </trkpt>
      <trkpt lat="42.83897" lon="0.14615">
        <ele>2181.5891113281</ele>
        <time>2020-08-23T18:15:06.808Z</time>
      </trkpt>
      <trkpt lat="42.83933" lon="0.1458">
        <ele>2182.9770507812</ele>
        <time>2020-08-23T18:15:10.633Z</time>
      </trkpt>
      <trkpt lat="42.83949" lon="0.14555">
        <ele>2183.2407226562</ele>
        <time>2020-08-23T18:15:14.462Z</time>
      </trkpt>
      <trkpt lat="42.83998" lon="0.14449">
        <ele>2172.0678710938</ele>
        <time>2020-08-23T18:15:18.306Z</time>
      </trkpt>
      <trkpt lat="42.83998" lon="0.14449">
        <ele>2172.0673828125</ele>
        <time>2020-08-23T18:15:22.150Z</time>
      </trkpt>
      <trkpt lat="42.84036" lon="0.14369">
        <ele>2165.7866210938</ele>
        <time>2020-08-23T18:15:26.005Z</time>
      </trkpt>
      <trkpt lat="42.84036" lon="0.14369">
        <ele>2165.787109375</ele>
        <time>2020-08-23T18:15:29.860Z</time>
      </trkpt>
      <trkpt lat="42.83998" lon="0.14449">
        <ele>2172.0673828125</ele>
        <time>2020-08-23T18:15:33.726Z</time>
      </trkpt>
      <trkpt lat="42.83998" lon="0.14449">
        <ele>2172.0678710938</ele>
        <time>2020-08-23T18:15:37.592Z</time>
      </trkpt>
      <trkpt lat="42.83949" lon="0.14555">
        <ele>2183.2407226562</ele>
        <time>2020-08-23T18:15:41.472Z</time>
      </trkpt>
      <trkpt lat="42.83933" lon="0.1458">
        <ele>2182.9770507812</ele>
        <time>2020-08-23T18:15:45.356Z</time>
      </trkpt>
      <trkpt lat="42.83897" lon="0.14615">
        <ele>2181.5891113281</ele>
        <time>2020-08-23T18:15:49.248Z</time>
      </trkpt>
      <trkpt lat="42.83862" lon="0.14703">
        <ele>2198.5812988281</ele>
        <time>2020-08-23T18:15:53.151Z</time>
      </trkpt>
      <trkpt lat="42.83848" lon="0.1484">
        <ele>2211.9721679688</ele>
        <time>2020-08-23T18:15:57.071Z</time>
      </trkpt>
      <trkpt lat="42.83848" lon="0.14891">
        <ele>2214.9067382812</ele>
        <time>2020-08-23T18:16:00.997Z</time>
      </trkpt>
      <trkpt lat="42.83856" lon="0.1492">
        <ele>2213.876953125</ele>
        <time>2020-08-23T18:16:04.926Z</time>
      </trkpt>
      <trkpt lat="42.83915" lon="0.15054">
        <ele>2200.2619628906</ele>
        <time>2020-08-23T18:16:08.874Z</time>
      </trkpt>
      <trkpt lat="42.83873" lon="0.15279">
        <ele>2208.4089355469</ele>
        <time>2020-08-23T18:16:12.849Z</time>
      </trkpt>
      <trkpt lat="42.83871" lon="0.15366">
        <ele>2210.3562011719</ele>
        <time>2020-08-23T18:16:16.834Z</time>
      </trkpt>
      <trkpt lat="42.83877" lon="0.15429">
        <ele>2205.419921875</ele>
        <time>2020-08-23T18:16:20.827Z</time>
      </trkpt>
      <trkpt lat="42.83854" lon="0.15564">
        <ele>2203.9091796875</ele>
        <time>2020-08-23T18:16:24.836Z</time>
      </trkpt>
      <trkpt lat="42.83832" lon="0.15615">
        <ele>2202.0603027344</ele>
        <time>2020-08-23T18:16:28.852Z</time>
      </trkpt>
      <trkpt lat="42.83782" lon="0.15663">
        <ele>2202.0388183594</ele>
        <time>2020-08-23T18:16:32.878Z</time>
      </trkpt>
      <trkpt lat="42.83654" lon="0.15702">
        <ele>2195.0771484375</ele>
        <time>2020-08-23T18:16:36.925Z</time>
      </trkpt>
      <trkpt lat="42.83589" lon="0.158">
        <ele>2187.1501464844</ele>
        <time>2020-08-23T18:16:40.987Z</time>
      </trkpt>
      <trkpt lat="42.83536" lon="0.15965">
        <ele>2177.6474609375</ele>
        <time>2020-08-23T18:16:45.070Z</time>
      </trkpt>
      <trkpt lat="42.83536" lon="0.15965">
        <ele>2177.6499023438</ele>
        <time>2020-08-23T18:16:49.153Z</time>
      </trkpt>
      <trkpt lat="42.83502" lon="0.16021">
        <ele>2171.4914550781</ele>
        <time>2020-08-23T18:16:53.245Z</time>
      </trkpt>
      <trkpt lat="42.8349" lon="0.16066">
        <ele>2169.9343261719</ele>
        <time>2020-08-23T18:16:57.343Z</time>
      </trkpt>
      <trkpt lat="42.83479" lon="0.16072">
        <ele>2165.8793945312</ele>
        <time>2020-08-23T18:17:01.443Z</time>
      </trkpt>
      <trkpt lat="42.83474" lon="0.16056">
        <ele>2162.7258300781</ele>
        <time>2020-08-23T18:17:05.545Z</time>
      </trkpt>
      <trkpt lat="42.83531" lon="0.15784">
        <ele>2158.7583007812</ele>
        <time>2020-08-23T18:17:09.680Z</time>
      </trkpt>
      <trkpt lat="42.83539" lon="0.15664">
        <ele>2150.53515625</ele>
        <time>2020-08-23T18:17:13.829Z</time>
      </trkpt>
      <trkpt lat="42.83532" lon="0.15617">
        <ele>2145.51953125</ele>
        <time>2020-08-23T18:17:17.984Z</time>
      </trkpt>
      <trkpt lat="42.83532" lon="0.15617">
        <ele>2145.5239257812</ele>
        <time>2020-08-23T18:17:22.139Z</time>
      </trkpt>
      <trkpt lat="42.83515" lon="0.15538">
        <ele>2140.4338378906</ele>
        <time>2020-08-23T18:17:26.303Z</time>
      </trkpt>
      <trkpt lat="42.83507" lon="0.15533">
        <ele>2135.7868652344</ele>
        <time>2020-08-23T18:17:30.469Z</time>
      </trkpt>
      <trkpt lat="42.83497" lon="0.1554">
        <ele>2131.1071777344</ele>
        <time>2020-08-23T18:17:34.636Z</time>
      </trkpt>
      <trkpt lat="42.83511" lon="0.1562">
        <ele>2134.3977050781</ele>
        <time>2020-08-23T18:17:38.813Z</time>
      </trkpt>
      <trkpt lat="42.83502" lon="0.15681">
        <ele>2132.3232421875</ele>
        <time>2020-08-23T18:17:42.998Z</time>
      </trkpt>
      <trkpt lat="42.8348" lon="0.15735">
        <ele>2128.3896484375</ele>
        <time>2020-08-23T18:17:47.190Z</time>
      </trkpt>
      <trkpt lat="42.8348" lon="0.15735">
        <ele>2128.3930664062</ele>
        <time>2020-08-23T18:17:51.382Z</time>
      </trkpt>
      <trkpt lat="42.83436" lon="0.15852">
        <ele>2120.5546875</ele>
        <time>2020-08-23T18:17:55.589Z</time>
      </trkpt>
      <trkpt lat="42.83377" lon="0.15955">
        <ele>2104.4245605469</ele>
        <time>2020-08-23T18:17:59.812Z</time>
      </trkpt>
      <trkpt lat="42.8337" lon="0.15955">
        <ele>2100.3698730469</ele>
        <time>2020-08-23T18:18:04.036Z</time>
      </trkpt>
      <trkpt lat="42.83363" lon="0.15941">
        <ele>2096.2248535156</ele>
        <time>2020-08-23T18:18:08.262Z</time>
      </trkpt>
      <trkpt lat="42.83373" lon="0.15901">
        <ele>2098.5219726562</ele>
        <time>2020-08-23T18:18:12.493Z</time>
      </trkpt>
      <trkpt lat="42.83372" lon="0.15855">
        <ele>2093.5710449219</ele>
        <time>2020-08-23T18:18:16.729Z</time>
      </trkpt>
      <trkpt lat="42.83376" lon="0.15831">
        <ele>2094.3278808594</ele>
        <time>2020-08-23T18:18:20.968Z</time>
      </trkpt>
      <trkpt lat="42.83404" lon="0.15768">
        <ele>2098.1728515625</ele>
        <time>2020-08-23T18:18:25.216Z</time>
      </trkpt>
      <trkpt lat="42.83394" lon="0.15745">
        <ele>2094.6071777344</ele>
        <time>2020-08-23T18:18:29.467Z</time>
      </trkpt>
      <trkpt lat="42.83377" lon="0.15753">
        <ele>2090.3740234375</ele>
        <time>2020-08-23T18:18:33.721Z</time>
      </trkpt>
      <trkpt lat="42.83353" lon="0.15819">
        <ele>2083.2475585938</ele>
        <time>2020-08-23T18:18:37.983Z</time>
      </trkpt>
      <trkpt lat="42.83308" lon="0.15889">
        <ele>2070.4045410156</ele>
        <time>2020-08-23T18:18:42.256Z</time>
      </trkpt>
      <trkpt lat="42.83311" lon="0.15948">
        <ele>2072.9731445312</ele>
        <time>2020-08-23T18:18:46.536Z</time>
      </trkpt>
      <trkpt lat="42.83306" lon="0.15986">
        <ele>2074.6625976562</ele>
        <time>2020-08-23T18:18:50.821Z</time>
      </trkpt>
      <trkpt lat="42.83275" lon="0.1606">
        <ele>2066.080078125</ele>
        <time>2020-08-23T18:18:55.116Z</time>
      </trkpt>
      <trkpt lat="42.83269" lon="0.1612">
        <ele>2073.5219726562</ele>
        <time>2020-08-23T18:18:59.418Z</time>
      </trkpt>
      <trkpt lat="42.83264" lon="0.16128">
        <ele>2072.1059570312</ele>
        <time>2020-08-23T18:19:03.721Z</time>
      </trkpt>
      <trkpt lat="42.83253" lon="0.16127">
        <ele>2066.5070800781</ele>
        <time>2020-08-23T18:19:08.026Z</time>
      </trkpt>
      <trkpt lat="42.83247" lon="0.16113">
        <ele>2062.3627929688</ele>
        <time>2020-08-23T18:19:12.333Z</time>
      </trkpt>
      <trkpt lat="42.8326" lon="0.16073">
        <ele>2060.5981445312</ele>
        <time>2020-08-23T18:19:16.645Z</time>
      </trkpt>
      <trkpt lat="42.83266" lon="0.16005">
        <ele>2056.9487304688</ele>
        <time>2020-08-23T18:19:20.965Z</time>
      </trkpt>
      <trkpt lat="42.83235" lon="0.15947">
        <ele>2045.3494873047</ele>
        <time>2020-08-23T18:19:25.293Z</time>
      </trkpt>
      <trkpt lat="42.83226" lon="0.15911">
        <ele>2045.4224853516</ele>
        <time>2020-08-23T18:19:29.626Z</time>
      </trkpt>
      <trkpt lat="42.83219" lon="0.15907">
        <ele>2043.9549560547</ele>
        <time>2020-08-23T18:19:33.960Z</time>
      </trkpt>
      <trkpt lat="42.8321" lon="0.15914">
        <ele>2041.8310546875</ele>
        <time>2020-08-23T18:19:38.296Z</time>
      </trkpt>
      <trkpt lat="42.83221" lon="0.15993">
        <ele>2040.6954345703</ele>
        <time>2020-08-23T18:19:42.641Z</time>
      </trkpt>
      <trkpt lat="42.83213" lon="0.16046">
        <ele>2038.0338134766</ele>
        <time>2020-08-23T18:19:46.993Z</time>
      </trkpt>
      <trkpt lat="42.83133" lon="0.16269">
        <ele>2018.2907714844</ele>
        <time>2020-08-23T18:19:51.374Z</time>
      </trkpt>
      <trkpt lat="42.83058" lon="0.16569">
        <ele>1972.3404541016</ele>
        <time>2020-08-23T18:19:55.792Z</time>
      </trkpt>
      <trkpt lat="42.83067" lon="0.16817">
        <ele>1962.5684814453</ele>
        <time>2020-08-23T18:20:00.240Z</time>
      </trkpt>
      <trkpt lat="42.83055" lon="0.16962">
        <ele>1972.0804443359</ele>
        <time>2020-08-23T18:20:04.705Z</time>
      </trkpt>
      <trkpt lat="42.83033" lon="0.17064">
        <ele>1961.3275146484</ele>
        <time>2020-08-23T18:20:09.182Z</time>
      </trkpt>
      <trkpt lat="42.83014" lon="0.17108">
        <ele>1956.4033203125</ele>
        <time>2020-08-23T18:20:13.665Z</time>
      </trkpt>
      <trkpt lat="42.82986" lon="0.17146">
        <ele>1951.0322265625</ele>
        <time>2020-08-23T18:20:18.155Z</time>
      </trkpt>
      <trkpt lat="42.8292" lon="0.17206">
        <ele>1942.1571044922</ele>
        <time>2020-08-23T18:20:22.657Z</time>
      </trkpt>
      <trkpt lat="42.82885" lon="0.17227">
        <ele>1936.8508300781</ele>
        <time>2020-08-23T18:20:27.165Z</time>
      </trkpt>
      <trkpt lat="42.82845" lon="0.17238">
        <ele>1929.8604736328</ele>
        <time>2020-08-23T18:20:31.680Z</time>
      </trkpt>
      <trkpt lat="42.82804" lon="0.17239">
        <ele>1939.7850341797</ele>
        <time>2020-08-23T18:20:36.201Z</time>
      </trkpt>
      <trkpt lat="42.82804" lon="0.17239">
        <ele>1939.7824707031</ele>
        <time>2020-08-23T18:20:40.722Z</time>
      </trkpt>
      <trkpt lat="42.82711" lon="0.17106">
        <ele>1919.5367431641</ele>
        <time>2020-08-23T18:20:45.265Z</time>
      </trkpt>
      <trkpt lat="42.82706" lon="0.17093">
        <ele>1917.7602539062</ele>
        <time>2020-08-23T18:20:49.810Z</time>
      </trkpt>
      <trkpt lat="42.82712" lon="0.17081">
        <ele>1914.8302001953</ele>
        <time>2020-08-23T18:20:54.356Z</time>
      </trkpt>
      <trkpt lat="42.82726" lon="0.17088">
        <ele>1913.7359619141</ele>
        <time>2020-08-23T18:20:58.905Z</time>
      </trkpt>
      <trkpt lat="42.82771" lon="0.17144">
        <ele>1919.8464355469</ele>
        <time>2020-08-23T18:21:03.464Z</time>
      </trkpt>
      <trkpt lat="42.82791" lon="0.17148">
        <ele>1916.3084716797</ele>
        <time>2020-08-23T18:21:08.026Z</time>
      </trkpt>
      <trkpt lat="42.82828" lon="0.17122">
        <ele>1902.4927978516</ele>
        <time>2020-08-23T18:21:12.594Z</time>
      </trkpt>
      <trkpt lat="42.82864" lon="0.17079">
        <ele>1897.3693847656</ele>
        <time>2020-08-23T18:21:17.170Z</time>
      </trkpt>
      <trkpt lat="42.82864" lon="0.17079">
        <ele>1897.3714599609</ele>
        <time>2020-08-23T18:21:21.746Z</time>
      </trkpt>
      <trkpt lat="42.82923" lon="0.17006">
        <ele>1894.8214111328</ele>
        <time>2020-08-23T18:21:26.335Z</time>
      </trkpt>
      <trkpt lat="42.8292" lon="0.16992">
        <ele>1890.8243408203</ele>
        <time>2020-08-23T18:21:30.926Z</time>
      </trkpt>
      <trkpt lat="42.82906" lon="0.16993">
        <ele>1889.0609130859</ele>
        <time>2020-08-23T18:21:35.519Z</time>
      </trkpt>
      <trkpt lat="42.82885" lon="0.1702">
        <ele>1890.8334960938</ele>
        <time>2020-08-23T18:21:40.117Z</time>
      </trkpt>
      <trkpt lat="42.82843" lon="0.17045">
        <ele>1884.0910644531</ele>
        <time>2020-08-23T18:21:44.722Z</time>
      </trkpt>
      <trkpt lat="42.82843" lon="0.17045">
        <ele>1884.0931396484</ele>
        <time>2020-08-23T18:21:49.327Z</time>
      </trkpt>
      <trkpt lat="42.8281" lon="0.17051">
        <ele>1888.0456542969</ele>
        <time>2020-08-23T18:21:53.937Z</time>
      </trkpt>
      <trkpt lat="42.82796" lon="0.17043">
        <ele>1887.8259277344</ele>
        <time>2020-08-23T18:21:58.550Z</time>
      </trkpt>
      <trkpt lat="42.82773" lon="0.17009">
        <ele>1884.1444091797</ele>
        <time>2020-08-23T18:22:03.168Z</time>
      </trkpt>
      <trkpt lat="42.82771" lon="0.16979">
        <ele>1878.6350097656</ele>
        <time>2020-08-23T18:22:07.790Z</time>
      </trkpt>
      <trkpt lat="42.82757" lon="0.16967">
        <ele>1877.8359375</ele>
        <time>2020-08-23T18:22:12.414Z</time>
      </trkpt>
      <trkpt lat="42.82755" lon="0.16964">
        <ele>1877.7471923828</ele>
        <time>2020-08-23T18:22:17.039Z</time>
      </trkpt>
      <trkpt lat="42.82746" lon="0.16961">
        <ele>1879.3948974609</ele>
        <time>2020-08-23T18:22:21.665Z</time>
      </trkpt>
      <trkpt lat="42.8273" lon="0.16952">
        <ele>1880.9842529297</ele>
        <time>2020-08-23T18:22:26.294Z</time>
      </trkpt>
      <trkpt lat="42.82721" lon="0.1694">
        <ele>1880.2762451172</ele>
        <time>2020-08-23T18:22:30.925Z</time>
      </trkpt>
      <trkpt lat="42.82652" lon="0.16856">
        <ele>1868.4125976562</ele>
        <time>2020-08-23T18:22:35.571Z</time>
      </trkpt>
      <trkpt lat="42.82636" lon="0.16842">
        <ele>1863.4874267578</ele>
        <time>2020-08-23T18:22:40.220Z</time>
      </trkpt>
      <trkpt lat="42.82613" lon="0.16849">
        <ele>1860.5139160156</ele>
        <time>2020-08-23T18:22:44.872Z</time>
      </trkpt>
      <trkpt lat="42.82582" lon="0.16904">
        <ele>1861.0183105469</ele>
        <time>2020-08-23T18:22:49.533Z</time>
      </trkpt>
      <trkpt lat="42.82502" lon="0.16885">
        <ele>1849.6094970703</ele>
        <time>2020-08-23T18:22:54.207Z</time>
      </trkpt>
      <trkpt lat="42.82487" lon="0.16869">
        <ele>1861.2489013672</ele>
        <time>2020-08-23T18:22:58.884Z</time>
      </trkpt>
      <trkpt lat="42.82506" lon="0.16791">
        <ele>1866.0787353516</ele>
        <time>2020-08-23T18:23:03.571Z</time>
      </trkpt>
      <trkpt lat="42.82507" lon="0.16748">
        <ele>1868.4086914062</ele>
        <time>2020-08-23T18:23:08.263Z</time>
      </trkpt>
      <trkpt lat="42.82492" lon="0.16651">
        <ele>1877.5275878906</ele>
        <time>2020-08-23T18:23:12.966Z</time>
      </trkpt>
      <trkpt lat="42.82475" lon="0.16487">
        <ele>1879.3037109375</ele>
        <time>2020-08-23T18:23:17.689Z</time>
      </trkpt>
      <trkpt lat="42.82476" lon="0.16444">
        <ele>1874.8192138672</ele>
        <time>2020-08-23T18:23:22.417Z</time>
      </trkpt>
      <trkpt lat="42.82465" lon="0.16437">
        <ele>1879.7061767578</ele>
        <time>2020-08-23T18:23:27.147Z</time>
      </trkpt>
      <trkpt lat="42.82458" lon="0.16447">
        <ele>1885.052734375</ele>
        <time>2020-08-23T18:23:31.879Z</time>
      </trkpt>
      <trkpt lat="42.82456" lon="0.16463">
        <ele>1888.03125</ele>
        <time>2020-08-23T18:23:36.612Z</time>
      </trkpt>
      <trkpt lat="42.8246" lon="0.16725">
        <ele>1899.6143798828</ele>
        <time>2020-08-23T18:23:41.376Z</time>
      </trkpt>
      <trkpt lat="42.8245" lon="0.1684">
        <ele>1889.5297851562</ele>
        <time>2020-08-23T18:23:46.154Z</time>
      </trkpt>
      <trkpt lat="42.82434" lon="0.16898">
        <ele>1877.3695068359</ele>
        <time>2020-08-23T18:23:50.939Z</time>
      </trkpt>
      <trkpt lat="42.82416" lon="0.16918">
        <ele>1874.4378662109</ele>
        <time>2020-08-23T18:23:55.728Z</time>
      </trkpt>
      <trkpt lat="42.82432" lon="0.16866">
        <ele>1888.8076171875</ele>
        <time>2020-08-23T18:24:00.524Z</time>
      </trkpt>
      <trkpt lat="42.82439" lon="0.16843">
        <ele>1893.9964599609</ele>
        <time>2020-08-23T18:24:05.323Z</time>
      </trkpt>
      <trkpt lat="42.82439" lon="0.1676">
        <ele>1911.45703125</ele>
        <time>2020-08-23T18:24:10.131Z</time>
      </trkpt>
      <trkpt lat="42.82378" lon="0.16531">
        <ele>1943.6883544922</ele>
        <time>2020-08-23T18:24:14.968Z</time>
      </trkpt>
      <trkpt lat="42.82375" lon="0.16475">
        <ele>1941.8322753906</ele>
        <time>2020-08-23T18:24:19.812Z</time>
      </trkpt>
      <trkpt lat="42.82363" lon="0.16442">
        <ele>1946.4188232422</ele>
        <time>2020-08-23T18:24:24.660Z</time>
      </trkpt>
      <trkpt lat="42.82341" lon="0.16411">
        <ele>1958.8021240234</ele>
        <time>2020-08-23T18:24:29.513Z</time>
      </trkpt>
      <trkpt lat="42.82309" lon="0.16315">
        <ele>1962.4079589844</ele>
        <time>2020-08-23T18:24:34.378Z</time>
      </trkpt>
      <trkpt lat="42.82199" lon="0.16179">
        <ele>1978.1668701172</ele>
        <time>2020-08-23T18:24:39.267Z</time>
      </trkpt>
      <trkpt lat="42.82179" lon="0.16163">
        <ele>1982.8394775391</ele>
        <time>2020-08-23T18:24:44.160Z</time>
      </trkpt>
      <trkpt lat="42.82135" lon="0.16145">
        <ele>1995.5386962891</ele>
        <time>2020-08-23T18:24:49.060Z</time>
      </trkpt>
      <trkpt lat="42.82127" lon="0.16132">
        <ele>1994.2093505859</ele>
        <time>2020-08-23T18:24:53.962Z</time>
      </trkpt>
      <trkpt lat="42.82127" lon="0.16132">
        <ele>1994.212890625</ele>
        <time>2020-08-23T18:24:58.864Z</time>
      </trkpt>
      <trkpt lat="42.82087" lon="0.16064">
        <ele>1991.8454589844</ele>
        <time>2020-08-23T18:25:03.776Z</time>
      </trkpt>
      <trkpt lat="42.8203" lon="0.16016">
        <ele>2005.9212646484</ele>
        <time>2020-08-23T18:25:08.699Z</time>
      </trkpt>
      <trkpt lat="42.81999" lon="0.15963">
        <ele>2003.666015625</ele>
        <time>2020-08-23T18:25:13.630Z</time>
      </trkpt>
      <trkpt lat="42.81996" lon="0.15922">
        <ele>1996.7426757812</ele>
        <time>2020-08-23T18:25:18.566Z</time>
      </trkpt>
      <trkpt lat="42.81961" lon="0.15885">
        <ele>2008.0318603516</ele>
        <time>2020-08-23T18:25:23.509Z</time>
      </trkpt>
      <trkpt lat="42.81954" lon="0.15868">
        <ele>2010.0076904297</ele>
        <time>2020-08-23T18:25:28.455Z</time>
      </trkpt>
      <trkpt lat="42.8195" lon="0.15845">
        <ele>2010.509765625</ele>
        <time>2020-08-23T18:25:33.403Z</time>
      </trkpt>
      <trkpt lat="42.81955" lon="0.15799">
        <ele>2003.5294189453</ele>
        <time>2020-08-23T18:25:38.357Z</time>
      </trkpt>
      <trkpt lat="42.81949" lon="0.15784">
        <ele>2005.3643798828</ele>
        <time>2020-08-23T18:25:43.313Z</time>
      </trkpt>
      <trkpt lat="42.81918" lon="0.1574">
        <ele>2020.6024169922</ele>
        <time>2020-08-23T18:25:48.276Z</time>
      </trkpt>
      <trkpt lat="42.81903" lon="0.15694">
        <ele>2022.0159912109</ele>
        <time>2020-08-23T18:25:53.245Z</time>
      </trkpt>
      <trkpt lat="42.81871" lon="0.15675">
        <ele>2032.8288574219</ele>
        <time>2020-08-23T18:25:58.219Z</time>
      </trkpt>
      <trkpt lat="42.81832" lon="0.15632">
        <ele>2041.9780273438</ele>
        <time>2020-08-23T18:26:03.201Z</time>
      </trkpt>
      <trkpt lat="42.81799" lon="0.15542">
        <ele>2037.8468017578</ele>
        <time>2020-08-23T18:26:08.195Z</time>
      </trkpt>
      <trkpt lat="42.81757" lon="0.15484">
        <ele>2050.3203125</ele>
        <time>2020-08-23T18:26:13.199Z</time>
      </trkpt>
      <trkpt lat="42.81742" lon="0.15419">
        <ele>2045.4093017578</ele>
        <time>2020-08-23T18:26:18.211Z</time>
      </trkpt>
      <trkpt lat="42.81728" lon="0.15404">
        <ele>2048.2541503906</ele>
        <time>2020-08-23T18:26:23.226Z</time>
      </trkpt>
      <trkpt lat="42.81727" lon="0.15364">
        <ele>2042.4576416016</ele>
        <time>2020-08-23T18:26:28.245Z</time>
      </trkpt>
      <trkpt lat="42.81727" lon="0.15364">
        <ele>2042.4608154297</ele>
        <time>2020-08-23T18:26:33.264Z</time>
      </trkpt>
      <trkpt lat="42.8172" lon="0.15351">
        <ele>2043.4005126953</ele>
        <time>2020-08-23T18:26:38.285Z</time>
      </trkpt>
      <trkpt lat="42.8167" lon="0.15325">
        <ele>2058.1279296875</ele>
        <time>2020-08-23T18:26:43.315Z</time>
      </trkpt>
      <trkpt lat="42.81654" lon="0.15288">
        <ele>2059.0769042969</ele>
        <time>2020-08-23T18:26:48.350Z</time>
      </trkpt>
      <trkpt lat="42.81648" lon="0.15237">
        <ele>2054.6594238281</ele>
        <time>2020-08-23T18:26:53.391Z</time>
      </trkpt>
      <trkpt lat="42.81618" lon="0.15203">
        <ele>2061.4631347656</ele>
        <time>2020-08-23T18:26:58.438Z</time>
      </trkpt>
      <trkpt lat="42.81604" lon="0.15171">
        <ele>2065.5952148438</ele>
        <time>2020-08-23T18:27:03.490Z</time>
      </trkpt>
      <trkpt lat="42.81603" lon="0.15132">
        <ele>2064.431640625</ele>
        <time>2020-08-23T18:27:08.546Z</time>
      </trkpt>
      <trkpt lat="42.81613" lon="0.15072">
        <ele>2068.6174316406</ele>
        <time>2020-08-23T18:27:13.610Z</time>
      </trkpt>
      <trkpt lat="42.8159" lon="0.14957">
        <ele>2081.5908203125</ele>
        <time>2020-08-23T18:27:18.688Z</time>
      </trkpt>
      <trkpt lat="42.81502" lon="0.14806">
        <ele>2099.5944824219</ele>
        <time>2020-08-23T18:27:23.788Z</time>
      </trkpt>
      <trkpt lat="42.81521" lon="0.14761">
        <ele>2084.9208984375</ele>
        <time>2020-08-23T18:27:28.894Z</time>
      </trkpt>
      <trkpt lat="42.81535" lon="0.14665">
        <ele>2079.9396972656</ele>
        <time>2020-08-23T18:27:34.012Z</time>
      </trkpt>
      <trkpt lat="42.81535" lon="0.14665">
        <ele>2079.9421386719</ele>
        <time>2020-08-23T18:27:39.130Z</time>
      </trkpt>
      <trkpt lat="42.81625" lon="0.14603">
        <ele>2066.6706542969</ele>
        <time>2020-08-23T18:27:44.264Z</time>
      </trkpt>
      <trkpt lat="42.81695" lon="0.14569">
        <ele>2056.1162109375</ele>
        <time>2020-08-23T18:27:49.410Z</time>
      </trkpt>
      <trkpt lat="42.81786" lon="0.14466">
        <ele>2058.6762695312</ele>
        <time>2020-08-23T18:27:54.575Z</time>
      </trkpt>
      <trkpt lat="42.81857" lon="0.1442">
        <ele>2066.2592773438</ele>
        <time>2020-08-23T18:27:59.752Z</time>
      </trkpt>
      <trkpt lat="42.81898" lon="0.1437">
        <ele>2079.455078125</ele>
        <time>2020-08-23T18:28:04.938Z</time>
      </trkpt>
      <trkpt lat="42.81924" lon="0.1435">
        <ele>2078.4077148438</ele>
        <time>2020-08-23T18:28:10.129Z</time>
      </trkpt>
      <trkpt lat="42.81977" lon="0.14319">
        <ele>2094.7626953125</ele>
        <time>2020-08-23T18:28:15.329Z</time>
      </trkpt>
      <trkpt lat="42.82024" lon="0.14349">
        <ele>2092.2517089844</ele>
        <time>2020-08-23T18:28:20.538Z</time>
      </trkpt>
      <trkpt lat="42.82035" lon="0.14341">
        <ele>2098.3044433594</ele>
        <time>2020-08-23T18:28:25.749Z</time>
      </trkpt>
      <trkpt lat="42.82033" lon="0.14322">
        <ele>2104.5837402344</ele>
        <time>2020-08-23T18:28:30.962Z</time>
      </trkpt>
      <trkpt lat="42.81975" lon="0.14267">
        <ele>2113.4411621094</ele>
        <time>2020-08-23T18:28:36.186Z</time>
      </trkpt>
      <trkpt lat="42.81937" lon="0.14254">
        <ele>2115.0766601562</ele>
        <time>2020-08-23T18:28:41.416Z</time>
      </trkpt>
      <trkpt lat="42.81905" lon="0.14252">
        <ele>2119.5888671875</ele>
        <time>2020-08-23T18:28:46.651Z</time>
      </trkpt>
      <trkpt lat="42.81876" lon="0.14268">
        <ele>2124.2026367188</ele>
        <time>2020-08-23T18:28:51.891Z</time>
      </trkpt>
      <trkpt lat="42.81854" lon="0.14292">
        <ele>2126.6096191406</ele>
        <time>2020-08-23T18:28:57.136Z</time>
      </trkpt>
      <trkpt lat="42.81844" lon="0.14343">
        <ele>2109.3835449219</ele>
        <time>2020-08-23T18:29:02.387Z</time>
      </trkpt>
      <trkpt lat="42.81836" lon="0.14344">
        <ele>2112.92578125</ele>
        <time>2020-08-23T18:29:07.640Z</time>
      </trkpt>
      <trkpt lat="42.81832" lon="0.14331">
        <ele>2120.9455566406</ele>
        <time>2020-08-23T18:29:12.894Z</time>
      </trkpt>
      <trkpt lat="42.81841" lon="0.14284">
        <ele>2133.7797851562</ele>
        <time>2020-08-23T18:29:18.154Z</time>
      </trkpt>
      <trkpt lat="42.81862" lon="0.1424">
        <ele>2137.4226074219</ele>
        <time>2020-08-23T18:29:23.420Z</time>
      </trkpt>
      <trkpt lat="42.81902" lon="0.14212">
        <ele>2135.3190917969</ele>
        <time>2020-08-23T18:29:28.693Z</time>
      </trkpt>
      <trkpt lat="42.8193" lon="0.14212">
        <ele>2129.4143066406</ele>
        <time>2020-08-23T18:29:33.971Z</time>
      </trkpt>
      <trkpt lat="42.81933" lon="0.14199">
        <ele>2134.8310546875</ele>
        <time>2020-08-23T18:29:39.251Z</time>
      </trkpt>
      <trkpt lat="42.81922" lon="0.14194">
        <ele>2136.7104492188</ele>
        <time>2020-08-23T18:29:44.532Z</time>
      </trkpt>
      <trkpt lat="42.81871" lon="0.14207">
        <ele>2146.2163085938</ele>
        <time>2020-08-23T18:29:49.822Z</time>
      </trkpt>
      <trkpt lat="42.8183" lon="0.14235">
        <ele>2153.2729492188</ele>
        <time>2020-08-23T18:29:55.119Z</time>
      </trkpt>
      <trkpt lat="42.81819" lon="0.14221">
        <ele>2163.4291992188</ele>
        <time>2020-08-23T18:30:00.418Z</time>
      </trkpt>
      <trkpt lat="42.81824" lon="0.1421">
        <ele>2163.8359375</ele>
        <time>2020-08-23T18:30:05.719Z</time>
      </trkpt>
      <trkpt lat="42.81896" lon="0.14167">
        <ele>2151.4543457031</ele>
        <time>2020-08-23T18:30:11.032Z</time>
      </trkpt>
      <trkpt lat="42.81931" lon="0.14159">
        <ele>2151.0502929688</ele>
        <time>2020-08-23T18:30:16.351Z</time>
      </trkpt>
      <trkpt lat="42.81948" lon="0.14141">
        <ele>2155.7971191406</ele>
        <time>2020-08-23T18:30:21.674Z</time>
      </trkpt>
      <trkpt lat="42.81947" lon="0.14132">
        <ele>2157.828125</ele>
        <time>2020-08-23T18:30:26.998Z</time>
      </trkpt>
      <trkpt lat="42.81947" lon="0.14132">
        <ele>2157.8264160156</ele>
        <time>2020-08-23T18:30:32.322Z</time>
      </trkpt>
      <trkpt lat="42.81948" lon="0.14141">
        <ele>2155.7971191406</ele>
        <time>2020-08-23T18:30:37.647Z</time>
      </trkpt>
      <trkpt lat="42.81931" lon="0.14159">
        <ele>2151.0502929688</ele>
        <time>2020-08-23T18:30:42.975Z</time>
      </trkpt>
      <trkpt lat="42.81896" lon="0.14167">
        <ele>2151.4543457031</ele>
        <time>2020-08-23T18:30:48.309Z</time>
      </trkpt>
      <trkpt lat="42.81824" lon="0.1421">
        <ele>2163.8359375</ele>
        <time>2020-08-23T18:30:53.655Z</time>
      </trkpt>
      <trkpt lat="42.81819" lon="0.14221">
        <ele>2163.4291992188</ele>
        <time>2020-08-23T18:30:59.003Z</time>
      </trkpt>
      <trkpt lat="42.8183" lon="0.14235">
        <ele>2153.2729492188</ele>
        <time>2020-08-23T18:31:04.353Z</time>
      </trkpt>
      <trkpt lat="42.81871" lon="0.14207">
        <ele>2146.2163085938</ele>
        <time>2020-08-23T18:31:09.711Z</time>
      </trkpt>
      <trkpt lat="42.81922" lon="0.14194">
        <ele>2136.7104492188</ele>
        <time>2020-08-23T18:31:15.077Z</time>
      </trkpt>
      <trkpt lat="42.81933" lon="0.14199">
        <ele>2134.8310546875</ele>
        <time>2020-08-23T18:31:20.445Z</time>
      </trkpt>
      <trkpt lat="42.8193" lon="0.14212">
        <ele>2129.4143066406</ele>
        <time>2020-08-23T18:31:25.814Z</time>
      </trkpt>
      <trkpt lat="42.81902" lon="0.14212">
        <ele>2135.3190917969</ele>
        <time>2020-08-23T18:31:31.188Z</time>
      </trkpt>
      <trkpt lat="42.81862" lon="0.1424">
        <ele>2137.4226074219</ele>
        <time>2020-08-23T18:31:36.569Z</time>
      </trkpt>
      <trkpt lat="42.81841" lon="0.14284">
        <ele>2133.7797851562</ele>
        <time>2020-08-23T18:31:41.956Z</time>
      </trkpt>
      <trkpt lat="42.81832" lon="0.14331">
        <ele>2120.9455566406</ele>
        <time>2020-08-23T18:31:47.349Z</time>
      </trkpt>
      <trkpt lat="42.81836" lon="0.14344">
        <ele>2112.92578125</ele>
        <time>2020-08-23T18:31:52.744Z</time>
      </trkpt>
      <trkpt lat="42.81844" lon="0.14343">
        <ele>2109.3835449219</ele>
        <time>2020-08-23T18:31:58.140Z</time>
      </trkpt>
      <trkpt lat="42.81854" lon="0.14292">
        <ele>2126.6096191406</ele>
        <time>2020-08-23T18:32:03.542Z</time>
      </trkpt>
      <trkpt lat="42.81876" lon="0.14268">
        <ele>2124.2026367188</ele>
        <time>2020-08-23T18:32:08.949Z</time>
      </trkpt>
      <trkpt lat="42.81905" lon="0.14252">
        <ele>2119.5888671875</ele>
        <time>2020-08-23T18:32:14.361Z</time>
      </trkpt>
      <trkpt lat="42.81937" lon="0.14254">
        <ele>2115.0766601562</ele>
        <time>2020-08-23T18:32:19.778Z</time>
      </trkpt>
      <trkpt lat="42.81975" lon="0.14267">
        <ele>2113.4411621094</ele>
        <time>2020-08-23T18:32:25.201Z</time>
      </trkpt>
      <trkpt lat="42.82033" lon="0.14322">
        <ele>2104.5837402344</ele>
        <time>2020-08-23T18:32:30.635Z</time>
      </trkpt>
      <trkpt lat="42.82035" lon="0.14341">
        <ele>2098.3044433594</ele>
        <time>2020-08-23T18:32:36.072Z</time>
      </trkpt>
      <trkpt lat="42.82024" lon="0.14349">
        <ele>2092.2517089844</ele>
        <time>2020-08-23T18:32:41.511Z</time>
      </trkpt>
      <trkpt lat="42.81977" lon="0.14319">
        <ele>2094.7626953125</ele>
        <time>2020-08-23T18:32:46.958Z</time>
      </trkpt>
      <trkpt lat="42.81924" lon="0.1435">
        <ele>2078.4077148438</ele>
        <time>2020-08-23T18:32:52.414Z</time>
      </trkpt>
      <trkpt lat="42.81898" lon="0.1437">
        <ele>2079.455078125</ele>
        <time>2020-08-23T18:32:57.875Z</time>
      </trkpt>
      <trkpt lat="42.81857" lon="0.1442">
        <ele>2066.2592773438</ele>
        <time>2020-08-23T18:33:03.345Z</time>
      </trkpt>
      <trkpt lat="42.81786" lon="0.14466">
        <ele>2058.6762695312</ele>
        <time>2020-08-23T18:33:08.827Z</time>
      </trkpt>
      <trkpt lat="42.81695" lon="0.14569">
        <ele>2056.1162109375</ele>
        <time>2020-08-23T18:33:14.328Z</time>
      </trkpt>
      <trkpt lat="42.81625" lon="0.14603">
        <ele>2066.6706542969</ele>
        <time>2020-08-23T18:33:19.841Z</time>
      </trkpt>
      <trkpt lat="42.81535" lon="0.14665">
        <ele>2079.9421386719</ele>
        <time>2020-08-23T18:33:25.370Z</time>
      </trkpt>
      <trkpt lat="42.81535" lon="0.14665">
        <ele>2079.9396972656</ele>
        <time>2020-08-23T18:33:30.899Z</time>
      </trkpt>
      <trkpt lat="42.81521" lon="0.14761">
        <ele>2084.9208984375</ele>
        <time>2020-08-23T18:33:36.440Z</time>
      </trkpt>
      <trkpt lat="42.81502" lon="0.14806">
        <ele>2099.5944824219</ele>
        <time>2020-08-23T18:33:41.987Z</time>
      </trkpt>
      <trkpt lat="42.8159" lon="0.14957">
        <ele>2081.5908203125</ele>
        <time>2020-08-23T18:33:47.557Z</time>
      </trkpt>
      <trkpt lat="42.81613" lon="0.15072">
        <ele>2068.6174316406</ele>
        <time>2020-08-23T18:33:53.141Z</time>
      </trkpt>
      <trkpt lat="42.81603" lon="0.15132">
        <ele>2064.431640625</ele>
        <time>2020-08-23T18:33:58.732Z</time>
      </trkpt>
      <trkpt lat="42.81604" lon="0.15171">
        <ele>2065.5952148438</ele>
        <time>2020-08-23T18:34:04.328Z</time>
      </trkpt>
      <trkpt lat="42.81618" lon="0.15203">
        <ele>2061.4631347656</ele>
        <time>2020-08-23T18:34:09.928Z</time>
      </trkpt>
      <trkpt lat="42.81648" lon="0.15237">
        <ele>2054.6594238281</ele>
        <time>2020-08-23T18:34:15.534Z</time>
      </trkpt>
      <trkpt lat="42.81654" lon="0.15288">
        <ele>2059.0769042969</ele>
        <time>2020-08-23T18:34:21.146Z</time>
      </trkpt>
      <trkpt lat="42.8167" lon="0.15325">
        <ele>2058.1279296875</ele>
        <time>2020-08-23T18:34:26.763Z</time>
      </trkpt>
      <trkpt lat="42.8172" lon="0.15351">
        <ele>2043.4005126953</ele>
        <time>2020-08-23T18:34:32.389Z</time>
      </trkpt>
      <trkpt lat="42.81727" lon="0.15364">
        <ele>2042.4608154297</ele>
        <time>2020-08-23T18:34:38.017Z</time>
      </trkpt>
      <trkpt lat="42.81727" lon="0.15364">
        <ele>2042.4576416016</ele>
        <time>2020-08-23T18:34:43.645Z</time>
      </trkpt>
      <trkpt lat="42.81728" lon="0.15404">
        <ele>2048.2541503906</ele>
        <time>2020-08-23T18:34:49.278Z</time>
      </trkpt>
      <trkpt lat="42.81742" lon="0.15419">
        <ele>2045.4093017578</ele>
        <time>2020-08-23T18:34:54.913Z</time>
      </trkpt>
      <trkpt lat="42.81757" lon="0.15484">
        <ele>2050.3203125</ele>
        <time>2020-08-23T18:35:00.556Z</time>
      </trkpt>
      <trkpt lat="42.81799" lon="0.15542">
        <ele>2037.8468017578</ele>
        <time>2020-08-23T18:35:06.209Z</time>
      </trkpt>
      <trkpt lat="42.81832" lon="0.15632">
        <ele>2041.9780273438</ele>
        <time>2020-08-23T18:35:11.874Z</time>
      </trkpt>
      <trkpt lat="42.81871" lon="0.15675">
        <ele>2032.8288574219</ele>
        <time>2020-08-23T18:35:17.547Z</time>
      </trkpt>
      <trkpt lat="42.81903" lon="0.15694">
        <ele>2022.0159912109</ele>
        <time>2020-08-23T18:35:23.225Z</time>
      </trkpt>
      <trkpt lat="42.81918" lon="0.1574">
        <ele>2020.6024169922</ele>
        <time>2020-08-23T18:35:28.909Z</time>
      </trkpt>
      <trkpt lat="42.81949" lon="0.15784">
        <ele>2005.3643798828</ele>
        <time>2020-08-23T18:35:34.601Z</time>
      </trkpt>
      <trkpt lat="42.81955" lon="0.15799">
        <ele>2003.5294189453</ele>
        <time>2020-08-23T18:35:40.295Z</time>
      </trkpt>
      <trkpt lat="42.8195" lon="0.15845">
        <ele>2010.509765625</ele>
        <time>2020-08-23T18:35:45.994Z</time>
      </trkpt>
      <trkpt lat="42.81954" lon="0.15868">
        <ele>2010.0076904297</ele>
        <time>2020-08-23T18:35:51.696Z</time>
      </trkpt>
      <trkpt lat="42.81961" lon="0.15885">
        <ele>2008.0318603516</ele>
        <time>2020-08-23T18:35:57.400Z</time>
      </trkpt>
      <trkpt lat="42.81996" lon="0.15922">
        <ele>1996.7426757812</ele>
        <time>2020-08-23T18:36:03.111Z</time>
      </trkpt>
      <trkpt lat="42.81999" lon="0.15963">
        <ele>2003.666015625</ele>
        <time>2020-08-23T18:36:08.827Z</time>
      </trkpt>
      <trkpt lat="42.8203" lon="0.16016">
        <ele>2005.9212646484</ele>
        <time>2020-08-23T18:36:14.551Z</time>
      </trkpt>
      <trkpt lat="42.82087" lon="0.16064">
        <ele>1991.8454589844</ele>
        <time>2020-08-23T18:36:20.286Z</time>
      </trkpt>
      <trkpt lat="42.82127" lon="0.16132">
        <ele>1994.212890625</ele>
        <time>2020-08-23T18:36:26.031Z</time>
      </trkpt>
      <trkpt lat="42.82127" lon="0.16132">
        <ele>1994.2093505859</ele>
        <time>2020-08-23T18:36:31.776Z</time>
      </trkpt>
      <trkpt lat="42.82135" lon="0.16145">
        <ele>1995.5386962891</ele>
        <time>2020-08-23T18:36:37.523Z</time>
      </trkpt>
      <trkpt lat="42.82179" lon="0.16163">
        <ele>1982.8394775391</ele>
        <time>2020-08-23T18:36:43.277Z</time>
      </trkpt>
      <trkpt lat="42.82199" lon="0.16179">
        <ele>1978.1668701172</ele>
        <time>2020-08-23T18:36:49.035Z</time>
      </trkpt>
      <trkpt lat="42.82309" lon="0.16315">
        <ele>1962.4079589844</ele>
        <time>2020-08-23T18:36:54.817Z</time>
      </trkpt>
      <trkpt lat="42.82341" lon="0.16411">
        <ele>1958.8021240234</ele>
        <time>2020-08-23T18:37:00.611Z</time>
      </trkpt>
      <trkpt lat="42.82363" lon="0.16442">
        <ele>1946.4188232422</ele>
        <time>2020-08-23T18:37:06.410Z</time>
      </trkpt>
      <trkpt lat="42.82375" lon="0.16475">
        <ele>1941.8322753906</ele>
        <time>2020-08-23T18:37:12.214Z</time>
      </trkpt>
      <trkpt lat="42.82378" lon="0.16531">
        <ele>1943.6883544922</ele>
        <time>2020-08-23T18:37:18.024Z</time>
      </trkpt>
      <trkpt lat="42.82439" lon="0.1676">
        <ele>1911.45703125</ele>
        <time>2020-08-23T18:37:23.863Z</time>
      </trkpt>
      <trkpt lat="42.82439" lon="0.16843">
        <ele>1893.9964599609</ele>
        <time>2020-08-23T18:37:29.712Z</time>
      </trkpt>
      <trkpt lat="42.82416" lon="0.16918">
        <ele>1874.4305419922</ele>
        <time>2020-08-23T18:37:35.570Z</time>
      </trkpt>
      <trkpt lat="42.82359" lon="0.16984">
        <ele>1903.8724365234</ele>
        <time>2020-08-23T18:37:41.440Z</time>
      </trkpt>
      <trkpt lat="42.82314" lon="0.17093">
        <ele>1879.1174316406</ele>
        <time>2020-08-23T18:37:47.325Z</time>
      </trkpt>
      <trkpt lat="42.82294" lon="0.17125">
        <ele>1883.5128173828</ele>
        <time>2020-08-23T18:37:53.215Z</time>
      </trkpt>
      <trkpt lat="42.82268" lon="0.17236">
        <ele>1868.9362792969</ele>
        <time>2020-08-23T18:37:59.119Z</time>
      </trkpt>
      <trkpt lat="42.82226" lon="0.17358">
        <ele>1844.8223876953</ele>
        <time>2020-08-23T18:38:05.039Z</time>
      </trkpt>
      <trkpt lat="42.82214" lon="0.17372">
        <ele>1844.5391845703</ele>
        <time>2020-08-23T18:38:10.961Z</time>
      </trkpt>
      <trkpt lat="42.82181" lon="0.17388">
        <ele>1853.8525390625</ele>
        <time>2020-08-23T18:38:16.889Z</time>
      </trkpt>
      <trkpt lat="42.82166" lon="0.17408">
        <ele>1852.7738037109</ele>
        <time>2020-08-23T18:38:22.820Z</time>
      </trkpt>
      <trkpt lat="42.82151" lon="0.17448">
        <ele>1846.8100585938</ele>
        <time>2020-08-23T18:38:28.756Z</time>
      </trkpt>
      <trkpt lat="42.82154" lon="0.17457">
        <ele>1840.8630371094</ele>
        <time>2020-08-23T18:38:34.693Z</time>
      </trkpt>
      <trkpt lat="42.82163" lon="0.17458">
        <ele>1833.6416015625</ele>
        <time>2020-08-23T18:38:40.632Z</time>
      </trkpt>
      <trkpt lat="42.82176" lon="0.17426">
        <ele>1839.2421875</ele>
        <time>2020-08-23T18:38:46.575Z</time>
      </trkpt>
      <trkpt lat="42.82222" lon="0.17408">
        <ele>1830.3864746094</ele>
        <time>2020-08-23T18:38:52.526Z</time>
      </trkpt>
      <trkpt lat="42.82228" lon="0.17416">
        <ele>1825.0572509766</ele>
        <time>2020-08-23T18:38:58.478Z</time>
      </trkpt>
      <trkpt lat="42.82228" lon="0.1743">
        <ele>1821.041015625</ele>
        <time>2020-08-23T18:39:04.432Z</time>
      </trkpt>
      <trkpt lat="42.82189" lon="0.1745">
        <ele>1824.7221679688</ele>
        <time>2020-08-23T18:39:10.393Z</time>
      </trkpt>
      <trkpt lat="42.82169" lon="0.17477">
        <ele>1821.0899658203</ele>
        <time>2020-08-23T18:39:16.358Z</time>
      </trkpt>
      <trkpt lat="42.82171" lon="0.17487">
        <ele>1815.68359375</ele>
        <time>2020-08-23T18:39:22.324Z</time>
      </trkpt>
      <trkpt lat="42.82182" lon="0.17489">
        <ele>1812.6312255859</ele>
        <time>2020-08-23T18:39:28.292Z</time>
      </trkpt>
      <trkpt lat="42.82224" lon="0.17457">
        <ele>1811.3218994141</ele>
        <time>2020-08-23T18:39:34.268Z</time>
      </trkpt>
      <trkpt lat="42.82237" lon="0.1746">
        <ele>1806.0673828125</ele>
        <time>2020-08-23T18:39:40.246Z</time>
      </trkpt>
      <trkpt lat="42.82238" lon="0.17475">
        <ele>1801.7572021484</ele>
        <time>2020-08-23T18:39:46.226Z</time>
      </trkpt>
      <trkpt lat="42.82184" lon="0.17506">
        <ele>1805.6800537109</ele>
        <time>2020-08-23T18:39:52.215Z</time>
      </trkpt>
      <trkpt lat="42.82185" lon="0.17519">
        <ele>1800.5568847656</ele>
        <time>2020-08-23T18:39:58.206Z</time>
      </trkpt>
      <trkpt lat="42.82192" lon="0.17522">
        <ele>1798.2398681641</ele>
        <time>2020-08-23T18:40:04.198Z</time>
      </trkpt>
      <trkpt lat="42.8222" lon="0.175">
        <ele>1801.0106201172</ele>
        <time>2020-08-23T18:40:10.195Z</time>
      </trkpt>
      <trkpt lat="42.82234" lon="0.17503">
        <ele>1796.0161132812</ele>
        <time>2020-08-23T18:40:16.194Z</time>
      </trkpt>
      <trkpt lat="42.82231" lon="0.17523">
        <ele>1791.1599121094</ele>
        <time>2020-08-23T18:40:22.195Z</time>
      </trkpt>
      <trkpt lat="42.82207" lon="0.17527">
        <ele>1794.0677490234</ele>
        <time>2020-08-23T18:40:28.200Z</time>
      </trkpt>
      <trkpt lat="42.82198" lon="0.17535">
        <ele>1792.2154541016</ele>
        <time>2020-08-23T18:40:34.207Z</time>
      </trkpt>
      <trkpt lat="42.82186" lon="0.17553">
        <ele>1788.8935546875</ele>
        <time>2020-08-23T18:40:40.217Z</time>
      </trkpt>
      <trkpt lat="42.8216" lon="0.17567">
        <ele>1792.9559326172</ele>
        <time>2020-08-23T18:40:46.232Z</time>
      </trkpt>
      <trkpt lat="42.82138" lon="0.1759">
        <ele>1798.2723388672</ele>
        <time>2020-08-23T18:40:52.251Z</time>
      </trkpt>
      <trkpt lat="42.82122" lon="0.17625">
        <ele>1790.0059814453</ele>
        <time>2020-08-23T18:40:58.275Z</time>
      </trkpt>
      <trkpt lat="42.82067" lon="0.17706">
        <ele>1786.0263671875</ele>
        <time>2020-08-23T18:41:04.312Z</time>
      </trkpt>
      <trkpt lat="42.82049" lon="0.17755">
        <ele>1794.0982666016</ele>
        <time>2020-08-23T18:41:10.355Z</time>
      </trkpt>
      <trkpt lat="42.8203" lon="0.17768">
        <ele>1797.0330810547</ele>
        <time>2020-08-23T18:41:16.402Z</time>
      </trkpt>
      <trkpt lat="42.82008" lon="0.17807">
        <ele>1799.1638183594</ele>
        <time>2020-08-23T18:41:22.454Z</time>
      </trkpt>
      <trkpt lat="42.82003" lon="0.17827">
        <ele>1803.1499023438</ele>
        <time>2020-08-23T18:41:28.509Z</time>
      </trkpt>
      <trkpt lat="42.82009" lon="0.17846">
        <ele>1802.1888427734</ele>
        <time>2020-08-23T18:41:34.566Z</time>
      </trkpt>
      <trkpt lat="42.82039" lon="0.17869">
        <ele>1795.4307861328</ele>
        <time>2020-08-23T18:41:40.629Z</time>
      </trkpt>
      <trkpt lat="42.82076" lon="0.17913">
        <ele>1784.4371337891</ele>
        <time>2020-08-23T18:41:46.700Z</time>
      </trkpt>
      <trkpt lat="42.8209" lon="0.1796">
        <ele>1778.6812744141</ele>
        <time>2020-08-23T18:41:52.777Z</time>
      </trkpt>
      <trkpt lat="42.82086" lon="0.17994">
        <ele>1778.8737792969</ele>
        <time>2020-08-23T18:41:58.858Z</time>
      </trkpt>
      <trkpt lat="42.82066" lon="0.18035">
        <ele>1784.3607177734</ele>
        <time>2020-08-23T18:42:04.945Z</time>
      </trkpt>
      <trkpt lat="42.82066" lon="0.18048">
        <ele>1784.0379638672</ele>
        <time>2020-08-23T18:42:11.033Z</time>
      </trkpt>
      <trkpt lat="42.82081" lon="0.18052">
        <ele>1778.0394287109</ele>
        <time>2020-08-23T18:42:17.123Z</time>
      </trkpt>
      <trkpt lat="42.82097" lon="0.17972">
        <ele>1775.5128173828</ele>
        <time>2020-08-23T18:42:23.223Z</time>
      </trkpt>
      <trkpt lat="42.82095" lon="0.17905">
        <ele>1778.9129638672</ele>
        <time>2020-08-23T18:42:29.331Z</time>
      </trkpt>
      <trkpt lat="42.82071" lon="0.17805">
        <ele>1782.3920898438</ele>
        <time>2020-08-23T18:42:35.452Z</time>
      </trkpt>
      <trkpt lat="42.82079" lon="0.17785">
        <ele>1781.1228027344</ele>
        <time>2020-08-23T18:42:41.575Z</time>
      </trkpt>
      <trkpt lat="42.82118" lon="0.17752">
        <ele>1762.5997314453</ele>
        <time>2020-08-23T18:42:47.706Z</time>
      </trkpt>
      <trkpt lat="42.8213" lon="0.17752">
        <ele>1757.8054199219</ele>
        <time>2020-08-23T18:42:53.839Z</time>
      </trkpt>
      <trkpt lat="42.8214" lon="0.17764">
        <ele>1754.1166992188</ele>
        <time>2020-08-23T18:42:59.974Z</time>
      </trkpt>
      <trkpt lat="42.82145" lon="0.17784">
        <ele>1753.5855712891</ele>
        <time>2020-08-23T18:43:06.111Z</time>
      </trkpt>
      <trkpt lat="42.82116" lon="0.17867">
        <ele>1771.3291015625</ele>
        <time>2020-08-23T18:43:12.259Z</time>
      </trkpt>
      <trkpt lat="42.8213" lon="0.17988">
        <ele>1763.8591308594</ele>
        <time>2020-08-23T18:43:18.421Z</time>
      </trkpt>
      <trkpt lat="42.82118" lon="0.18131">
        <ele>1756.5430908203</ele>
        <time>2020-08-23T18:43:24.600Z</time>
      </trkpt>
      <trkpt lat="42.82122" lon="0.18171">
        <ele>1749.0357666016</ele>
        <time>2020-08-23T18:43:30.784Z</time>
      </trkpt>
      <trkpt lat="42.82136" lon="0.18207">
        <ele>1737.3732910156</ele>
        <time>2020-08-23T18:43:36.973Z</time>
      </trkpt>
      <trkpt lat="42.82153" lon="0.18228">
        <ele>1729.4195556641</ele>
        <time>2020-08-23T18:43:43.166Z</time>
      </trkpt>
      <trkpt lat="42.82153" lon="0.18228">
        <ele>1729.4171142578</ele>
        <time>2020-08-23T18:43:49.359Z</time>
      </trkpt>
      <trkpt lat="42.82162" lon="0.1824">
        <ele>1725.5321044922</ele>
        <time>2020-08-23T18:43:55.554Z</time>
      </trkpt>
      <trkpt lat="42.82164" lon="0.18292">
        <ele>1718.0677490234</ele>
        <time>2020-08-23T18:44:01.755Z</time>
      </trkpt>
      <trkpt lat="42.82182" lon="0.18382">
        <ele>1712.1931152344</ele>
        <time>2020-08-23T18:44:07.967Z</time>
      </trkpt>
      <trkpt lat="42.8218" lon="0.18407">
        <ele>1713.5856933594</ele>
        <time>2020-08-23T18:44:14.182Z</time>
      </trkpt>
      <trkpt lat="42.82162" lon="0.18465">
        <ele>1710.6752929688</ele>
        <time>2020-08-23T18:44:20.404Z</time>
      </trkpt>
      <trkpt lat="42.8211" lon="0.18522">
        <ele>1685.234375</ele>
        <time>2020-08-23T18:44:26.637Z</time>
      </trkpt>
      <trkpt lat="42.82097" lon="0.18581">
        <ele>1677.5838623047</ele>
        <time>2020-08-23T18:44:32.877Z</time>
      </trkpt>
      <trkpt lat="42.8209" lon="0.18595">
        <ele>1673.7864990234</ele>
        <time>2020-08-23T18:44:39.119Z</time>
      </trkpt>
      <trkpt lat="42.82081" lon="0.18593">
        <ele>1672.6278076172</ele>
        <time>2020-08-23T18:44:45.362Z</time>
      </trkpt>
      <trkpt lat="42.82078" lon="0.18581">
        <ele>1673.0911865234</ele>
        <time>2020-08-23T18:44:51.607Z</time>
      </trkpt>
      <trkpt lat="42.82101" lon="0.18514">
        <ele>1681.0893554688</ele>
        <time>2020-08-23T18:44:57.861Z</time>
      </trkpt>
      <trkpt lat="42.82134" lon="0.1847">
        <ele>1696.6958007812</ele>
        <time>2020-08-23T18:45:04.122Z</time>
      </trkpt>
      <trkpt lat="42.82136" lon="0.18448">
        <ele>1702.203125</ele>
        <time>2020-08-23T18:45:10.386Z</time>
      </trkpt>
      <trkpt lat="42.82131" lon="0.18438">
        <ele>1702.7823486328</ele>
        <time>2020-08-23T18:45:16.651Z</time>
      </trkpt>
      <trkpt lat="42.82105" lon="0.18434">
        <ele>1691.0812988281</ele>
        <time>2020-08-23T18:45:22.920Z</time>
      </trkpt>
      <trkpt lat="42.82047" lon="0.18473">
        <ele>1683.2980957031</ele>
        <time>2020-08-23T18:45:29.200Z</time>
      </trkpt>
      <trkpt lat="42.82033" lon="0.18498">
        <ele>1683.8988037109</ele>
        <time>2020-08-23T18:45:35.483Z</time>
      </trkpt>
      <trkpt lat="42.82023" lon="0.18537">
        <ele>1671.3095703125</ele>
        <time>2020-08-23T18:45:41.771Z</time>
      </trkpt>
      <trkpt lat="42.82002" lon="0.18557">
        <ele>1667.9094238281</ele>
        <time>2020-08-23T18:45:48.063Z</time>
      </trkpt>
      <trkpt lat="42.81983" lon="0.18609">
        <ele>1673.8173828125</ele>
        <time>2020-08-23T18:45:54.362Z</time>
      </trkpt>
      <trkpt lat="42.81965" lon="0.1863">
        <ele>1677.9068603516</ele>
        <time>2020-08-23T18:46:00.665Z</time>
      </trkpt>
      <trkpt lat="42.81949" lon="0.18701">
        <ele>1667.3125</ele>
        <time>2020-08-23T18:46:06.977Z</time>
      </trkpt>
      <trkpt lat="42.81933" lon="0.18848">
        <ele>1649.4743652344</ele>
        <time>2020-08-23T18:46:13.306Z</time>
      </trkpt>
      <trkpt lat="42.81902" lon="0.18958">
        <ele>1643.4613037109</ele>
        <time>2020-08-23T18:46:19.649Z</time>
      </trkpt>
      <trkpt lat="42.81902" lon="0.18958">
        <ele>1643.4561767578</ele>
        <time>2020-08-23T18:46:25.992Z</time>
      </trkpt>
      <trkpt lat="42.81874" lon="0.19045">
        <ele>1651.2640380859</ele>
        <time>2020-08-23T18:46:32.346Z</time>
      </trkpt>
      <trkpt lat="42.81873" lon="0.1906">
        <ele>1652.5329589844</ele>
        <time>2020-08-23T18:46:38.702Z</time>
      </trkpt>
      <trkpt lat="42.81893" lon="0.19103">
        <ele>1643.2169189453</ele>
        <time>2020-08-23T18:46:45.064Z</time>
      </trkpt>
      <trkpt lat="42.819" lon="0.19141">
        <ele>1636.0515136719</ele>
        <time>2020-08-23T18:46:51.431Z</time>
      </trkpt>
      <trkpt lat="42.81895" lon="0.19181">
        <ele>1634.4553222656</ele>
        <time>2020-08-23T18:46:57.802Z</time>
      </trkpt>
      <trkpt lat="42.81876" lon="0.19236">
        <ele>1625.0637207031</ele>
        <time>2020-08-23T18:47:04.181Z</time>
      </trkpt>
      <trkpt lat="42.81876" lon="0.19282">
        <ele>1615.1505126953</ele>
        <time>2020-08-23T18:47:10.565Z</time>
      </trkpt>
      <trkpt lat="42.81865" lon="0.19319">
        <ele>1609.390625</ele>
        <time>2020-08-23T18:47:16.954Z</time>
      </trkpt>
      <trkpt lat="42.81846" lon="0.19346">
        <ele>1600.6982421875</ele>
        <time>2020-08-23T18:47:23.347Z</time>
      </trkpt>
      <trkpt lat="42.81816" lon="0.19337">
        <ele>1609.6047363281</ele>
        <time>2020-08-23T18:47:29.745Z</time>
      </trkpt>
      <trkpt lat="42.81806" lon="0.19339">
        <ele>1613.3120117188</ele>
        <time>2020-08-23T18:47:36.145Z</time>
      </trkpt>
      <trkpt lat="42.81801" lon="0.19347">
        <ele>1612.9216308594</ele>
        <time>2020-08-23T18:47:42.546Z</time>
      </trkpt>
      <trkpt lat="42.818" lon="0.19367">
        <ele>1608.4033203125</ele>
        <time>2020-08-23T18:47:48.949Z</time>
      </trkpt>
      <trkpt lat="42.81815" lon="0.19388">
        <ele>1599.4296875</ele>
        <time>2020-08-23T18:47:55.356Z</time>
      </trkpt>
      <trkpt lat="42.81819" lon="0.19414">
        <ele>1594.9500732422</ele>
        <time>2020-08-23T18:48:01.766Z</time>
      </trkpt>
      <trkpt lat="42.81819" lon="0.19414">
        <ele>1594.947265625</ele>
        <time>2020-08-23T18:48:08.176Z</time>
      </trkpt>
      <trkpt lat="42.81795" lon="0.1944">
        <ele>1596.4438476562</ele>
        <time>2020-08-23T18:48:14.591Z</time>
      </trkpt>
      <trkpt lat="42.81775" lon="0.19481">
        <ele>1593.3759765625</ele>
        <time>2020-08-23T18:48:21.012Z</time>
      </trkpt>
      <trkpt lat="42.81771" lon="0.19519">
        <ele>1586.6727294922</ele>
        <time>2020-08-23T18:48:27.437Z</time>
      </trkpt>
      <trkpt lat="42.81749" lon="0.19581">
        <ele>1577.4445800781</ele>
        <time>2020-08-23T18:48:33.870Z</time>
      </trkpt>
      <trkpt lat="42.81739" lon="0.19593">
        <ele>1575.2434082031</ele>
        <time>2020-08-23T18:48:40.305Z</time>
      </trkpt>
      <trkpt lat="42.81726" lon="0.19595">
        <ele>1573.7760009766</ele>
        <time>2020-08-23T18:48:46.742Z</time>
      </trkpt>
      <trkpt lat="42.81693" lon="0.19578">
        <ele>1571.5625</ele>
        <time>2020-08-23T18:48:53.185Z</time>
      </trkpt>
      <trkpt lat="42.81642" lon="0.19608">
        <ele>1576.5969238281</ele>
        <time>2020-08-23T18:48:59.637Z</time>
      </trkpt>
      <trkpt lat="42.81646" lon="0.19629">
        <ele>1571.0111083984</ele>
        <time>2020-08-23T18:49:06.092Z</time>
      </trkpt>
      <trkpt lat="42.81656" lon="0.19628">
        <ele>1566.1066894531</ele>
        <time>2020-08-23T18:49:12.548Z</time>
      </trkpt>
      <trkpt lat="42.8167" lon="0.19614">
        <ele>1562.2734375</ele>
        <time>2020-08-23T18:49:19.007Z</time>
      </trkpt>
      <trkpt lat="42.81682" lon="0.19624">
        <ele>1561.4591064453</ele>
        <time>2020-08-23T18:49:25.468Z</time>
      </trkpt>
      <trkpt lat="42.81678" lon="0.19639">
        <ele>1560.6805419922</ele>
        <time>2020-08-23T18:49:31.931Z</time>
      </trkpt>
      <trkpt lat="42.81657" lon="0.19643">
        <ele>1565.7977294922</ele>
        <time>2020-08-23T18:49:38.397Z</time>
      </trkpt>
      <trkpt lat="42.81657" lon="0.19643">
        <ele>1565.7939453125</ele>
        <time>2020-08-23T18:49:44.863Z</time>
      </trkpt>
      <trkpt lat="42.81644" lon="0.19647">
        <ele>1572.1953125</ele>
        <time>2020-08-23T18:49:51.332Z</time>
      </trkpt>
      <trkpt lat="42.81631" lon="0.19663">
        <ele>1578.2583007812</ele>
        <time>2020-08-23T18:49:57.803Z</time>
      </trkpt>
      <trkpt lat="42.81609" lon="0.19732">
        <ele>1581.0256347656</ele>
        <time>2020-08-23T18:50:04.283Z</time>
      </trkpt>
      <trkpt lat="42.81601" lon="0.19805">
        <ele>1573.9796142578</ele>
        <time>2020-08-23T18:50:10.772Z</time>
      </trkpt>
      <trkpt lat="42.81608" lon="0.19863">
        <ele>1566.0187988281</ele>
        <time>2020-08-23T18:50:17.268Z</time>
      </trkpt>
      <trkpt lat="42.816" lon="0.19915">
        <ele>1561.8620605469</ele>
        <time>2020-08-23T18:50:23.770Z</time>
      </trkpt>
      <trkpt lat="42.81528" lon="0.19989">
        <ele>1555.6823730469</ele>
        <time>2020-08-23T18:50:30.287Z</time>
      </trkpt>
      <trkpt lat="42.81494" lon="0.20066">
        <ele>1540.0190429688</ele>
        <time>2020-08-23T18:50:36.814Z</time>
      </trkpt>
      <trkpt lat="42.81456" lon="0.20099">
        <ele>1551.1103515625</ele>
        <time>2020-08-23T18:50:43.349Z</time>
      </trkpt>
      <trkpt lat="42.81444" lon="0.20125">
        <ele>1553.5690917969</ele>
        <time>2020-08-23T18:50:49.887Z</time>
      </trkpt>
      <trkpt lat="42.81439" lon="0.20155">
        <ele>1552.3167724609</ele>
        <time>2020-08-23T18:50:56.429Z</time>
      </trkpt>
      <trkpt lat="42.81436" lon="0.20213">
        <ele>1550.7293701172</ele>
        <time>2020-08-23T18:51:02.978Z</time>
      </trkpt>
      <trkpt lat="42.81464" lon="0.20362">
        <ele>1524.1564941406</ele>
        <time>2020-08-23T18:51:09.545Z</time>
      </trkpt>
      <trkpt lat="42.81453" lon="0.20411">
        <ele>1528.5173339844</ele>
        <time>2020-08-23T18:51:16.118Z</time>
      </trkpt>
      <trkpt lat="42.8145" lon="0.20457">
        <ele>1529.3024902344</ele>
        <time>2020-08-23T18:51:22.696Z</time>
      </trkpt>
      <trkpt lat="42.81457" lon="0.2051">
        <ele>1525.7349853516</ele>
        <time>2020-08-23T18:51:29.281Z</time>
      </trkpt>
      <trkpt lat="42.81506" lon="0.2058">
        <ele>1496.2978515625</ele>
        <time>2020-08-23T18:51:35.877Z</time>
      </trkpt>
      <trkpt lat="42.81516" lon="0.20632">
        <ele>1492.8538818359</ele>
        <time>2020-08-23T18:51:42.479Z</time>
      </trkpt>
      <trkpt lat="42.81506" lon="0.20657">
        <ele>1492.4078369141</ele>
        <time>2020-08-23T18:51:49.085Z</time>
      </trkpt>
      <trkpt lat="42.81508" lon="0.20674">
        <ele>1490.0393066406</ele>
        <time>2020-08-23T18:51:55.693Z</time>
      </trkpt>
      <trkpt lat="42.81523" lon="0.20672">
        <ele>1488.1341552734</ele>
        <time>2020-08-23T18:52:02.303Z</time>
      </trkpt>
      <trkpt lat="42.81531" lon="0.20656">
        <ele>1488.9837646484</ele>
        <time>2020-08-23T18:52:08.915Z</time>
      </trkpt>
      <trkpt lat="42.81536" lon="0.20551">
        <ele>1489.3708496094</ele>
        <time>2020-08-23T18:52:15.540Z</time>
      </trkpt>
      <trkpt lat="42.8155" lon="0.20558">
        <ele>1485.5734863281</ele>
        <time>2020-08-23T18:52:22.167Z</time>
      </trkpt>
      <trkpt lat="42.81576" lon="0.2064">
        <ele>1474.5235595703</ele>
        <time>2020-08-23T18:52:28.805Z</time>
      </trkpt>
      <trkpt lat="42.81574" lon="0.20656">
        <ele>1475.9653320312</ele>
        <time>2020-08-23T18:52:35.445Z</time>
      </trkpt>
      <trkpt lat="42.81542" lon="0.20689">
        <ele>1483.4486083984</ele>
        <time>2020-08-23T18:52:42.091Z</time>
      </trkpt>
      <trkpt lat="42.81524" lon="0.20731">
        <ele>1479.9764404297</ele>
        <time>2020-08-23T18:52:48.743Z</time>
      </trkpt>
      <trkpt lat="42.81525" lon="0.20757">
        <ele>1476.3850097656</ele>
        <time>2020-08-23T18:52:55.398Z</time>
      </trkpt>
      <trkpt lat="42.81538" lon="0.208">
        <ele>1469.6262207031</ele>
        <time>2020-08-23T18:53:02.058Z</time>
      </trkpt>
      <trkpt lat="42.81537" lon="0.20816">
        <ele>1471.7502441406</ele>
        <time>2020-08-23T18:53:08.720Z</time>
      </trkpt>
      <trkpt lat="42.815" lon="0.20927">
        <ele>1452.2593994141</ele>
        <time>2020-08-23T18:53:15.396Z</time>
      </trkpt>
      <trkpt lat="42.81474" lon="0.2096">
        <ele>1464.0573730469</ele>
        <time>2020-08-23T18:53:22.078Z</time>
      </trkpt>
      <trkpt lat="42.81469" lon="0.20987">
        <ele>1465.2159423828</ele>
        <time>2020-08-23T18:53:28.763Z</time>
      </trkpt>
      <trkpt lat="42.81461" lon="0.2102">
        <ele>1465.1568603516</ele>
        <time>2020-08-23T18:53:35.452Z</time>
      </trkpt>
      <trkpt lat="42.81461" lon="0.2108">
        <ele>1457.3843994141</ele>
        <time>2020-08-23T18:53:42.149Z</time>
      </trkpt>
      <trkpt lat="42.81469" lon="0.21142">
        <ele>1445.8845214844</ele>
        <time>2020-08-23T18:53:48.853Z</time>
      </trkpt>
      <trkpt lat="42.81455" lon="0.21217">
        <ele>1443.4235839844</ele>
        <time>2020-08-23T18:53:55.566Z</time>
      </trkpt>
      <trkpt lat="42.81449" lon="0.21318">
        <ele>1433.9254150391</ele>
        <time>2020-08-23T18:54:02.291Z</time>
      </trkpt>
      <trkpt lat="42.81416" lon="0.21425">
        <ele>1418.6964111328</ele>
        <time>2020-08-23T18:54:09.030Z</time>
      </trkpt>
      <trkpt lat="42.814" lon="0.21572">
        <ele>1414.9888916016</ele>
        <time>2020-08-23T18:54:15.786Z</time>
      </trkpt>
      <trkpt lat="42.81339" lon="0.21743">
        <ele>1393.8848876953</ele>
        <time>2020-08-23T18:54:22.565Z</time>
      </trkpt>
      <trkpt lat="42.8134" lon="0.21766">
        <ele>1395.0690917969</ele>
        <time>2020-08-23T18:54:29.346Z</time>
      </trkpt>
      <trkpt lat="42.81288" lon="0.21929">
        <ele>1411.93359375</ele>
        <time>2020-08-23T18:54:36.148Z</time>
      </trkpt>
      <trkpt lat="42.81276" lon="0.21995">
        <ele>1405.3244628906</ele>
        <time>2020-08-23T18:54:42.958Z</time>
      </trkpt>
      <trkpt lat="42.8124" lon="0.22096">
        <ele>1406.6320800781</ele>
        <time>2020-08-23T18:54:49.781Z</time>
      </trkpt>
      <trkpt lat="42.81203" lon="0.22154">
        <ele>1415.4379882812</ele>
        <time>2020-08-23T18:54:56.613Z</time>
      </trkpt>
      <trkpt lat="42.81151" lon="0.22168">
        <ele>1410.1328125</ele>
        <time>2020-08-23T18:55:03.454Z</time>
      </trkpt>
      <trkpt lat="42.81094" lon="0.22167">
        <ele>1402.1389160156</ele>
        <time>2020-08-23T18:55:10.304Z</time>
      </trkpt>
      <trkpt lat="42.81052" lon="0.22145">
        <ele>1387.1296386719</ele>
        <time>2020-08-23T18:55:17.161Z</time>
      </trkpt>
      <trkpt lat="42.81015" lon="0.22101">
        <ele>1374.6141357422</ele>
        <time>2020-08-23T18:55:24.026Z</time>
      </trkpt>
      <trkpt lat="42.81003" lon="0.22096">
        <ele>1372.7895507812</ele>
        <time>2020-08-23T18:55:30.893Z</time>
      </trkpt>
      <trkpt lat="42.80982" lon="0.22098">
        <ele>1370.7299804688</ele>
        <time>2020-08-23T18:55:37.763Z</time>
      </trkpt>
      <trkpt lat="42.80956" lon="0.2212">
        <ele>1354.2219238281</ele>
        <time>2020-08-23T18:55:44.638Z</time>
      </trkpt>
      <trkpt lat="42.80936" lon="0.22193">
        <ele>1342.4158935547</ele>
        <time>2020-08-23T18:55:51.522Z</time>
      </trkpt>
      <trkpt lat="42.80938" lon="0.22256">
        <ele>1347.2191162109</ele>
        <time>2020-08-23T18:55:58.414Z</time>
      </trkpt>
      <trkpt lat="42.8093" lon="0.22313">
        <ele>1349.533203125</ele>
        <time>2020-08-23T18:56:05.313Z</time>
      </trkpt>
      <trkpt lat="42.80851" lon="0.22495">
        <ele>1342.1912841797</ele>
        <time>2020-08-23T18:56:12.237Z</time>
      </trkpt>
      <trkpt lat="42.80798" lon="0.2255">
        <ele>1342.4289550781</ele>
        <time>2020-08-23T18:56:19.171Z</time>
      </trkpt>
      <trkpt lat="42.80778" lon="0.22547">
        <ele>1334.4608154297</ele>
        <time>2020-08-23T18:56:26.109Z</time>
      </trkpt>
      <trkpt lat="42.80778" lon="0.22547">
        <ele>1334.4633789062</ele>
        <time>2020-08-23T18:56:33.047Z</time>
      </trkpt>
      <trkpt lat="42.80751" lon="0.22546">
        <ele>1325.5771484375</ele>
        <time>2020-08-23T18:56:39.989Z</time>
      </trkpt>
      <trkpt lat="42.80719" lon="0.22568">
        <ele>1324.9206542969</ele>
        <time>2020-08-23T18:56:46.937Z</time>
      </trkpt>
      <trkpt lat="42.80644" lon="0.2267">
        <ele>1328.3414306641</ele>
        <time>2020-08-23T18:56:53.902Z</time>
      </trkpt>
      <trkpt lat="42.80587" lon="0.22735">
        <ele>1334.2723388672</ele>
        <time>2020-08-23T18:57:00.879Z</time>
      </trkpt>
      <trkpt lat="42.80509" lon="0.22752">
        <ele>1325.9666748047</ele>
        <time>2020-08-23T18:57:07.868Z</time>
      </trkpt>
      <trkpt lat="42.80447" lon="0.22752">
        <ele>1313.4489746094</ele>
        <time>2020-08-23T18:57:14.867Z</time>
      </trkpt>
      <trkpt lat="42.80354" lon="0.2279">
        <ele>1295.9577636719</ele>
        <time>2020-08-23T18:57:21.882Z</time>
      </trkpt>
      <trkpt lat="42.80263" lon="0.2287">
        <ele>1280.2932128906</ele>
        <time>2020-08-23T18:57:28.914Z</time>
      </trkpt>
      <trkpt lat="42.80234" lon="0.22924">
        <ele>1288.6104736328</ele>
        <time>2020-08-23T18:57:35.954Z</time>
      </trkpt>
      <trkpt lat="42.80202" lon="0.22961">
        <ele>1285.2694091797</ele>
        <time>2020-08-23T18:57:43.001Z</time>
      </trkpt>
      <trkpt lat="42.80134" lon="0.22997">
        <ele>1277.4188232422</ele>
        <time>2020-08-23T18:57:50.059Z</time>
      </trkpt>
      <trkpt lat="42.801" lon="0.23004">
        <ele>1273.5638427734</ele>
        <time>2020-08-23T18:57:57.123Z</time>
      </trkpt>
      <trkpt lat="42.8004" lon="0.22992">
        <ele>1267.7150878906</ele>
        <time>2020-08-23T18:58:04.196Z</time>
      </trkpt>
      <trkpt lat="42.79986" lon="0.23011">
        <ele>1282.1817626953</ele>
        <time>2020-08-23T18:58:11.278Z</time>
      </trkpt>
      <trkpt lat="42.79928" lon="0.22994">
        <ele>1270.3452148438</ele>
        <time>2020-08-23T18:58:18.370Z</time>
      </trkpt>
      <trkpt lat="42.79912" lon="0.22977">
        <ele>1261.1143798828</ele>
        <time>2020-08-23T18:58:25.465Z</time>
      </trkpt>
      <trkpt lat="42.79909" lon="0.22952">
        <ele>1248.8895263672</ele>
        <time>2020-08-23T18:58:32.563Z</time>
      </trkpt>
      <trkpt lat="42.79873" lon="0.22899">
        <ele>1238.2520751953</ele>
        <time>2020-08-23T18:58:39.670Z</time>
      </trkpt>
      <trkpt lat="42.79849" lon="0.22879">
        <ele>1232.2277832031</ele>
        <time>2020-08-23T18:58:46.781Z</time>
      </trkpt>
      <trkpt lat="42.79804" lon="0.22796">
        <ele>1225.0780029297</ele>
        <time>2020-08-23T18:58:53.904Z</time>
      </trkpt>
      <trkpt lat="42.7972" lon="0.22777">
        <ele>1223.3352050781</ele>
        <time>2020-08-23T18:59:01.041Z</time>
      </trkpt>
      <trkpt lat="42.79708" lon="0.22769">
        <ele>1223.2836914062</ele>
        <time>2020-08-23T18:59:08.180Z</time>
      </trkpt>
      <trkpt lat="42.79658" lon="0.22667">
        <ele>1215.7819824219</ele>
        <time>2020-08-23T18:59:15.333Z</time>
      </trkpt>
      <trkpt lat="42.7965" lon="0.22638">
        <ele>1217.8930664062</ele>
        <time>2020-08-23T18:59:22.490Z</time>
      </trkpt>
      <trkpt lat="42.7964" lon="0.2263">
        <ele>1216.6829833984</ele>
        <time>2020-08-23T18:59:29.649Z</time>
      </trkpt>
      <trkpt lat="42.79572" lon="0.22584">
        <ele>1207.7922363281</ele>
        <time>2020-08-23T18:59:36.820Z</time>
      </trkpt>
      <trkpt lat="42.79472" lon="0.22592">
        <ele>1200.5755615234</ele>
        <time>2020-08-23T18:59:44.007Z</time>
      </trkpt>
      <trkpt lat="42.79433" lon="0.22577">
        <ele>1193.8856201172</ele>
        <time>2020-08-23T18:59:51.201Z</time>
      </trkpt>
      <trkpt lat="42.79383" lon="0.2257">
        <ele>1186.1376953125</ele>
        <time>2020-08-23T18:59:58.403Z</time>
      </trkpt>
      <trkpt lat="42.79358" lon="0.22554">
        <ele>1182.7779541016</ele>
        <time>2020-08-23T19:00:05.609Z</time>
      </trkpt>
      <trkpt lat="42.79358" lon="0.22554">
        <ele>1182.7791748047</ele>
        <time>2020-08-23T19:00:12.815Z</time>
      </trkpt>
      <trkpt lat="42.79234" lon="0.2258">
        <ele>1167.5230712891</ele>
        <time>2020-08-23T19:00:20.041Z</time>
      </trkpt>
      <trkpt lat="42.79164" lon="0.22627">
        <ele>1157.1473388672</ele>
        <time>2020-08-23T19:00:27.280Z</time>
      </trkpt>
      <trkpt lat="42.79151" lon="0.22661">
        <ele>1158.1975097656</ele>
        <time>2020-08-23T19:00:34.523Z</time>
      </trkpt>
      <trkpt lat="42.79151" lon="0.22661">
        <ele>1158.1966552734</ele>
        <time>2020-08-23T19:00:41.766Z</time>
      </trkpt>
      <trkpt lat="42.79144" lon="0.22683">
        <ele>1159.0084228516</ele>
        <time>2020-08-23T19:00:49.012Z</time>
      </trkpt>
      <trkpt lat="42.79103" lon="0.22711">
        <ele>1154.5286865234</ele>
        <time>2020-08-23T19:00:56.265Z</time>
      </trkpt>
      <trkpt lat="42.79092" lon="0.22756">
        <ele>1158.0572509766</ele>
        <time>2020-08-23T19:01:03.524Z</time>
      </trkpt>
      <trkpt lat="42.79076" lon="0.22774">
        <ele>1156.7182617188</ele>
        <time>2020-08-23T19:01:10.786Z</time>
      </trkpt>
      <trkpt lat="42.79073" lon="0.22785">
        <ele>1156.2978515625</ele>
        <time>2020-08-23T19:01:18.050Z</time>
      </trkpt>
      <trkpt lat="42.79079" lon="0.22816">
        <ele>1161.7542724609</ele>
        <time>2020-08-23T19:01:25.317Z</time>
      </trkpt>
      <trkpt lat="42.79079" lon="0.22816">
        <ele>1161.7568359375</ele>
        <time>2020-08-23T19:01:32.584Z</time>
      </trkpt>
      <trkpt lat="42.79041" lon="0.22864">
        <ele>1156.2525634766</ele>
        <time>2020-08-23T19:01:39.860Z</time>
      </trkpt>
      <trkpt lat="42.79018" lon="0.22905">
        <ele>1151.8489990234</ele>
        <time>2020-08-23T19:01:47.142Z</time>
      </trkpt>
      <trkpt lat="42.78986" lon="0.22974">
        <ele>1147.7639160156</ele>
        <time>2020-08-23T19:01:54.433Z</time>
      </trkpt>
      <trkpt lat="42.78986" lon="0.22974">
        <ele>1147.7664794922</ele>
        <time>2020-08-23T19:02:01.724Z</time>
      </trkpt>
      <trkpt lat="42.78968" lon="0.23006">
        <ele>1146.7083740234</ele>
        <time>2020-08-23T19:02:09.020Z</time>
      </trkpt>
      <trkpt lat="42.78916" lon="0.23062">
        <ele>1137.5861816406</ele>
        <time>2020-08-23T19:02:16.327Z</time>
      </trkpt>
      <trkpt lat="42.78899" lon="0.23149">
        <ele>1127.6408691406</ele>
        <time>2020-08-23T19:02:23.644Z</time>
      </trkpt>
      <trkpt lat="42.78899" lon="0.23149">
        <ele>1127.6434326172</ele>
        <time>2020-08-23T19:02:30.961Z</time>
      </trkpt>
      <trkpt lat="42.789" lon="0.23231">
        <ele>1120.4813232422</ele>
        <time>2020-08-23T19:02:38.288Z</time>
      </trkpt>
      <trkpt lat="42.78914" lon="0.23306">
        <ele>1119.0660400391</ele>
        <time>2020-08-23T19:02:45.624Z</time>
      </trkpt>
      <trkpt lat="42.78914" lon="0.23306">
        <ele>1119.0679931641</ele>
        <time>2020-08-23T19:02:52.960Z</time>
      </trkpt>
      <trkpt lat="42.78939" lon="0.23425">
        <ele>1117.2700195312</ele>
        <time>2020-08-23T19:03:00.311Z</time>
      </trkpt>
      <trkpt lat="42.78934" lon="0.23477">
        <ele>1115.3594970703</ele>
        <time>2020-08-23T19:03:07.668Z</time>
      </trkpt>
      <trkpt lat="42.78933" lon="0.23503">
        <ele>1114.9990234375</ele>
        <time>2020-08-23T19:03:15.028Z</time>
      </trkpt>
      <trkpt lat="42.78931" lon="0.23528">
        <ele>1114.275390625</ele>
        <time>2020-08-23T19:03:22.391Z</time>
      </trkpt>
      <trkpt lat="42.78909" lon="0.23584">
        <ele>1109.3176269531</ele>
        <time>2020-08-23T19:03:29.761Z</time>
      </trkpt>
      <trkpt lat="42.78903" lon="0.23694">
        <ele>1114.5078125</ele>
        <time>2020-08-23T19:03:37.144Z</time>
      </trkpt>
      <trkpt lat="42.78903" lon="0.23694">
        <ele>1114.5096435547</ele>
        <time>2020-08-23T19:03:44.527Z</time>
      </trkpt>
      <trkpt lat="42.78895" lon="0.2374">
        <ele>1112.9797363281</ele>
        <time>2020-08-23T19:03:51.916Z</time>
      </trkpt>
      <trkpt lat="42.78893" lon="0.23745">
        <ele>1112.5677490234</ele>
        <time>2020-08-23T19:03:59.306Z</time>
      </trkpt>
      <trkpt lat="42.78881" lon="0.2379">
        <ele>1109.3591308594</ele>
        <time>2020-08-23T19:04:06.701Z</time>
      </trkpt>
      <trkpt lat="42.78836" lon="0.23867">
        <ele>1097.1555175781</ele>
        <time>2020-08-23T19:04:14.108Z</time>
      </trkpt>
      <trkpt lat="42.78829" lon="0.23896">
        <ele>1099.33984375</ele>
        <time>2020-08-23T19:04:21.518Z</time>
      </trkpt>
      <trkpt lat="42.78828" lon="0.23931">
        <ele>1103.3696289062</ele>
        <time>2020-08-23T19:04:28.933Z</time>
      </trkpt>
      <trkpt lat="42.78797" lon="0.24014">
        <ele>1112.4890136719</ele>
        <time>2020-08-23T19:04:36.359Z</time>
      </trkpt>
      <trkpt lat="42.78738" lon="0.24099">
        <ele>1092.8450927734</ele>
        <time>2020-08-23T19:04:43.798Z</time>
      </trkpt>
      <trkpt lat="42.78735" lon="0.24128">
        <ele>1093.2149658203</ele>
        <time>2020-08-23T19:04:51.241Z</time>
      </trkpt>
      <trkpt lat="42.78747" lon="0.2425">
        <ele>1091.7781982422</ele>
        <time>2020-08-23T19:04:58.698Z</time>
      </trkpt>
      <trkpt lat="42.78741" lon="0.2431">
        <ele>1089.8472900391</ele>
        <time>2020-08-23T19:05:06.162Z</time>
      </trkpt>
      <trkpt lat="42.78703" lon="0.24455">
        <ele>1080.0498046875</ele>
        <time>2020-08-23T19:05:13.645Z</time>
      </trkpt>
      <trkpt lat="42.78698" lon="0.24482">
        <ele>1076.7307128906</ele>
        <time>2020-08-23T19:05:21.131Z</time>
      </trkpt>
      <trkpt lat="42.78706" lon="0.24535">
        <ele>1075.8354492188</ele>
        <time>2020-08-23T19:05:28.623Z</time>
      </trkpt>
      <trkpt lat="42.78706" lon="0.24535">
        <ele>1075.8381347656</ele>
        <time>2020-08-23T19:05:36.115Z</time>
      </trkpt>
      <trkpt lat="42.78708" lon="0.24621">
        <ele>1072.2457275391</ele>
        <time>2020-08-23T19:05:43.617Z</time>
      </trkpt>
      <trkpt lat="42.78706" lon="0.24678">
        <ele>1071.421875</ele>
        <time>2020-08-23T19:05:51.126Z</time>
      </trkpt>
      <trkpt lat="42.78705" lon="0.24691">
        <ele>1071.1772460938</ele>
        <time>2020-08-23T19:05:58.637Z</time>
      </trkpt>
      <trkpt lat="42.787" lon="0.24799">
        <ele>1072.1407470703</ele>
        <time>2020-08-23T19:06:06.160Z</time>
      </trkpt>
      <trkpt lat="42.78709" lon="0.24937">
        <ele>1067.4366455078</ele>
        <time>2020-08-23T19:06:13.700Z</time>
      </trkpt>
      <trkpt lat="42.78721" lon="0.24992">
        <ele>1067.2302246094</ele>
        <time>2020-08-23T19:06:21.246Z</time>
      </trkpt>
      <trkpt lat="42.78724" lon="0.25166">
        <ele>1072.6568603516</ele>
        <time>2020-08-23T19:06:28.813Z</time>
      </trkpt>
      <trkpt lat="42.78721" lon="0.2521">
        <ele>1073.6070556641</ele>
        <time>2020-08-23T19:06:36.385Z</time>
      </trkpt>
      <trkpt lat="42.78702" lon="0.25279">
        <ele>1072.0303955078</ele>
        <time>2020-08-23T19:06:43.966Z</time>
      </trkpt>
      <trkpt lat="42.78689" lon="0.25431">
        <ele>1057.0933837891</ele>
        <time>2020-08-23T19:06:51.565Z</time>
      </trkpt>
      <trkpt lat="42.78695" lon="0.25464">
        <ele>1057.2651367188</ele>
        <time>2020-08-23T19:06:59.168Z</time>
      </trkpt>
      <trkpt lat="42.78718" lon="0.2551">
        <ele>1050.8819580078</ele>
        <time>2020-08-23T19:07:06.777Z</time>
      </trkpt>
      <trkpt lat="42.78831" lon="0.25675">
        <ele>1043.6982421875</ele>
        <time>2020-08-23T19:07:14.413Z</time>
      </trkpt>
      <trkpt lat="42.78831" lon="0.25675">
        <ele>1043.6994628906</ele>
        <time>2020-08-23T19:07:22.049Z</time>
      </trkpt>
      <trkpt lat="42.78887" lon="0.25763">
        <ele>1040.912109375</ele>
        <time>2020-08-23T19:07:29.699Z</time>
      </trkpt>
      <trkpt lat="42.78914" lon="0.25822">
        <ele>1038.6070556641</ele>
        <time>2020-08-23T19:07:37.357Z</time>
      </trkpt>
      <trkpt lat="42.78914" lon="0.25822">
        <ele>1038.6077880859</ele>
        <time>2020-08-23T19:07:45.015Z</time>
      </trkpt>
      <trkpt lat="42.78977" lon="0.25971">
        <ele>1033.3294677734</ele>
        <time>2020-08-23T19:07:52.693Z</time>
      </trkpt>
      <trkpt lat="42.79026" lon="0.26042">
        <ele>1031.2517089844</ele>
        <time>2020-08-23T19:08:00.382Z</time>
      </trkpt>
      <trkpt lat="42.7907" lon="0.26093">
        <ele>1023.6510620117</ele>
        <time>2020-08-23T19:08:08.081Z</time>
      </trkpt>
      <trkpt lat="42.79194" lon="0.26212">
        <ele>1019.6245727539</ele>
        <time>2020-08-23T19:08:15.804Z</time>
      </trkpt>
      <trkpt lat="42.79254" lon="0.26348">
        <ele>1016.7902832031</ele>
        <time>2020-08-23T19:08:23.546Z</time>
      </trkpt>
      <trkpt lat="42.79254" lon="0.26348">
        <ele>1016.7899169922</ele>
        <time>2020-08-23T19:08:31.288Z</time>
      </trkpt>
      <trkpt lat="42.79272" lon="0.26399">
        <ele>1017.2204589844</ele>
        <time>2020-08-23T19:08:39.036Z</time>
      </trkpt>
      <trkpt lat="42.79324" lon="0.26472">
        <ele>1021.8899536133</ele>
        <time>2020-08-23T19:08:46.796Z</time>
      </trkpt>
      <trkpt lat="42.79386" lon="0.266">
        <ele>1026.6644287109</ele>
        <time>2020-08-23T19:08:54.574Z</time>
      </trkpt>
      <trkpt lat="42.79394" lon="0.26645">
        <ele>1030.3846435547</ele>
        <time>2020-08-23T19:09:02.358Z</time>
      </trkpt>
      <trkpt lat="42.79375" lon="0.26716">
        <ele>1044.7685546875</ele>
        <time>2020-08-23T19:09:10.151Z</time>
      </trkpt>
      <trkpt lat="42.79377" lon="0.26737">
        <ele>1043.1337890625</ele>
        <time>2020-08-23T19:09:17.946Z</time>
      </trkpt>
      <trkpt lat="42.79432" lon="0.26835">
        <ele>1027.7010498047</ele>
        <time>2020-08-23T19:09:25.756Z</time>
      </trkpt>
      <trkpt lat="42.79432" lon="0.26835">
        <ele>1027.697265625</ele>
        <time>2020-08-23T19:09:33.566Z</time>
      </trkpt>
      <trkpt lat="42.79449" lon="0.26871">
        <ele>1027.0831298828</ele>
        <time>2020-08-23T19:09:41.381Z</time>
      </trkpt>
      <trkpt lat="42.79449" lon="0.26871">
        <ele>1027.0794677734</ele>
        <time>2020-08-23T19:09:49.196Z</time>
      </trkpt>
      <trkpt lat="42.79502" lon="0.27">
        <ele>1016.6383056641</ele>
        <time>2020-08-23T19:09:57.028Z</time>
      </trkpt>
      <trkpt lat="42.79543" lon="0.27168">
        <ele>1023.766784668</ele>
        <time>2020-08-23T19:10:04.881Z</time>
      </trkpt>
      <trkpt lat="42.79592" lon="0.27258">
        <ele>1011.4417114258</ele>
        <time>2020-08-23T19:10:12.747Z</time>
      </trkpt>
      <trkpt lat="42.79609" lon="0.27306">
        <ele>1019.250793457</ele>
        <time>2020-08-23T19:10:20.620Z</time>
      </trkpt>
      <trkpt lat="42.79609" lon="0.27306">
        <ele>1019.2492675781</ele>
        <time>2020-08-23T19:10:28.493Z</time>
      </trkpt>
      <trkpt lat="42.79631" lon="0.27334">
        <ele>1024.0908203125</ele>
        <time>2020-08-23T19:10:36.370Z</time>
      </trkpt>
      <trkpt lat="42.79631" lon="0.27334">
        <ele>1024.0893554688</ele>
        <time>2020-08-23T19:10:44.247Z</time>
      </trkpt>
      <trkpt lat="42.79668" lon="0.27391">
        <ele>1038.1812744141</ele>
        <time>2020-08-23T19:10:52.133Z</time>
      </trkpt>
      <trkpt lat="42.79755" lon="0.27457">
        <ele>1014.2453613281</ele>
        <time>2020-08-23T19:11:00.035Z</time>
      </trkpt>
      <trkpt lat="42.79778" lon="0.27515">
        <ele>1023.2894287109</ele>
        <time>2020-08-23T19:11:07.945Z</time>
      </trkpt>
      <trkpt lat="42.79813" lon="0.27567">
        <ele>1010.9228515625</ele>
        <time>2020-08-23T19:11:15.863Z</time>
      </trkpt>
      <trkpt lat="42.79852" lon="0.27699">
        <ele>1017.9052734375</ele>
        <time>2020-08-23T19:11:23.798Z</time>
      </trkpt>
      <trkpt lat="42.79852" lon="0.27699">
        <ele>1017.8993530273</ele>
        <time>2020-08-23T19:11:31.733Z</time>
      </trkpt>
      <trkpt lat="42.79869" lon="0.27772">
        <ele>1016.3720092773</ele>
        <time>2020-08-23T19:11:39.677Z</time>
      </trkpt>
      <trkpt lat="42.79885" lon="0.27926">
        <ele>1010.364440918</ele>
        <time>2020-08-23T19:11:47.639Z</time>
      </trkpt>
      <trkpt lat="42.79896" lon="0.27982">
        <ele>998.00701904297</ele>
        <time>2020-08-23T19:11:55.608Z</time>
      </trkpt>
      <trkpt lat="42.79893" lon="0.28036">
        <ele>996.84747314453</ele>
        <time>2020-08-23T19:12:03.584Z</time>
      </trkpt>
      <trkpt lat="42.79875" lon="0.2809">
        <ele>1006.5488891602</ele>
        <time>2020-08-23T19:12:11.567Z</time>
      </trkpt>
      <trkpt lat="42.79873" lon="0.28119">
        <ele>1006.1627197266</ele>
        <time>2020-08-23T19:12:19.553Z</time>
      </trkpt>
      <trkpt lat="42.79887" lon="0.28214">
        <ele>997.65197753906</ele>
        <time>2020-08-23T19:12:27.550Z</time>
      </trkpt>
      <trkpt lat="42.79869" lon="0.28355">
        <ele>993.87200927734</ele>
        <time>2020-08-23T19:12:35.564Z</time>
      </trkpt>
      <trkpt lat="42.79869" lon="0.28422">
        <ele>989.00994873047</ele>
        <time>2020-08-23T19:12:43.586Z</time>
      </trkpt>
      <trkpt lat="42.79882" lon="0.28547">
        <ele>968.80548095703</ele>
        <time>2020-08-23T19:12:51.623Z</time>
      </trkpt>
      <trkpt lat="42.79876" lon="0.28617">
        <ele>962.14904785156</ele>
        <time>2020-08-23T19:12:59.668Z</time>
      </trkpt>
      <trkpt lat="42.79866" lon="0.28647">
        <ele>961.17272949219</ele>
        <time>2020-08-23T19:13:07.717Z</time>
      </trkpt>
      <trkpt lat="42.79811" lon="0.28713">
        <ele>956.88525390625</ele>
        <time>2020-08-23T19:13:15.778Z</time>
      </trkpt>
      <trkpt lat="42.79795" lon="0.28773">
        <ele>958.91333007812</ele>
        <time>2020-08-23T19:13:23.846Z</time>
      </trkpt>
      <trkpt lat="42.79802" lon="0.28811">
        <ele>955.50915527344</ele>
        <time>2020-08-23T19:13:31.919Z</time>
      </trkpt>
      <trkpt lat="42.79858" lon="0.28914">
        <ele>948.24249267578</ele>
        <time>2020-08-23T19:13:40.007Z</time>
      </trkpt>
      <trkpt lat="42.79913" lon="0.29061">
        <ele>935.82904052734</ele>
        <time>2020-08-23T19:13:48.115Z</time>
      </trkpt>
      <trkpt lat="42.7991" lon="0.29099">
        <ele>930.77014160156</ele>
        <time>2020-08-23T19:13:56.227Z</time>
      </trkpt>
      <trkpt lat="42.799" lon="0.29126">
        <ele>926.91271972656</ele>
        <time>2020-08-23T19:14:04.343Z</time>
      </trkpt>
      <trkpt lat="42.79822" lon="0.29189">
        <ele>918.44464111328</ele>
        <time>2020-08-23T19:14:12.473Z</time>
      </trkpt>
      <trkpt lat="42.79822" lon="0.29189">
        <ele>918.44354248047</ele>
        <time>2020-08-23T19:14:20.603Z</time>
      </trkpt>
      <trkpt lat="42.79796" lon="0.29219">
        <ele>921.59588623047</ele>
        <time>2020-08-23T19:14:28.739Z</time>
      </trkpt>
      <trkpt lat="42.79778" lon="0.29269">
        <ele>925.58630371094</ele>
        <time>2020-08-23T19:14:36.881Z</time>
      </trkpt>
      <trkpt lat="42.79782" lon="0.2932">
        <ele>925.57037353516</ele>
        <time>2020-08-23T19:14:45.029Z</time>
      </trkpt>
      <trkpt lat="42.79793" lon="0.29358">
        <ele>924.60772705078</ele>
        <time>2020-08-23T19:14:53.182Z</time>
      </trkpt>
      <trkpt lat="42.79845" lon="0.29432">
        <ele>922.42645263672</ele>
        <time>2020-08-23T19:15:01.347Z</time>
      </trkpt>
      <trkpt lat="42.79845" lon="0.29432">
        <ele>922.42401123047</ele>
        <time>2020-08-23T19:15:09.512Z</time>
      </trkpt>
      <trkpt lat="42.7986" lon="0.29459">
        <ele>922.92602539062</ele>
        <time>2020-08-23T19:15:17.681Z</time>
      </trkpt>
      <trkpt lat="42.80022" lon="0.29786">
        <ele>925.20233154297</ele>
        <time>2020-08-23T19:15:25.897Z</time>
      </trkpt>
      <trkpt lat="42.80044" lon="0.29813">
        <ele>926.81805419922</ele>
        <time>2020-08-23T19:15:34.117Z</time>
      </trkpt>
      <trkpt lat="42.80119" lon="0.29878">
        <ele>921.87530517578</ele>
        <time>2020-08-23T19:15:42.351Z</time>
      </trkpt>
      <trkpt lat="42.80119" lon="0.29878">
        <ele>921.87219238281</ele>
        <time>2020-08-23T19:15:50.585Z</time>
      </trkpt>
      <trkpt lat="42.80295" lon="0.30153">
        <ele>927.81762695312</ele>
        <time>2020-08-23T19:15:58.862Z</time>
      </trkpt>
      <trkpt lat="42.80342" lon="0.30242">
        <ele>925.90637207031</ele>
        <time>2020-08-23T19:16:07.152Z</time>
      </trkpt>
      <trkpt lat="42.80471" lon="0.30589">
        <ele>908.15979003906</ele>
        <time>2020-08-23T19:16:15.488Z</time>
      </trkpt>
      <trkpt lat="42.80533" lon="0.30695">
        <ele>882.109375</ele>
        <time>2020-08-23T19:16:23.840Z</time>
      </trkpt>
      <trkpt lat="42.80586" lon="0.30869">
        <ele>889.96832275391</ele>
        <time>2020-08-23T19:16:32.214Z</time>
      </trkpt>
      <trkpt lat="42.80586" lon="0.30869">
        <ele>889.96624755859</ele>
        <time>2020-08-23T19:16:40.588Z</time>
      </trkpt>
      <trkpt lat="42.80606" lon="0.30913">
        <ele>896.97039794922</ele>
        <time>2020-08-23T19:16:48.968Z</time>
      </trkpt>
      <trkpt lat="42.80638" lon="0.30957">
        <ele>902.47979736328</ele>
        <time>2020-08-23T19:16:57.356Z</time>
      </trkpt>
      <trkpt lat="42.80663" lon="0.30973">
        <ele>900.66583251953</ele>
        <time>2020-08-23T19:17:05.748Z</time>
      </trkpt>
      <trkpt lat="42.80702" lon="0.30983">
        <ele>894.24493408203</ele>
        <time>2020-08-23T19:17:14.146Z</time>
      </trkpt>
      <trkpt lat="42.80702" lon="0.30983">
        <ele>894.24322509766</ele>
        <time>2020-08-23T19:17:22.544Z</time>
      </trkpt>
      <trkpt lat="42.80757" lon="0.30968">
        <ele>878.6171875</ele>
        <time>2020-08-23T19:17:30.951Z</time>
      </trkpt>
      <trkpt lat="42.80799" lon="0.3101">
        <ele>879.62121582031</ele>
        <time>2020-08-23T19:17:39.367Z</time>
      </trkpt>
      <trkpt lat="42.80799" lon="0.3101">
        <ele>879.61907958984</ele>
        <time>2020-08-23T19:17:47.783Z</time>
      </trkpt>
      <trkpt lat="42.80841" lon="0.31073">
        <ele>882.86273193359</ele>
        <time>2020-08-23T19:17:56.209Z</time>
      </trkpt>
      <trkpt lat="42.80895" lon="0.31122">
        <ele>877.14733886719</ele>
        <time>2020-08-23T19:18:04.645Z</time>
      </trkpt>
      <trkpt lat="42.80921" lon="0.31241">
        <ele>876.49798583984</ele>
        <time>2020-08-23T19:18:13.096Z</time>
      </trkpt>
      <trkpt lat="42.80933" lon="0.31269">
        <ele>878.53167724609</ele>
        <time>2020-08-23T19:18:21.551Z</time>
      </trkpt>
      <trkpt lat="42.80943" lon="0.31281">
        <ele>878.13262939453</ele>
        <time>2020-08-23T19:18:30.008Z</time>
      </trkpt>
      <trkpt lat="42.80993" lon="0.31295">
        <ele>866.89495849609</ele>
        <time>2020-08-23T19:18:38.473Z</time>
      </trkpt>
      <trkpt lat="42.81041" lon="0.31338">
        <ele>862.24090576172</ele>
        <time>2020-08-23T19:18:46.947Z</time>
      </trkpt>
      <trkpt lat="42.81104" lon="0.31437">
        <ele>862.46545410156</ele>
        <time>2020-08-23T19:18:55.436Z</time>
      </trkpt>
      <trkpt lat="42.81116" lon="0.31454">
        <ele>864.47314453125</ele>
        <time>2020-08-23T19:19:03.928Z</time>
      </trkpt>
      <trkpt lat="42.81137" lon="0.31523">
        <ele>860.65454101562</ele>
        <time>2020-08-23T19:19:12.429Z</time>
      </trkpt>
      <trkpt lat="42.81185" lon="0.31606">
        <ele>851.15063476562</ele>
        <time>2020-08-23T19:19:20.942Z</time>
      </trkpt>
      <trkpt lat="42.81197" lon="0.31647">
        <ele>848.64459228516</ele>
        <time>2020-08-23T19:19:29.461Z</time>
      </trkpt>
      <trkpt lat="42.81197" lon="0.31647">
        <ele>848.64312744141</ele>
        <time>2020-08-23T19:19:37.980Z</time>
      </trkpt>
      <trkpt lat="42.81223" lon="0.31718">
        <ele>852.89831542969</ele>
        <time>2020-08-23T19:19:46.508Z</time>
      </trkpt>
      <trkpt lat="42.81244" lon="0.31748">
        <ele>849.55151367188</ele>
        <time>2020-08-23T19:19:55.041Z</time>
      </trkpt>
      <trkpt lat="42.81244" lon="0.31748">
        <ele>849.54809570312</ele>
        <time>2020-08-23T19:20:03.574Z</time>
      </trkpt>
      <trkpt lat="42.81311" lon="0.31801">
        <ele>839.24963378906</ele>
        <time>2020-08-23T19:20:12.119Z</time>
      </trkpt>
      <trkpt lat="42.81315" lon="0.31817">
        <ele>837.92376708984</ele>
        <time>2020-08-23T19:20:20.666Z</time>
      </trkpt>
      <trkpt lat="42.81323" lon="0.3182">
        <ele>835.91345214844</ele>
        <time>2020-08-23T19:20:29.214Z</time>
      </trkpt>
      <trkpt lat="42.81328" lon="0.31813">
        <ele>834.57470703125</ele>
        <time>2020-08-23T19:20:37.764Z</time>
      </trkpt>
      <trkpt lat="42.81329" lon="0.31801">
        <ele>834.43536376953</ele>
        <time>2020-08-23T19:20:46.315Z</time>
      </trkpt>
      <trkpt lat="42.81341" lon="0.31798">
        <ele>831.85583496094</ele>
        <time>2020-08-23T19:20:54.868Z</time>
      </trkpt>
      <trkpt lat="42.8144" lon="0.31849">
        <ele>826.59887695312</ele>
        <time>2020-08-23T19:21:03.438Z</time>
      </trkpt>
      <trkpt lat="42.8144" lon="0.31849">
        <ele>826.59918212891</ele>
        <time>2020-08-23T19:21:12.008Z</time>
      </trkpt>
      <trkpt lat="42.8145" lon="0.31851">
        <ele>826.26422119141</ele>
        <time>2020-08-23T19:21:20.580Z</time>
      </trkpt>
      <trkpt lat="42.81462" lon="0.31855">
        <ele>825.9423828125</ele>
        <time>2020-08-23T19:21:29.153Z</time>
      </trkpt>
      <trkpt lat="42.81537" lon="0.31909">
        <ele>825.59014892578</ele>
        <time>2020-08-23T19:21:37.740Z</time>
      </trkpt>
      <trkpt lat="42.81546" lon="0.31914">
        <ele>825.64141845703</ele>
        <time>2020-08-23T19:21:46.329Z</time>
      </trkpt>
      <trkpt lat="42.81626" lon="0.31973">
        <ele>824.96051025391</ele>
        <time>2020-08-23T19:21:54.932Z</time>
      </trkpt>
      <trkpt lat="42.81633" lon="0.32">
        <ele>825.21844482422</ele>
        <time>2020-08-23T19:22:03.539Z</time>
      </trkpt>
      <trkpt lat="42.81642" lon="0.32019">
        <ele>825.04296875</ele>
        <time>2020-08-23T19:22:12.148Z</time>
      </trkpt>
      <trkpt lat="42.8166" lon="0.32043">
        <ele>824.34783935547</ele>
        <time>2020-08-23T19:22:20.761Z</time>
      </trkpt>
      <trkpt lat="42.8166" lon="0.32043">
        <ele>824.34802246094</ele>
        <time>2020-08-23T19:22:29.374Z</time>
      </trkpt>
      <trkpt lat="42.81737" lon="0.3214">
        <ele>821.10144042969</ele>
        <time>2020-08-23T19:22:38.004Z</time>
      </trkpt>
      <trkpt lat="42.81749" lon="0.32144">
        <ele>820.92114257812</ele>
        <time>2020-08-23T19:22:46.636Z</time>
      </trkpt>
      <trkpt lat="42.81749" lon="0.32144">
        <ele>820.92126464844</ele>
        <time>2020-08-23T19:22:55.268Z</time>
      </trkpt>
      <trkpt lat="42.81769" lon="0.3215">
        <ele>820.10516357422</ele>
        <time>2020-08-23T19:23:03.903Z</time>
      </trkpt>
      <trkpt lat="42.81804" lon="0.3218">
        <ele>818.04553222656</ele>
        <time>2020-08-23T19:23:12.545Z</time>
      </trkpt>
      <trkpt lat="42.81819" lon="0.32197">
        <ele>817.11871337891</ele>
        <time>2020-08-23T19:23:21.190Z</time>
      </trkpt>
      <trkpt lat="42.81853" lon="0.32248">
        <ele>816.06976318359</ele>
        <time>2020-08-23T19:23:29.843Z</time>
      </trkpt>
      <trkpt lat="42.81853" lon="0.32248">
        <ele>816.06994628906</ele>
        <time>2020-08-23T19:23:38.496Z</time>
      </trkpt>
      <trkpt lat="42.81858" lon="0.32253">
        <ele>816.00537109375</ele>
        <time>2020-08-23T19:23:47.150Z</time>
      </trkpt>
      <trkpt lat="42.81882" lon="0.32255">
        <ele>815.52136230469</ele>
        <time>2020-08-23T19:23:55.808Z</time>
      </trkpt>
      <trkpt lat="42.81932" lon="0.32278">
        <ele>815.58581542969</ele>
        <time>2020-08-23T19:24:04.474Z</time>
      </trkpt>
      <trkpt lat="42.81932" lon="0.32278">
        <ele>815.58575439453</ele>
        <time>2020-08-23T19:24:13.140Z</time>
      </trkpt>
      <trkpt lat="42.8196" lon="0.32272">
        <ele>816.04913330078</ele>
        <time>2020-08-23T19:24:21.811Z</time>
      </trkpt>
      <trkpt lat="42.81986" lon="0.32257">
        <ele>816.71862792969</ele>
        <time>2020-08-23T19:24:30.486Z</time>
      </trkpt>
      <trkpt lat="42.81999" lon="0.32268">
        <ele>816.61553955078</ele>
        <time>2020-08-23T19:24:39.164Z</time>
      </trkpt>
      <trkpt lat="42.82006" lon="0.32253">
        <ele>817.0283203125</ele>
        <time>2020-08-23T19:24:47.844Z</time>
      </trkpt>
      <trkpt lat="42.82095" lon="0.32251">
        <ele>812.76611328125</ele>
        <time>2020-08-23T19:24:56.538Z</time>
      </trkpt>
      <trkpt lat="42.82095" lon="0.32251">
        <ele>812.76641845703</ele>
        <time>2020-08-23T19:25:05.232Z</time>
      </trkpt>
      <trkpt lat="42.82133" lon="0.32263">
        <ele>811.41455078125</ele>
        <time>2020-08-23T19:25:13.932Z</time>
      </trkpt>
      <trkpt lat="42.82153" lon="0.32276">
        <ele>810.61865234375</ele>
        <time>2020-08-23T19:25:22.636Z</time>
      </trkpt>
      <trkpt lat="42.82153" lon="0.32276">
        <ele>810.61920166016</ele>
        <time>2020-08-23T19:25:31.340Z</time>
      </trkpt>
      <trkpt lat="42.82157" lon="0.32278">
        <ele>810.41271972656</ele>
        <time>2020-08-23T19:25:40.045Z</time>
      </trkpt>
      <trkpt lat="42.82157" lon="0.32278">
        <ele>810.41320800781</ele>
        <time>2020-08-23T19:25:48.750Z</time>
      </trkpt>
      <trkpt lat="42.82162" lon="0.3228">
        <ele>810.20672607422</ele>
        <time>2020-08-23T19:25:57.456Z</time>
      </trkpt>
      <trkpt lat="42.82239" lon="0.32325">
        <ele>807.59143066406</ele>
        <time>2020-08-23T19:26:06.175Z</time>
      </trkpt>
      <trkpt lat="42.82239" lon="0.32325">
        <ele>807.59167480469</ele>
        <time>2020-08-23T19:26:14.894Z</time>
      </trkpt>
      <trkpt lat="42.82283" lon="0.32353">
        <ele>806.66937255859</ele>
        <time>2020-08-23T19:26:23.621Z</time>
      </trkpt>
      <trkpt lat="42.82286" lon="0.32355">
        <ele>806.63073730469</ele>
        <time>2020-08-23T19:26:32.348Z</time>
      </trkpt>
      <trkpt lat="42.82313" lon="0.32374">
        <ele>806.30902099609</ele>
        <time>2020-08-23T19:26:41.080Z</time>
      </trkpt>
      <trkpt lat="42.82308" lon="0.32391">
        <ele>806.50561523438</ele>
        <time>2020-08-23T19:26:49.814Z</time>
      </trkpt>
      <trkpt lat="42.82314" lon="0.32408">
        <ele>806.62145996094</ele>
        <time>2020-08-23T19:26:58.551Z</time>
      </trkpt>
      <trkpt lat="42.82314" lon="0.32408">
        <ele>806.62139892578</ele>
        <time>2020-08-23T19:27:07.288Z</time>
      </trkpt>
      <trkpt lat="42.82325" lon="0.32412">
        <ele>806.54425048828</ele>
        <time>2020-08-23T19:27:16.026Z</time>
      </trkpt>
      <trkpt lat="42.82334" lon="0.32406">
        <ele>806.36395263672</ele>
        <time>2020-08-23T19:27:24.766Z</time>
      </trkpt>
      <trkpt lat="42.8234" lon="0.32385">
        <ele>806.01635742188</ele>
        <time>2020-08-23T19:27:33.509Z</time>
      </trkpt>
      <trkpt lat="42.82332" lon="0.32371">
        <ele>806.11236572266</ele>
        <time>2020-08-23T19:27:42.254Z</time>
      </trkpt>
      <trkpt lat="42.82358" lon="0.32311">
        <ele>806.6015625</ele>
        <time>2020-08-23T19:27:51.007Z</time>
      </trkpt>
      <trkpt lat="42.8238" lon="0.32265">
        <ele>805.73742675781</ele>
        <time>2020-08-23T19:27:59.766Z</time>
      </trkpt>
      <trkpt lat="42.8238" lon="0.32265">
        <ele>805.73748779297</ele>
        <time>2020-08-23T19:28:08.525Z</time>
      </trkpt>
      <trkpt lat="42.82501" lon="0.32017">
        <ele>807.68853759766</ele>
        <time>2020-08-23T19:28:17.319Z</time>
      </trkpt>
      <trkpt lat="42.82546" lon="0.31891">
        <ele>813.81604003906</ele>
        <time>2020-08-23T19:28:26.130Z</time>
      </trkpt>
      <trkpt lat="42.82555" lon="0.31864">
        <ele>815.404296875</ele>
        <time>2020-08-23T19:28:34.944Z</time>
      </trkpt>
      <trkpt lat="42.82555" lon="0.31864">
        <ele>815.40417480469</ele>
        <time>2020-08-23T19:28:43.758Z</time>
      </trkpt>
      <trkpt lat="42.82559" lon="0.31854">
        <ele>815.90631103516</ele>
        <time>2020-08-23T19:28:52.574Z</time>
      </trkpt>
      <trkpt lat="42.82559" lon="0.31854">
        <ele>815.90625</ele>
        <time>2020-08-23T19:29:01.390Z</time>
      </trkpt>
      <trkpt lat="42.82573" lon="0.31812">
        <ele>818.70666503906</ele>
        <time>2020-08-23T19:29:10.211Z</time>
      </trkpt>
      <trkpt lat="42.8259" lon="0.31814">
        <ele>818.94140625</ele>
        <time>2020-08-23T19:29:19.035Z</time>
      </trkpt>
      <trkpt lat="42.82594" lon="0.31799">
        <ele>819.85046386719</ele>
        <time>2020-08-23T19:29:27.861Z</time>
      </trkpt>
      <trkpt lat="42.82616" lon="0.31791">
        <ele>820.55004882812</ele>
        <time>2020-08-23T19:29:36.690Z</time>
      </trkpt>
      <trkpt lat="42.82671" lon="0.31797">
        <ele>820.98321533203</ele>
        <time>2020-08-23T19:29:45.528Z</time>
      </trkpt>
      <trkpt lat="42.82711" lon="0.31816">
        <ele>824.04241943359</ele>
        <time>2020-08-23T19:29:54.373Z</time>
      </trkpt>
      <trkpt lat="42.82742" lon="0.31839">
        <ele>825.54730224609</ele>
        <time>2020-08-23T19:30:03.224Z</time>
      </trkpt>
      <trkpt lat="42.82826" lon="0.31871">
        <ele>832.50396728516</ele>
        <time>2020-08-23T19:30:12.089Z</time>
      </trkpt>
      <trkpt lat="42.82826" lon="0.31871">
        <ele>832.50506591797</ele>
        <time>2020-08-23T19:30:20.954Z</time>
      </trkpt>
      <trkpt lat="42.82867" lon="0.31883">
        <ele>836.83557128906</ele>
        <time>2020-08-23T19:30:29.825Z</time>
      </trkpt>
      <trkpt lat="42.82867" lon="0.31883">
        <ele>836.83697509766</ele>
        <time>2020-08-23T19:30:38.696Z</time>
      </trkpt>
      <trkpt lat="42.82935" lon="0.31909">
        <ele>841.59783935547</ele>
        <time>2020-08-23T19:30:47.579Z</time>
      </trkpt>
      <trkpt lat="42.83063" lon="0.32027">
        <ele>849.84051513672</ele>
        <time>2020-08-23T19:30:56.486Z</time>
      </trkpt>
      <trkpt lat="42.83162" lon="0.3211">
        <ele>853.84497070312</ele>
        <time>2020-08-23T19:31:05.412Z</time>
      </trkpt>
      <trkpt lat="42.83191" lon="0.32118">
        <ele>861.46905517578</ele>
        <time>2020-08-23T19:31:14.343Z</time>
      </trkpt>
      <trkpt lat="42.83227" lon="0.32156">
        <ele>860.98376464844</ele>
        <time>2020-08-23T19:31:23.281Z</time>
      </trkpt>
      <trkpt lat="42.8331" lon="0.32187">
        <ele>880.95013427734</ele>
        <time>2020-08-23T19:31:32.233Z</time>
      </trkpt>
      <trkpt lat="42.8331" lon="0.32187">
        <ele>880.953125</ele>
        <time>2020-08-23T19:31:41.185Z</time>
      </trkpt>
      <trkpt lat="42.83314" lon="0.3219">
        <ele>881.3779296875</ele>
        <time>2020-08-23T19:31:50.138Z</time>
      </trkpt>
      <trkpt lat="42.83354" lon="0.32202">
        <ele>895.42541503906</ele>
        <time>2020-08-23T19:31:59.097Z</time>
      </trkpt>
      <trkpt lat="42.83379" lon="0.32262">
        <ele>883.76605224609</ele>
        <time>2020-08-23T19:32:08.064Z</time>
      </trkpt>
      <trkpt lat="42.83459" lon="0.32322">
        <ele>901.01220703125</ele>
        <time>2020-08-23T19:32:17.046Z</time>
      </trkpt>
      <trkpt lat="42.83569" lon="0.32467">
        <ele>910.08129882812</ele>
        <time>2020-08-23T19:32:26.052Z</time>
      </trkpt>
      <trkpt lat="42.8361" lon="0.32501">
        <ele>918.87127685547</ele>
        <time>2020-08-23T19:32:35.066Z</time>
      </trkpt>
      <trkpt lat="42.83693" lon="0.3259">
        <ele>928.28662109375</ele>
        <time>2020-08-23T19:32:44.097Z</time>
      </trkpt>
      <trkpt lat="42.83707" lon="0.32589">
        <ele>936.11749267578</ele>
        <time>2020-08-23T19:32:53.130Z</time>
      </trkpt>
      <trkpt lat="42.83707" lon="0.32574">
        <ele>943.15124511719</ele>
        <time>2020-08-23T19:33:02.165Z</time>
      </trkpt>
      <trkpt lat="42.83665" lon="0.32529">
        <ele>939.21630859375</ele>
        <time>2020-08-23T19:33:11.208Z</time>
      </trkpt>
      <trkpt lat="42.83638" lon="0.32467">
        <ele>949.2568359375</ele>
        <time>2020-08-23T19:33:20.260Z</time>
      </trkpt>
      <trkpt lat="42.83604" lon="0.32416">
        <ele>948.69268798828</ele>
        <time>2020-08-23T19:33:29.320Z</time>
      </trkpt>
      <trkpt lat="42.83571" lon="0.32342">
        <ele>959.15447998047</ele>
        <time>2020-08-23T19:33:38.390Z</time>
      </trkpt>
      <trkpt lat="42.83538" lon="0.32287">
        <ele>962.80334472656</ele>
        <time>2020-08-23T19:33:47.468Z</time>
      </trkpt>
      <trkpt lat="42.83486" lon="0.3224">
        <ele>956.75329589844</ele>
        <time>2020-08-23T19:33:56.557Z</time>
      </trkpt>
      <trkpt lat="42.83481" lon="0.32208">
        <ele>969.48791503906</ele>
        <time>2020-08-23T19:34:05.649Z</time>
      </trkpt>
      <trkpt lat="42.83518" lon="0.32136">
        <ele>1000.3032226562</ele>
        <time>2020-08-23T19:34:14.752Z</time>
      </trkpt>
      <trkpt lat="42.83516" lon="0.32118">
        <ele>1004.5219116211</ele>
        <time>2020-08-23T19:34:23.857Z</time>
      </trkpt>
      <trkpt lat="42.83488" lon="0.32061">
        <ele>1010.9688110352</ele>
        <time>2020-08-23T19:34:32.970Z</time>
      </trkpt>
      <trkpt lat="42.83474" lon="0.32045">
        <ele>1012.0342407227</ele>
        <time>2020-08-23T19:34:42.086Z</time>
      </trkpt>
      <trkpt lat="42.8342" lon="0.32058">
        <ele>984.59429931641</ele>
        <time>2020-08-23T19:34:51.211Z</time>
      </trkpt>
      <trkpt lat="42.83408" lon="0.32046">
        <ele>985.76513671875</ele>
        <time>2020-08-23T19:35:00.338Z</time>
      </trkpt>
      <trkpt lat="42.83397" lon="0.32001">
        <ele>1006.1697998047</ele>
        <time>2020-08-23T19:35:09.470Z</time>
      </trkpt>
      <trkpt lat="42.83361" lon="0.31987">
        <ele>998.50885009766</ele>
        <time>2020-08-23T19:35:18.608Z</time>
      </trkpt>
      <trkpt lat="42.83361" lon="0.31987">
        <ele>998.51239013672</ele>
        <time>2020-08-23T19:35:27.746Z</time>
      </trkpt>
      <trkpt lat="42.83313" lon="0.31932">
        <ele>1006.6926879883</ele>
        <time>2020-08-23T19:35:36.894Z</time>
      </trkpt>
      <trkpt lat="42.833" lon="0.31898">
        <ele>1019.8225708008</ele>
        <time>2020-08-23T19:35:46.047Z</time>
      </trkpt>
      <trkpt lat="42.83275" lon="0.31871">
        <ele>1021.5404663086</ele>
        <time>2020-08-23T19:35:55.205Z</time>
      </trkpt>
      <trkpt lat="42.83257" lon="0.31837">
        <ele>1028.1955566406</ele>
        <time>2020-08-23T19:36:04.368Z</time>
      </trkpt>
      <trkpt lat="42.83217" lon="0.31795">
        <ele>1028.5078125</ele>
        <time>2020-08-23T19:36:13.539Z</time>
      </trkpt>
      <trkpt lat="42.83195" lon="0.3176">
        <ele>1039.0889892578</ele>
        <time>2020-08-23T19:36:22.716Z</time>
      </trkpt>
      <trkpt lat="42.83165" lon="0.31732">
        <ele>1039.9674072266</ele>
        <time>2020-08-23T19:36:31.898Z</time>
      </trkpt>
      <trkpt lat="42.83122" lon="0.31645">
        <ele>1049.2685546875</ele>
        <time>2020-08-23T19:36:41.093Z</time>
      </trkpt>
      <trkpt lat="42.83122" lon="0.31597">
        <ele>1063.2696533203</ele>
        <time>2020-08-23T19:36:50.293Z</time>
      </trkpt>
      <trkpt lat="42.83112" lon="0.31556">
        <ele>1063.9544677734</ele>
        <time>2020-08-23T19:36:59.498Z</time>
      </trkpt>
      <trkpt lat="42.83113" lon="0.31534">
        <ele>1066.6752929688</ele>
        <time>2020-08-23T19:37:08.706Z</time>
      </trkpt>
      <trkpt lat="42.83164" lon="0.3144">
        <ele>1102.5952148438</ele>
        <time>2020-08-23T19:37:17.928Z</time>
      </trkpt>
      <trkpt lat="42.83165" lon="0.31414">
        <ele>1104.5003662109</ele>
        <time>2020-08-23T19:37:27.153Z</time>
      </trkpt>
      <trkpt lat="42.83111" lon="0.31371">
        <ele>1093.4323730469</ele>
        <time>2020-08-23T19:37:36.388Z</time>
      </trkpt>
      <trkpt lat="42.83051" lon="0.31342">
        <ele>1067.6075439453</ele>
        <time>2020-08-23T19:37:45.633Z</time>
      </trkpt>
      <trkpt lat="42.83043" lon="0.31326">
        <ele>1068.5729980469</ele>
        <time>2020-08-23T19:37:54.880Z</time>
      </trkpt>
      <trkpt lat="42.83045" lon="0.31272">
        <ele>1092.4171142578</ele>
        <time>2020-08-23T19:38:04.134Z</time>
      </trkpt>
      <trkpt lat="42.83062" lon="0.31214">
        <ele>1117.1430664062</ele>
        <time>2020-08-23T19:38:13.395Z</time>
      </trkpt>
      <trkpt lat="42.83039" lon="0.31137">
        <ele>1109.8914794922</ele>
        <time>2020-08-23T19:38:22.666Z</time>
      </trkpt>
      <trkpt lat="42.83051" lon="0.31098">
        <ele>1127.0291748047</ele>
        <time>2020-08-23T19:38:31.942Z</time>
      </trkpt>
      <trkpt lat="42.83056" lon="0.31056">
        <ele>1130.4025878906</ele>
        <time>2020-08-23T19:38:41.223Z</time>
      </trkpt>
      <trkpt lat="42.83044" lon="0.30978">
        <ele>1125.0657958984</ele>
        <time>2020-08-23T19:38:50.513Z</time>
      </trkpt>
      <trkpt lat="42.83052" lon="0.30939">
        <ele>1132.1019287109</ele>
        <time>2020-08-23T19:38:59.808Z</time>
      </trkpt>
      <trkpt lat="42.83077" lon="0.30907">
        <ele>1146.6141357422</ele>
        <time>2020-08-23T19:39:09.108Z</time>
      </trkpt>
      <trkpt lat="42.83081" lon="0.30895">
        <ele>1148.8153076172</ele>
        <time>2020-08-23T19:39:18.410Z</time>
      </trkpt>
      <trkpt lat="42.83058" lon="0.30774">
        <ele>1148.8291015625</ele>
        <time>2020-08-23T19:39:27.727Z</time>
      </trkpt>
      <trkpt lat="42.83061" lon="0.30673">
        <ele>1157.0891113281</ele>
        <time>2020-08-23T19:39:37.056Z</time>
      </trkpt>
      <trkpt lat="42.83072" lon="0.30657">
        <ele>1165.4561767578</ele>
        <time>2020-08-23T19:39:46.387Z</time>
      </trkpt>
      <trkpt lat="42.83072" lon="0.30657">
        <ele>1165.4624023438</ele>
        <time>2020-08-23T19:39:55.718Z</time>
      </trkpt>
      <trkpt lat="42.83079" lon="0.30666">
        <ele>1170.8111572266</ele>
        <time>2020-08-23T19:40:05.051Z</time>
      </trkpt>
      <trkpt lat="42.83077" lon="0.30765">
        <ele>1163.0987548828</ele>
        <time>2020-08-23T19:40:14.395Z</time>
      </trkpt>
      <trkpt lat="42.83109" lon="0.30836">
        <ele>1171.8972167969</ele>
        <time>2020-08-23T19:40:23.749Z</time>
      </trkpt>
      <trkpt lat="42.83135" lon="0.30874">
        <ele>1178.8483886719</ele>
        <time>2020-08-23T19:40:33.109Z</time>
      </trkpt>
      <trkpt lat="42.83144" lon="0.30913">
        <ele>1186.1722412109</ele>
        <time>2020-08-23T19:40:42.474Z</time>
      </trkpt>
      <trkpt lat="42.83153" lon="0.30919">
        <ele>1191.4243164062</ele>
        <time>2020-08-23T19:40:51.841Z</time>
      </trkpt>
      <trkpt lat="42.83161" lon="0.30904">
        <ele>1194.0373535156</ele>
        <time>2020-08-23T19:41:01.210Z</time>
      </trkpt>
      <trkpt lat="42.83127" lon="0.3083">
        <ele>1182.5933837891</ele>
        <time>2020-08-23T19:41:10.589Z</time>
      </trkpt>
      <trkpt lat="42.83114" lon="0.30775">
        <ele>1183.5867919922</ele>
        <time>2020-08-23T19:41:19.975Z</time>
      </trkpt>
      <trkpt lat="42.83133" lon="0.30674">
        <ele>1203.1765136719</ele>
        <time>2020-08-23T19:41:29.373Z</time>
      </trkpt>
      <trkpt lat="42.83139" lon="0.30656">
        <ele>1206.4332275391</ele>
        <time>2020-08-23T19:41:38.774Z</time>
      </trkpt>
      <trkpt lat="42.83153" lon="0.30599">
        <ele>1213.2113037109</ele>
        <time>2020-08-23T19:41:48.182Z</time>
      </trkpt>
      <trkpt lat="42.83159" lon="0.30542">
        <ele>1215.4263916016</ele>
        <time>2020-08-23T19:41:57.596Z</time>
      </trkpt>
      <trkpt lat="42.83141" lon="0.30484">
        <ele>1214.4368896484</ele>
        <time>2020-08-23T19:42:07.018Z</time>
      </trkpt>
      <trkpt lat="42.83137" lon="0.30427">
        <ele>1217.62109375</ele>
        <time>2020-08-23T19:42:16.447Z</time>
      </trkpt>
      <trkpt lat="42.83144" lon="0.30379">
        <ele>1227.6904296875</ele>
        <time>2020-08-23T19:42:25.881Z</time>
      </trkpt>
      <trkpt lat="42.8317" lon="0.30268">
        <ele>1242.1922607422</ele>
        <time>2020-08-23T19:42:35.329Z</time>
      </trkpt>
      <trkpt lat="42.83143" lon="0.30235">
        <ele>1233.0013427734</ele>
        <time>2020-08-23T19:42:44.783Z</time>
      </trkpt>
      <trkpt lat="42.8312" lon="0.30158">
        <ele>1236.5076904297</ele>
        <time>2020-08-23T19:42:54.247Z</time>
      </trkpt>
      <trkpt lat="42.83099" lon="0.30098">
        <ele>1239.3797607422</ele>
        <time>2020-08-23T19:43:03.718Z</time>
      </trkpt>
      <trkpt lat="42.8309" lon="0.29995">
        <ele>1252.2258300781</ele>
        <time>2020-08-23T19:43:13.202Z</time>
      </trkpt>
      <trkpt lat="42.8309" lon="0.29995">
        <ele>1252.2303466797</ele>
        <time>2020-08-23T19:43:22.686Z</time>
      </trkpt>
      <trkpt lat="42.83079" lon="0.29895">
        <ele>1258.8470458984</ele>
        <time>2020-08-23T19:43:32.182Z</time>
      </trkpt>
      <trkpt lat="42.8308" lon="0.29801">
        <ele>1269.9470214844</ele>
        <time>2020-08-23T19:43:41.689Z</time>
      </trkpt>
      <trkpt lat="42.83084" lon="0.29714">
        <ele>1274.6329345703</ele>
        <time>2020-08-23T19:43:51.206Z</time>
      </trkpt>
      <trkpt lat="42.83097" lon="0.29666">
        <ele>1286.0294189453</ele>
        <time>2020-08-23T19:44:00.729Z</time>
      </trkpt>
      <trkpt lat="42.83093" lon="0.29593">
        <ele>1289.8092041016</ele>
        <time>2020-08-23T19:44:10.260Z</time>
      </trkpt>
      <trkpt lat="42.83093" lon="0.295">
        <ele>1303.1125488281</ele>
        <time>2020-08-23T19:44:19.802Z</time>
      </trkpt>
      <trkpt lat="42.83022" lon="0.29464">
        <ele>1295.1467285156</ele>
        <time>2020-08-23T19:44:29.357Z</time>
      </trkpt>
      <trkpt lat="42.82995" lon="0.29444">
        <ele>1292.8559570312</ele>
        <time>2020-08-23T19:44:38.916Z</time>
      </trkpt>
      <trkpt lat="42.82982" lon="0.29414">
        <ele>1295.5848388672</ele>
        <time>2020-08-23T19:44:48.480Z</time>
      </trkpt>
      <trkpt lat="42.82982" lon="0.29414">
        <ele>1295.5885009766</ele>
        <time>2020-08-23T19:44:58.044Z</time>
      </trkpt>
      <trkpt lat="42.82915" lon="0.29254">
        <ele>1310.2691650391</ele>
        <time>2020-08-23T19:45:07.629Z</time>
      </trkpt>
      <trkpt lat="42.82907" lon="0.29185">
        <ele>1322.9388427734</ele>
        <time>2020-08-23T19:45:17.223Z</time>
      </trkpt>
      <trkpt lat="42.82907" lon="0.29185">
        <ele>1322.9447021484</ele>
        <time>2020-08-23T19:45:26.817Z</time>
      </trkpt>
      <trkpt lat="42.82889" lon="0.29122">
        <ele>1328.3453369141</ele>
        <time>2020-08-23T19:45:36.418Z</time>
      </trkpt>
      <trkpt lat="42.82862" lon="0.29068">
        <ele>1326.6641845703</ele>
        <time>2020-08-23T19:45:46.027Z</time>
      </trkpt>
      <trkpt lat="42.82848" lon="0.2897">
        <ele>1338.1057128906</ele>
        <time>2020-08-23T19:45:55.648Z</time>
      </trkpt>
      <trkpt lat="42.82772" lon="0.28811">
        <ele>1335.2308349609</ele>
        <time>2020-08-23T19:46:05.291Z</time>
      </trkpt>
      <trkpt lat="42.82772" lon="0.28811">
        <ele>1335.2344970703</ele>
        <time>2020-08-23T19:46:14.934Z</time>
      </trkpt>
      <trkpt lat="42.8277" lon="0.28783">
        <ele>1338.5662841797</ele>
        <time>2020-08-23T19:46:24.581Z</time>
      </trkpt>
      <trkpt lat="42.82798" lon="0.28748">
        <ele>1353.3714599609</ele>
        <time>2020-08-23T19:46:34.234Z</time>
      </trkpt>
      <trkpt lat="42.82801" lon="0.28725">
        <ele>1354.8388671875</ele>
        <time>2020-08-23T19:46:43.889Z</time>
      </trkpt>
      <trkpt lat="42.82756" lon="0.2868">
        <ele>1345.7043457031</ele>
        <time>2020-08-23T19:46:53.553Z</time>
      </trkpt>
      <trkpt lat="42.82737" lon="0.28627">
        <ele>1349.6677246094</ele>
        <time>2020-08-23T19:47:03.224Z</time>
      </trkpt>
      <trkpt lat="42.82734" lon="0.28591">
        <ele>1353.1458740234</ele>
        <time>2020-08-23T19:47:12.899Z</time>
      </trkpt>
      <trkpt lat="42.82739" lon="0.28509">
        <ele>1365.6673583984</ele>
        <time>2020-08-23T19:47:22.584Z</time>
      </trkpt>
      <trkpt lat="42.82758" lon="0.28381">
        <ele>1376.8441162109</ele>
        <time>2020-08-23T19:47:32.285Z</time>
      </trkpt>
      <trkpt lat="42.82754" lon="0.28201">
        <ele>1392.2580566406</ele>
        <time>2020-08-23T19:47:42.007Z</time>
      </trkpt>
      <trkpt lat="42.82764" lon="0.27915">
        <ele>1422.30859375</ele>
        <time>2020-08-23T19:47:51.762Z</time>
      </trkpt>
      <trkpt lat="42.82756" lon="0.2786">
        <ele>1427.7097167969</ele>
        <time>2020-08-23T19:48:01.524Z</time>
      </trkpt>
      <trkpt lat="42.82729" lon="0.2779">
        <ele>1429.3381347656</ele>
        <time>2020-08-23T19:48:11.295Z</time>
      </trkpt>
      <trkpt lat="42.82719" lon="0.27722">
        <ele>1436.2557373047</ele>
        <time>2020-08-23T19:48:21.075Z</time>
      </trkpt>
      <trkpt lat="42.82719" lon="0.27722">
        <ele>1436.2587890625</ele>
        <time>2020-08-23T19:48:30.855Z</time>
      </trkpt>
      <trkpt lat="42.82699" lon="0.27574">
        <ele>1446.7598876953</ele>
        <time>2020-08-23T19:48:40.652Z</time>
      </trkpt>
      <trkpt lat="42.827" lon="0.27465">
        <ele>1460.3140869141</ele>
        <time>2020-08-23T19:48:50.462Z</time>
      </trkpt>
      <trkpt lat="42.82694" lon="0.27404">
        <ele>1463.5579833984</ele>
        <time>2020-08-23T19:49:00.279Z</time>
      </trkpt>
      <trkpt lat="42.8268" lon="0.27352">
        <ele>1465.4523925781</ele>
        <time>2020-08-23T19:49:10.103Z</time>
      </trkpt>
      <trkpt lat="42.82614" lon="0.27202">
        <ele>1476.7696533203</ele>
        <time>2020-08-23T19:49:19.947Z</time>
      </trkpt>
      <trkpt lat="42.82606" lon="0.2712">
        <ele>1486.2701416016</ele>
        <time>2020-08-23T19:49:29.801Z</time>
      </trkpt>
      <trkpt lat="42.82611" lon="0.27008">
        <ele>1496.6666259766</ele>
        <time>2020-08-23T19:49:39.668Z</time>
      </trkpt>
      <trkpt lat="42.82601" lon="0.26958">
        <ele>1494.7561035156</ele>
        <time>2020-08-23T19:49:49.542Z</time>
      </trkpt>
      <trkpt lat="42.8259" lon="0.26947">
        <ele>1492.6578369141</ele>
        <time>2020-08-23T19:49:59.418Z</time>
      </trkpt>
      <trkpt lat="42.82576" lon="0.26947">
        <ele>1496.5583496094</ele>
        <time>2020-08-23T19:50:09.296Z</time>
      </trkpt>
      <trkpt lat="42.82567" lon="0.26954">
        <ele>1499.1694335938</ele>
        <time>2020-08-23T19:50:19.176Z</time>
      </trkpt>
      <trkpt lat="42.82562" lon="0.26971">
        <ele>1500.1759033203</ele>
        <time>2020-08-23T19:50:29.058Z</time>
      </trkpt>
      <trkpt lat="42.82564" lon="0.27024">
        <ele>1496.078125</ele>
        <time>2020-08-23T19:50:38.946Z</time>
      </trkpt>
      <trkpt lat="42.82562" lon="0.27066">
        <ele>1491.8762207031</ele>
        <time>2020-08-23T19:50:48.839Z</time>
      </trkpt>
      <trkpt lat="42.8254" lon="0.27109">
        <ele>1493.9333496094</ele>
        <time>2020-08-23T19:50:58.738Z</time>
      </trkpt>
      <trkpt lat="42.82505" lon="0.27174">
        <ele>1498.0228271484</ele>
        <time>2020-08-23T19:51:08.647Z</time>
      </trkpt>
      <trkpt lat="42.82494" lon="0.27205">
        <ele>1502.9754638672</ele>
        <time>2020-08-23T19:51:18.560Z</time>
      </trkpt>
      <trkpt lat="42.82494" lon="0.27205">
        <ele>1502.9691162109</ele>
        <time>2020-08-23T19:51:28.473Z</time>
      </trkpt>
      <trkpt lat="42.82476" lon="0.27262">
        <ele>1515.6135253906</ele>
        <time>2020-08-23T19:51:38.393Z</time>
      </trkpt>
      <trkpt lat="42.82456" lon="0.27467">
        <ele>1525.3875732422</ele>
        <time>2020-08-23T19:51:48.337Z</time>
      </trkpt>
      <trkpt lat="42.82406" lon="0.27728">
        <ele>1539.2934570312</ele>
        <time>2020-08-23T19:51:58.313Z</time>
      </trkpt>
      <trkpt lat="42.82356" lon="0.2798">
        <ele>1556.0219726562</ele>
        <time>2020-08-23T19:52:08.320Z</time>
      </trkpt>
      <trkpt lat="42.82338" lon="0.28028">
        <ele>1562.9138183594</ele>
        <time>2020-08-23T19:52:18.333Z</time>
      </trkpt>
      <trkpt lat="42.82337" lon="0.28106">
        <ele>1551.2429199219</ele>
        <time>2020-08-23T19:52:28.355Z</time>
      </trkpt>
      <trkpt lat="42.82328" lon="0.28133">
        <ele>1551.9940185547</ele>
        <time>2020-08-23T19:52:38.381Z</time>
      </trkpt>
      <trkpt lat="42.82285" lon="0.28196">
        <ele>1567.6362304688</ele>
        <time>2020-08-23T19:52:48.417Z</time>
      </trkpt>
      <trkpt lat="42.8228" lon="0.28303">
        <ele>1555.3405761719</ele>
        <time>2020-08-23T19:52:58.465Z</time>
      </trkpt>
      <trkpt lat="42.82271" lon="0.28335">
        <ele>1550.9826660156</ele>
        <time>2020-08-23T19:53:08.518Z</time>
      </trkpt>
      <trkpt lat="42.82259" lon="0.28356">
        <ele>1549.6954345703</ele>
        <time>2020-08-23T19:53:18.574Z</time>
      </trkpt>
      <trkpt lat="42.82238" lon="0.28372">
        <ele>1550.75390625</ele>
        <time>2020-08-23T19:53:28.634Z</time>
      </trkpt>
      <trkpt lat="42.82164" lon="0.28401">
        <ele>1558.6353759766</ele>
        <time>2020-08-23T19:53:38.706Z</time>
      </trkpt>
      <trkpt lat="42.82128" lon="0.28434">
        <ele>1556.7817382812</ele>
        <time>2020-08-23T19:53:48.785Z</time>
      </trkpt>
      <trkpt lat="42.82057" lon="0.28445">
        <ele>1574.0561523438</ele>
        <time>2020-08-23T19:53:58.875Z</time>
      </trkpt>
      <trkpt lat="42.82032" lon="0.28493">
        <ele>1568.96875</ele>
        <time>2020-08-23T19:54:08.972Z</time>
      </trkpt>
      <trkpt lat="42.81973" lon="0.28541">
        <ele>1580.9047851562</ele>
        <time>2020-08-23T19:54:19.080Z</time>
      </trkpt>
      <trkpt lat="42.81887" lon="0.28665">
        <ele>1587.2465820312</ele>
        <time>2020-08-23T19:54:29.208Z</time>
      </trkpt>
      <trkpt lat="42.81836" lon="0.28686">
        <ele>1600.0628662109</ele>
        <time>2020-08-23T19:54:39.345Z</time>
      </trkpt>
      <trkpt lat="42.81821" lon="0.28701">
        <ele>1601.4361572266</ele>
        <time>2020-08-23T19:54:49.485Z</time>
      </trkpt>
      <trkpt lat="42.81821" lon="0.28701">
        <ele>1601.4342041016</ele>
        <time>2020-08-23T19:54:59.625Z</time>
      </trkpt>
      <trkpt lat="42.81819" lon="0.28702">
        <ele>1601.5134277344</ele>
        <time>2020-08-23T19:55:09.765Z</time>
      </trkpt>
      <trkpt lat="42.81819" lon="0.28702">
        <ele>1601.5113525391</ele>
        <time>2020-08-23T19:55:19.905Z</time>
      </trkpt>
      <trkpt lat="42.81809" lon="0.2872">
        <ele>1601.3549804688</ele>
        <time>2020-08-23T19:55:30.048Z</time>
      </trkpt>
      <trkpt lat="42.81809" lon="0.2872">
        <ele>1601.3529052734</ele>
        <time>2020-08-23T19:55:40.191Z</time>
      </trkpt>
      <trkpt lat="42.81766" lon="0.28798">
        <ele>1607.4973144531</ele>
        <time>2020-08-23T19:55:50.345Z</time>
      </trkpt>
      <trkpt lat="42.81752" lon="0.28824">
        <ele>1607.4788818359</ele>
        <time>2020-08-23T19:56:00.503Z</time>
      </trkpt>
      <trkpt lat="42.81719" lon="0.28856">
        <ele>1606.4450683594</ele>
        <time>2020-08-23T19:56:10.668Z</time>
      </trkpt>
      <trkpt lat="42.81683" lon="0.28865">
        <ele>1607.2430419922</ele>
        <time>2020-08-23T19:56:20.838Z</time>
      </trkpt>
      <trkpt lat="42.81604" lon="0.2885">
        <ele>1620.6669921875</ele>
        <time>2020-08-23T19:56:31.021Z</time>
      </trkpt>
      <trkpt lat="42.81571" lon="0.28851">
        <ele>1625.8911132812</ele>
        <time>2020-08-23T19:56:41.209Z</time>
      </trkpt>
      <trkpt lat="42.81571" lon="0.28851">
        <ele>1625.8897705078</ele>
        <time>2020-08-23T19:56:51.397Z</time>
      </trkpt>
      <trkpt lat="42.8152" lon="0.28885">
        <ele>1629.84765625</ele>
        <time>2020-08-23T19:57:01.594Z</time>
      </trkpt>
      <trkpt lat="42.81453" lon="0.28996">
        <ele>1630.8380126953</ele>
        <time>2020-08-23T19:57:11.808Z</time>
      </trkpt>
      <trkpt lat="42.81414" lon="0.2905">
        <ele>1636.1097412109</ele>
        <time>2020-08-23T19:57:22.031Z</time>
      </trkpt>
      <trkpt lat="42.8136" lon="0.29086">
        <ele>1637.6612548828</ele>
        <time>2020-08-23T19:57:32.264Z</time>
      </trkpt>
      <trkpt lat="42.8136" lon="0.29086">
        <ele>1637.6588134766</ele>
        <time>2020-08-23T19:57:42.497Z</time>
      </trkpt>
      <trkpt lat="42.81336" lon="0.29101">
        <ele>1643.8361816406</ele>
        <time>2020-08-23T19:57:52.734Z</time>
      </trkpt>
      <trkpt lat="42.81306" lon="0.29126">
        <ele>1652.0412597656</ele>
        <time>2020-08-23T19:58:02.977Z</time>
      </trkpt>
      <trkpt lat="42.8128" lon="0.29175">
        <ele>1659.8615722656</ele>
        <time>2020-08-23T19:58:13.227Z</time>
      </trkpt>
      <trkpt lat="42.81265" lon="0.29354">
        <ele>1671.0455322266</ele>
        <time>2020-08-23T19:58:23.498Z</time>
      </trkpt>
      <trkpt lat="42.81263" lon="0.29388">
        <ele>1674.2541503906</ele>
        <time>2020-08-23T19:58:33.773Z</time>
      </trkpt>
      <trkpt lat="42.81289" lon="0.29508">
        <ele>1674.5316162109</ele>
        <time>2020-08-23T19:58:44.063Z</time>
      </trkpt>
      <trkpt lat="42.81268" lon="0.29541">
        <ele>1675.1373291016</ele>
        <time>2020-08-23T19:58:54.358Z</time>
      </trkpt>
      <trkpt lat="42.81251" lon="0.2954">
        <ele>1676.0372314453</ele>
        <time>2020-08-23T19:59:04.656Z</time>
      </trkpt>
      <trkpt lat="42.81251" lon="0.2954">
        <ele>1676.0375976562</ele>
        <time>2020-08-23T19:59:14.954Z</time>
      </trkpt>
      <trkpt lat="42.81247" lon="0.29534">
        <ele>1676.0242919922</ele>
        <time>2020-08-23T19:59:25.253Z</time>
      </trkpt>
      <trkpt lat="42.81242" lon="0.2957">
        <ele>1671.7877197266</ele>
        <time>2020-08-23T19:59:35.556Z</time>
      </trkpt>
      <trkpt lat="42.81225" lon="0.29601">
        <ele>1666.0103759766</ele>
        <time>2020-08-23T19:59:45.864Z</time>
      </trkpt>
      <trkpt lat="42.81227" lon="0.29606">
        <ele>1665.2531738281</ele>
        <time>2020-08-23T19:59:56.172Z</time>
      </trkpt>
      <trkpt lat="42.81239" lon="0.29633">
        <ele>1662.0118408203</ele>
        <time>2020-08-23T20:00:06.484Z</time>
      </trkpt>
      <trkpt lat="42.81244" lon="0.29645">
        <ele>1661.5075683594</ele>
        <time>2020-08-23T20:00:16.798Z</time>
      </trkpt>
      <trkpt lat="42.81245" lon="0.29675">
        <ele>1656.7575683594</ele>
        <time>2020-08-23T20:00:27.115Z</time>
      </trkpt>
      <trkpt lat="42.81257" lon="0.29696">
        <ele>1655.8962402344</ele>
        <time>2020-08-23T20:00:37.435Z</time>
      </trkpt>
      <trkpt lat="42.81278" lon="0.29701">
        <ele>1655.6645507812</ele>
        <time>2020-08-23T20:00:47.759Z</time>
      </trkpt>
      <trkpt lat="42.81292" lon="0.29693">
        <ele>1657.2607421875</ele>
        <time>2020-08-23T20:00:58.085Z</time>
      </trkpt>
      <trkpt lat="42.81299" lon="0.2968">
        <ele>1659.603515625</ele>
        <time>2020-08-23T20:01:08.413Z</time>
      </trkpt>
      <trkpt lat="42.81309" lon="0.29685">
        <ele>1659.1143798828</ele>
        <time>2020-08-23T20:01:18.743Z</time>
      </trkpt>
      <trkpt lat="42.81322" lon="0.29693">
        <ele>1657.8651123047</ele>
        <time>2020-08-23T20:01:29.075Z</time>
      </trkpt>
      <trkpt lat="42.81335" lon="0.29696">
        <ele>1657.2858886719</ele>
        <time>2020-08-23T20:01:39.409Z</time>
      </trkpt>
      <trkpt lat="42.81361" lon="0.29649">
        <ele>1654.2647705078</ele>
        <time>2020-08-23T20:01:49.750Z</time>
      </trkpt>
      <trkpt lat="42.81368" lon="0.296">
        <ele>1655.8719482422</ele>
        <time>2020-08-23T20:02:00.097Z</time>
      </trkpt>
      <trkpt lat="42.81312" lon="0.29376">
        <ele>1660.4385986328</ele>
        <time>2020-08-23T20:02:10.472Z</time>
      </trkpt>
      <trkpt lat="42.8128" lon="0.29175">
        <ele>1659.8615722656</ele>
        <time>2020-08-23T20:02:20.871Z</time>
      </trkpt>
      <trkpt lat="42.81306" lon="0.29126">
        <ele>1652.0412597656</ele>
        <time>2020-08-23T20:02:31.277Z</time>
      </trkpt>
      <trkpt lat="42.81336" lon="0.29101">
        <ele>1643.8361816406</ele>
        <time>2020-08-23T20:02:41.689Z</time>
      </trkpt>
      <trkpt lat="42.8136" lon="0.29086">
        <ele>1637.6588134766</ele>
        <time>2020-08-23T20:02:52.105Z</time>
      </trkpt>
      <trkpt lat="42.8136" lon="0.29086">
        <ele>1637.6612548828</ele>
        <time>2020-08-23T20:03:02.521Z</time>
      </trkpt>
      <trkpt lat="42.81414" lon="0.2905">
        <ele>1636.1097412109</ele>
        <time>2020-08-23T20:03:12.947Z</time>
      </trkpt>
      <trkpt lat="42.81453" lon="0.28996">
        <ele>1630.8380126953</ele>
        <time>2020-08-23T20:03:23.381Z</time>
      </trkpt>
      <trkpt lat="42.8152" lon="0.28885">
        <ele>1629.84765625</ele>
        <time>2020-08-23T20:03:33.832Z</time>
      </trkpt>
      <trkpt lat="42.81571" lon="0.28851">
        <ele>1625.8897705078</ele>
        <time>2020-08-23T20:03:44.292Z</time>
      </trkpt>
      <trkpt lat="42.81571" lon="0.28851">
        <ele>1625.8911132812</ele>
        <time>2020-08-23T20:03:54.752Z</time>
      </trkpt>
      <trkpt lat="42.81604" lon="0.2885">
        <ele>1620.6669921875</ele>
        <time>2020-08-23T20:04:05.218Z</time>
      </trkpt>
      <trkpt lat="42.81683" lon="0.28865">
        <ele>1607.2430419922</ele>
        <time>2020-08-23T20:04:15.697Z</time>
      </trkpt>
      <trkpt lat="42.81719" lon="0.28856">
        <ele>1606.4450683594</ele>
        <time>2020-08-23T20:04:26.181Z</time>
      </trkpt>
      <trkpt lat="42.81752" lon="0.28824">
        <ele>1607.4788818359</ele>
        <time>2020-08-23T20:04:36.672Z</time>
      </trkpt>
      <trkpt lat="42.81766" lon="0.28798">
        <ele>1607.4973144531</ele>
        <time>2020-08-23T20:04:47.167Z</time>
      </trkpt>
      <trkpt lat="42.81809" lon="0.2872">
        <ele>1601.3529052734</ele>
        <time>2020-08-23T20:04:57.673Z</time>
      </trkpt>
      <trkpt lat="42.81809" lon="0.2872">
        <ele>1601.3549804688</ele>
        <time>2020-08-23T20:05:08.179Z</time>
      </trkpt>
      <trkpt lat="42.81819" lon="0.28702">
        <ele>1601.5113525391</ele>
        <time>2020-08-23T20:05:18.688Z</time>
      </trkpt>
      <trkpt lat="42.81819" lon="0.28702">
        <ele>1601.5134277344</ele>
        <time>2020-08-23T20:05:29.197Z</time>
      </trkpt>
      <trkpt lat="42.81821" lon="0.28701">
        <ele>1601.4342041016</ele>
        <time>2020-08-23T20:05:39.706Z</time>
      </trkpt>
      <trkpt lat="42.81821" lon="0.28701">
        <ele>1601.4361572266</ele>
        <time>2020-08-23T20:05:50.215Z</time>
      </trkpt>
      <trkpt lat="42.81836" lon="0.28686">
        <ele>1600.0628662109</ele>
        <time>2020-08-23T20:06:00.727Z</time>
      </trkpt>
      <trkpt lat="42.81887" lon="0.28665">
        <ele>1587.2465820312</ele>
        <time>2020-08-23T20:06:11.248Z</time>
      </trkpt>
      <trkpt lat="42.81973" lon="0.28541">
        <ele>1580.9047851562</ele>
        <time>2020-08-23T20:06:21.789Z</time>
      </trkpt>
      <trkpt lat="42.82032" lon="0.28493">
        <ele>1568.96875</ele>
        <time>2020-08-23T20:06:32.341Z</time>
      </trkpt>
      <trkpt lat="42.82057" lon="0.28445">
        <ele>1574.0561523438</ele>
        <time>2020-08-23T20:06:42.900Z</time>
      </trkpt>
      <trkpt lat="42.82128" lon="0.28434">
        <ele>1556.7817382812</ele>
        <time>2020-08-23T20:06:53.470Z</time>
      </trkpt>
      <trkpt lat="42.82164" lon="0.28401">
        <ele>1558.6353759766</ele>
        <time>2020-08-23T20:07:04.047Z</time>
      </trkpt>
      <trkpt lat="42.82238" lon="0.28372">
        <ele>1550.75390625</ele>
        <time>2020-08-23T20:07:14.636Z</time>
      </trkpt>
      <trkpt lat="42.82259" lon="0.28356">
        <ele>1549.6954345703</ele>
        <time>2020-08-23T20:07:25.229Z</time>
      </trkpt>
      <trkpt lat="42.82271" lon="0.28335">
        <ele>1550.9826660156</ele>
        <time>2020-08-23T20:07:35.825Z</time>
      </trkpt>
      <trkpt lat="42.8228" lon="0.28303">
        <ele>1555.3405761719</ele>
        <time>2020-08-23T20:07:46.425Z</time>
      </trkpt>
      <trkpt lat="42.82285" lon="0.28196">
        <ele>1567.6362304688</ele>
        <time>2020-08-23T20:07:57.038Z</time>
      </trkpt>
      <trkpt lat="42.82328" lon="0.28133">
        <ele>1551.9940185547</ele>
        <time>2020-08-23T20:08:07.661Z</time>
      </trkpt>
      <trkpt lat="42.82337" lon="0.28106">
        <ele>1551.2429199219</ele>
        <time>2020-08-23T20:08:18.288Z</time>
      </trkpt>
      <trkpt lat="42.82338" lon="0.28028">
        <ele>1562.9138183594</ele>
        <time>2020-08-23T20:08:28.924Z</time>
      </trkpt>
      <trkpt lat="42.82356" lon="0.2798">
        <ele>1556.0219726562</ele>
        <time>2020-08-23T20:08:39.566Z</time>
      </trkpt>
      <trkpt lat="42.82406" lon="0.27728">
        <ele>1539.2934570312</ele>
        <time>2020-08-23T20:08:50.239Z</time>
      </trkpt>
      <trkpt lat="42.82456" lon="0.27467">
        <ele>1525.3875732422</ele>
        <time>2020-08-23T20:09:00.944Z</time>
      </trkpt>
      <trkpt lat="42.82476" lon="0.27262">
        <ele>1515.6135253906</ele>
        <time>2020-08-23T20:09:11.673Z</time>
      </trkpt>
      <trkpt lat="42.82494" lon="0.27205">
        <ele>1502.9691162109</ele>
        <time>2020-08-23T20:09:22.409Z</time>
      </trkpt>
      <trkpt lat="42.82494" lon="0.27205">
        <ele>1502.9754638672</ele>
        <time>2020-08-23T20:09:33.145Z</time>
      </trkpt>
      <trkpt lat="42.82505" lon="0.27174">
        <ele>1498.0228271484</ele>
        <time>2020-08-23T20:09:43.885Z</time>
      </trkpt>
      <trkpt lat="42.8254" lon="0.27109">
        <ele>1493.9333496094</ele>
        <time>2020-08-23T20:09:54.635Z</time>
      </trkpt>
      <trkpt lat="42.82562" lon="0.27066">
        <ele>1491.8762207031</ele>
        <time>2020-08-23T20:10:05.391Z</time>
      </trkpt>
      <trkpt lat="42.82564" lon="0.27024">
        <ele>1496.078125</ele>
        <time>2020-08-23T20:10:16.152Z</time>
      </trkpt>
      <trkpt lat="42.82562" lon="0.26971">
        <ele>1500.1759033203</ele>
        <time>2020-08-23T20:10:26.919Z</time>
      </trkpt>
      <trkpt lat="42.82567" lon="0.26954">
        <ele>1499.1694335938</ele>
        <time>2020-08-23T20:10:37.688Z</time>
      </trkpt>
      <trkpt lat="42.82576" lon="0.26947">
        <ele>1496.5583496094</ele>
        <time>2020-08-23T20:10:48.459Z</time>
      </trkpt>
      <trkpt lat="42.8259" lon="0.26947">
        <ele>1492.6578369141</ele>
        <time>2020-08-23T20:10:59.232Z</time>
      </trkpt>
      <trkpt lat="42.82601" lon="0.26958">
        <ele>1494.7561035156</ele>
        <time>2020-08-23T20:11:10.007Z</time>
      </trkpt>
      <trkpt lat="42.82611" lon="0.27008">
        <ele>1496.6666259766</ele>
        <time>2020-08-23T20:11:20.788Z</time>
      </trkpt>
      <trkpt lat="42.82606" lon="0.2712">
        <ele>1486.2701416016</ele>
        <time>2020-08-23T20:11:31.583Z</time>
      </trkpt>
      <trkpt lat="42.82614" lon="0.27202">
        <ele>1476.7696533203</ele>
        <time>2020-08-23T20:11:42.387Z</time>
      </trkpt>
      <trkpt lat="42.8268" lon="0.27352">
        <ele>1465.4523925781</ele>
        <time>2020-08-23T20:11:53.212Z</time>
      </trkpt>
      <trkpt lat="42.82694" lon="0.27404">
        <ele>1463.5579833984</ele>
        <time>2020-08-23T20:12:04.043Z</time>
      </trkpt>
      <trkpt lat="42.827" lon="0.27465">
        <ele>1460.3140869141</ele>
        <time>2020-08-23T20:12:14.882Z</time>
      </trkpt>
      <trkpt lat="42.82699" lon="0.27574">
        <ele>1446.7598876953</ele>
        <time>2020-08-23T20:12:25.734Z</time>
      </trkpt>
      <trkpt lat="42.82719" lon="0.27722">
        <ele>1436.2587890625</ele>
        <time>2020-08-23T20:12:36.603Z</time>
      </trkpt>
      <trkpt lat="42.82719" lon="0.27722">
        <ele>1436.2557373047</ele>
        <time>2020-08-23T20:12:47.472Z</time>
      </trkpt>
      <trkpt lat="42.82729" lon="0.2779">
        <ele>1429.3381347656</ele>
        <time>2020-08-23T20:12:58.349Z</time>
      </trkpt>
      <trkpt lat="42.82756" lon="0.2786">
        <ele>1427.7097167969</ele>
        <time>2020-08-23T20:13:09.236Z</time>
      </trkpt>
      <trkpt lat="42.82764" lon="0.27915">
        <ele>1422.30859375</ele>
        <time>2020-08-23T20:13:20.129Z</time>
      </trkpt>
      <trkpt lat="42.82754" lon="0.28201">
        <ele>1392.2580566406</ele>
        <time>2020-08-23T20:13:31.056Z</time>
      </trkpt>
      <trkpt lat="42.82758" lon="0.28381">
        <ele>1376.8441162109</ele>
        <time>2020-08-23T20:13:42.004Z</time>
      </trkpt>
      <trkpt lat="42.82739" lon="0.28509">
        <ele>1365.6673583984</ele>
        <time>2020-08-23T20:13:52.968Z</time>
      </trkpt>
      <trkpt lat="42.82734" lon="0.28591">
        <ele>1353.1458740234</ele>
        <time>2020-08-23T20:14:03.941Z</time>
      </trkpt>
      <trkpt lat="42.82737" lon="0.28627">
        <ele>1349.6677246094</ele>
        <time>2020-08-23T20:14:14.919Z</time>
      </trkpt>
      <trkpt lat="42.82756" lon="0.2868">
        <ele>1345.7043457031</ele>
        <time>2020-08-23T20:14:25.904Z</time>
      </trkpt>
      <trkpt lat="42.82801" lon="0.28725">
        <ele>1354.8388671875</ele>
        <time>2020-08-23T20:14:36.898Z</time>
      </trkpt>
      <trkpt lat="42.82798" lon="0.28748">
        <ele>1353.3714599609</ele>
        <time>2020-08-23T20:14:47.894Z</time>
      </trkpt>
      <trkpt lat="42.8277" lon="0.28783">
        <ele>1338.5662841797</ele>
        <time>2020-08-23T20:14:58.896Z</time>
      </trkpt>
      <trkpt lat="42.82772" lon="0.28811">
        <ele>1335.2344970703</ele>
        <time>2020-08-23T20:15:09.902Z</time>
      </trkpt>
      <trkpt lat="42.82772" lon="0.28811">
        <ele>1335.2308349609</ele>
        <time>2020-08-23T20:15:20.908Z</time>
      </trkpt>
      <trkpt lat="42.82848" lon="0.2897">
        <ele>1338.1057128906</ele>
        <time>2020-08-23T20:15:31.936Z</time>
      </trkpt>
      <trkpt lat="42.82862" lon="0.29068">
        <ele>1326.6641845703</ele>
        <time>2020-08-23T20:15:42.976Z</time>
      </trkpt>
      <trkpt lat="42.82889" lon="0.29122">
        <ele>1328.3453369141</ele>
        <time>2020-08-23T20:15:54.023Z</time>
      </trkpt>
      <trkpt lat="42.82907" lon="0.29185">
        <ele>1322.9447021484</ele>
        <time>2020-08-23T20:16:05.078Z</time>
      </trkpt>
      <trkpt lat="42.82907" lon="0.29185">
        <ele>1322.9388427734</ele>
        <time>2020-08-23T20:16:16.133Z</time>
      </trkpt>
      <trkpt lat="42.82915" lon="0.29254">
        <ele>1310.2691650391</ele>
        <time>2020-08-23T20:16:27.197Z</time>
      </trkpt>
      <trkpt lat="42.82982" lon="0.29414">
        <ele>1295.5885009766</ele>
        <time>2020-08-23T20:16:38.282Z</time>
      </trkpt>
      <trkpt lat="42.82982" lon="0.29414">
        <ele>1295.5848388672</ele>
        <time>2020-08-23T20:16:49.367Z</time>
      </trkpt>
      <trkpt lat="42.82995" lon="0.29444">
        <ele>1292.8559570312</ele>
        <time>2020-08-23T20:17:00.456Z</time>
      </trkpt>
      <trkpt lat="42.83022" lon="0.29464">
        <ele>1295.1467285156</ele>
        <time>2020-08-23T20:17:11.550Z</time>
      </trkpt>
      <trkpt lat="42.83093" lon="0.295">
        <ele>1303.1125488281</ele>
        <time>2020-08-23T20:17:22.656Z</time>
      </trkpt>
      <trkpt lat="42.83093" lon="0.29593">
        <ele>1289.8092041016</ele>
        <time>2020-08-23T20:17:33.773Z</time>
      </trkpt>
      <trkpt lat="42.83097" lon="0.29666">
        <ele>1286.0294189453</ele>
        <time>2020-08-23T20:17:44.899Z</time>
      </trkpt>
      <trkpt lat="42.83084" lon="0.29714">
        <ele>1274.6329345703</ele>
        <time>2020-08-23T20:17:56.031Z</time>
      </trkpt>
      <trkpt lat="42.8308" lon="0.29801">
        <ele>1269.9470214844</ele>
        <time>2020-08-23T20:18:07.173Z</time>
      </trkpt>
      <trkpt lat="42.83079" lon="0.29895">
        <ele>1258.8470458984</ele>
        <time>2020-08-23T20:18:18.326Z</time>
      </trkpt>
      <trkpt lat="42.8309" lon="0.29995">
        <ele>1252.2303466797</ele>
        <time>2020-08-23T20:18:29.491Z</time>
      </trkpt>
      <trkpt lat="42.8309" lon="0.29995">
        <ele>1252.2258300781</ele>
        <time>2020-08-23T20:18:40.656Z</time>
      </trkpt>
      <trkpt lat="42.83099" lon="0.30098">
        <ele>1239.3797607422</ele>
        <time>2020-08-23T20:18:51.833Z</time>
      </trkpt>
      <trkpt lat="42.8312" lon="0.30158">
        <ele>1236.5076904297</ele>
        <time>2020-08-23T20:19:03.018Z</time>
      </trkpt>
      <trkpt lat="42.83143" lon="0.30235">
        <ele>1233.0013427734</ele>
        <time>2020-08-23T20:19:14.213Z</time>
      </trkpt>
      <trkpt lat="42.8317" lon="0.30268">
        <ele>1242.1922607422</ele>
        <time>2020-08-23T20:19:25.414Z</time>
      </trkpt>
      <trkpt lat="42.83144" lon="0.30379">
        <ele>1227.6904296875</ele>
        <time>2020-08-23T20:19:36.629Z</time>
      </trkpt>
      <trkpt lat="42.83137" lon="0.30427">
        <ele>1217.62109375</ele>
        <time>2020-08-23T20:19:47.849Z</time>
      </trkpt>
      <trkpt lat="42.83141" lon="0.30484">
        <ele>1214.4368896484</ele>
        <time>2020-08-23T20:19:59.076Z</time>
      </trkpt>
      <trkpt lat="42.83159" lon="0.30542">
        <ele>1215.4263916016</ele>
        <time>2020-08-23T20:20:10.310Z</time>
      </trkpt>
      <trkpt lat="42.83153" lon="0.30599">
        <ele>1213.2113037109</ele>
        <time>2020-08-23T20:20:21.551Z</time>
      </trkpt>
      <trkpt lat="42.83139" lon="0.30656">
        <ele>1206.4332275391</ele>
        <time>2020-08-23T20:20:32.799Z</time>
      </trkpt>
      <trkpt lat="42.83133" lon="0.30674">
        <ele>1203.1765136719</ele>
        <time>2020-08-23T20:20:44.050Z</time>
      </trkpt>
      <trkpt lat="42.83114" lon="0.30775">
        <ele>1183.5867919922</ele>
        <time>2020-08-23T20:20:55.313Z</time>
      </trkpt>
      <trkpt lat="42.83127" lon="0.3083">
        <ele>1182.5933837891</ele>
        <time>2020-08-23T20:21:06.583Z</time>
      </trkpt>
      <trkpt lat="42.83161" lon="0.30904">
        <ele>1194.0373535156</ele>
        <time>2020-08-23T20:21:17.863Z</time>
      </trkpt>
      <trkpt lat="42.83153" lon="0.30919">
        <ele>1191.4243164062</ele>
        <time>2020-08-23T20:21:29.145Z</time>
      </trkpt>
      <trkpt lat="42.83144" lon="0.30913">
        <ele>1186.1722412109</ele>
        <time>2020-08-23T20:21:40.429Z</time>
      </trkpt>
      <trkpt lat="42.83135" lon="0.30874">
        <ele>1178.8483886719</ele>
        <time>2020-08-23T20:21:51.718Z</time>
      </trkpt>
      <trkpt lat="42.83109" lon="0.30836">
        <ele>1171.8972167969</ele>
        <time>2020-08-23T20:22:03.013Z</time>
      </trkpt>
      <trkpt lat="42.83077" lon="0.30765">
        <ele>1163.0987548828</ele>
        <time>2020-08-23T20:22:14.317Z</time>
      </trkpt>
      <trkpt lat="42.83079" lon="0.30666">
        <ele>1170.8111572266</ele>
        <time>2020-08-23T20:22:25.633Z</time>
      </trkpt>
      <trkpt lat="42.83072" lon="0.30657">
        <ele>1165.4624023438</ele>
        <time>2020-08-23T20:22:36.951Z</time>
      </trkpt>
      <trkpt lat="42.83072" lon="0.30657">
        <ele>1165.4561767578</ele>
        <time>2020-08-23T20:22:48.269Z</time>
      </trkpt>
      <trkpt lat="42.83061" lon="0.30673">
        <ele>1157.0891113281</ele>
        <time>2020-08-23T20:22:59.589Z</time>
      </trkpt>
      <trkpt lat="42.83058" lon="0.30774">
        <ele>1148.8291015625</ele>
        <time>2020-08-23T20:23:10.921Z</time>
      </trkpt>
      <trkpt lat="42.83081" lon="0.30895">
        <ele>1148.8153076172</ele>
        <time>2020-08-23T20:23:22.268Z</time>
      </trkpt>
      <trkpt lat="42.83077" lon="0.30907">
        <ele>1146.6141357422</ele>
        <time>2020-08-23T20:23:33.616Z</time>
      </trkpt>
      <trkpt lat="42.83052" lon="0.30939">
        <ele>1132.1019287109</ele>
        <time>2020-08-23T20:23:44.970Z</time>
      </trkpt>
      <trkpt lat="42.83044" lon="0.30978">
        <ele>1125.0657958984</ele>
        <time>2020-08-23T20:23:56.329Z</time>
      </trkpt>
      <trkpt lat="42.83056" lon="0.31056">
        <ele>1130.4025878906</ele>
        <time>2020-08-23T20:24:07.697Z</time>
      </trkpt>
      <trkpt lat="42.83051" lon="0.31098">
        <ele>1127.0291748047</ele>
        <time>2020-08-23T20:24:19.070Z</time>
      </trkpt>
      <trkpt lat="42.83039" lon="0.31137">
        <ele>1109.8914794922</ele>
        <time>2020-08-23T20:24:30.448Z</time>
      </trkpt>
      <trkpt lat="42.83062" lon="0.31214">
        <ele>1117.1430664062</ele>
        <time>2020-08-23T20:24:41.836Z</time>
      </trkpt>
      <trkpt lat="42.83045" lon="0.31272">
        <ele>1092.4171142578</ele>
        <time>2020-08-23T20:24:53.231Z</time>
      </trkpt>
      <trkpt lat="42.83043" lon="0.31326">
        <ele>1068.5729980469</ele>
        <time>2020-08-23T20:25:04.633Z</time>
      </trkpt>
      <trkpt lat="42.83051" lon="0.31342">
        <ele>1067.6075439453</ele>
        <time>2020-08-23T20:25:16.037Z</time>
      </trkpt>
      <trkpt lat="42.83111" lon="0.31371">
        <ele>1093.4323730469</ele>
        <time>2020-08-23T20:25:27.451Z</time>
      </trkpt>
      <trkpt lat="42.83165" lon="0.31414">
        <ele>1104.5003662109</ele>
        <time>2020-08-23T20:25:38.875Z</time>
      </trkpt>
      <trkpt lat="42.83164" lon="0.3144">
        <ele>1102.5952148438</ele>
        <time>2020-08-23T20:25:50.302Z</time>
      </trkpt>
      <trkpt lat="42.83113" lon="0.31534">
        <ele>1066.6752929688</ele>
        <time>2020-08-23T20:26:01.743Z</time>
      </trkpt>
      <trkpt lat="42.83112" lon="0.31556">
        <ele>1063.9544677734</ele>
        <time>2020-08-23T20:26:13.186Z</time>
      </trkpt>
      <trkpt lat="42.83122" lon="0.31597">
        <ele>1063.2696533203</ele>
        <time>2020-08-23T20:26:24.635Z</time>
      </trkpt>
      <trkpt lat="42.83122" lon="0.31645">
        <ele>1049.2685546875</ele>
        <time>2020-08-23T20:26:36.089Z</time>
      </trkpt>
      <trkpt lat="42.83165" lon="0.31732">
        <ele>1039.9674072266</ele>
        <time>2020-08-23T20:26:47.556Z</time>
      </trkpt>
      <trkpt lat="42.83195" lon="0.3176">
        <ele>1039.0889892578</ele>
        <time>2020-08-23T20:26:59.028Z</time>
      </trkpt>
      <trkpt lat="42.83217" lon="0.31795">
        <ele>1028.5078125</ele>
        <time>2020-08-23T20:27:10.506Z</time>
      </trkpt>
      <trkpt lat="42.83257" lon="0.31837">
        <ele>1028.1955566406</ele>
        <time>2020-08-23T20:27:21.992Z</time>
      </trkpt>
      <trkpt lat="42.83275" lon="0.31871">
        <ele>1021.5404663086</ele>
        <time>2020-08-23T20:27:33.483Z</time>
      </trkpt>
      <trkpt lat="42.833" lon="0.31898">
        <ele>1019.8225708008</ele>
        <time>2020-08-23T20:27:44.979Z</time>
      </trkpt>
      <trkpt lat="42.83313" lon="0.31932">
        <ele>1006.6926879883</ele>
        <time>2020-08-23T20:27:56.479Z</time>
      </trkpt>
      <trkpt lat="42.83361" lon="0.31987">
        <ele>998.51239013672</ele>
        <time>2020-08-23T20:28:07.990Z</time>
      </trkpt>
      <trkpt lat="42.83361" lon="0.31987">
        <ele>998.50885009766</ele>
        <time>2020-08-23T20:28:19.501Z</time>
      </trkpt>
      <trkpt lat="42.83397" lon="0.32001">
        <ele>1006.1697998047</ele>
        <time>2020-08-23T20:28:31.017Z</time>
      </trkpt>
      <trkpt lat="42.83408" lon="0.32046">
        <ele>985.76513671875</ele>
        <time>2020-08-23T20:28:42.539Z</time>
      </trkpt>
      <trkpt lat="42.8342" lon="0.32058">
        <ele>984.59429931641</ele>
        <time>2020-08-23T20:28:54.063Z</time>
      </trkpt>
      <trkpt lat="42.83474" lon="0.32045">
        <ele>1012.0342407227</ele>
        <time>2020-08-23T20:29:05.596Z</time>
      </trkpt>
      <trkpt lat="42.83488" lon="0.32061">
        <ele>1010.9688110352</ele>
        <time>2020-08-23T20:29:17.132Z</time>
      </trkpt>
      <trkpt lat="42.83516" lon="0.32118">
        <ele>1004.5219116211</ele>
        <time>2020-08-23T20:29:28.676Z</time>
      </trkpt>
      <trkpt lat="42.83518" lon="0.32136">
        <ele>1000.3032226562</ele>
        <time>2020-08-23T20:29:40.222Z</time>
      </trkpt>
      <trkpt lat="42.83481" lon="0.32208">
        <ele>969.48791503906</ele>
        <time>2020-08-23T20:29:51.779Z</time>
      </trkpt>
      <trkpt lat="42.83486" lon="0.3224">
        <ele>956.75329589844</ele>
        <time>2020-08-23T20:30:03.339Z</time>
      </trkpt>
      <trkpt lat="42.83538" lon="0.32287">
        <ele>962.80334472656</ele>
        <time>2020-08-23T20:30:14.909Z</time>
      </trkpt>
      <trkpt lat="42.83571" lon="0.32342">
        <ele>959.15447998047</ele>
        <time>2020-08-23T20:30:26.488Z</time>
      </trkpt>
      <trkpt lat="42.83604" lon="0.32416">
        <ele>948.69268798828</ele>
        <time>2020-08-23T20:30:38.077Z</time>
      </trkpt>
      <trkpt lat="42.83638" lon="0.32467">
        <ele>949.2568359375</ele>
        <time>2020-08-23T20:30:49.674Z</time>
      </trkpt>
      <trkpt lat="42.83665" lon="0.32529">
        <ele>939.21630859375</ele>
        <time>2020-08-23T20:31:01.280Z</time>
      </trkpt>
      <trkpt lat="42.83707" lon="0.32574">
        <ele>943.15124511719</ele>
        <time>2020-08-23T20:31:12.894Z</time>
      </trkpt>
      <trkpt lat="42.83707" lon="0.32589">
        <ele>936.11749267578</ele>
        <time>2020-08-23T20:31:24.510Z</time>
      </trkpt>
      <trkpt lat="42.83693" lon="0.3259">
        <ele>928.28662109375</ele>
        <time>2020-08-23T20:31:36.128Z</time>
      </trkpt>
      <trkpt lat="42.8361" lon="0.32501">
        <ele>918.87127685547</ele>
        <time>2020-08-23T20:31:47.763Z</time>
      </trkpt>
      <trkpt lat="42.83569" lon="0.32467">
        <ele>910.08129882812</ele>
        <time>2020-08-23T20:31:59.406Z</time>
      </trkpt>
      <trkpt lat="42.83459" lon="0.32322">
        <ele>901.01220703125</ele>
        <time>2020-08-23T20:32:11.073Z</time>
      </trkpt>
      <trkpt lat="42.83379" lon="0.32262">
        <ele>883.76605224609</ele>
        <time>2020-08-23T20:32:22.755Z</time>
      </trkpt>
      <trkpt lat="42.83354" lon="0.32202">
        <ele>895.42541503906</ele>
        <time>2020-08-23T20:32:34.445Z</time>
      </trkpt>
      <trkpt lat="42.83314" lon="0.3219">
        <ele>881.3779296875</ele>
        <time>2020-08-23T20:32:46.141Z</time>
      </trkpt>
      <trkpt lat="42.8331" lon="0.32187">
        <ele>880.953125</ele>
        <time>2020-08-23T20:32:57.838Z</time>
      </trkpt>
      <trkpt lat="42.8331" lon="0.32187">
        <ele>880.95013427734</ele>
        <time>2020-08-23T20:33:09.535Z</time>
      </trkpt>
      <trkpt lat="42.83227" lon="0.32156">
        <ele>860.98376464844</ele>
        <time>2020-08-23T20:33:21.246Z</time>
      </trkpt>
      <trkpt lat="42.83191" lon="0.32118">
        <ele>861.46905517578</ele>
        <time>2020-08-23T20:33:32.964Z</time>
      </trkpt>
      <trkpt lat="42.83162" lon="0.3211">
        <ele>853.84497070312</ele>
        <time>2020-08-23T20:33:44.687Z</time>
      </trkpt>
      <trkpt lat="42.83063" lon="0.32027">
        <ele>849.84051513672</ele>
        <time>2020-08-23T20:33:56.429Z</time>
      </trkpt>
      <trkpt lat="42.82935" lon="0.31909">
        <ele>841.59783935547</ele>
        <time>2020-08-23T20:34:08.195Z</time>
      </trkpt>
      <trkpt lat="42.82867" lon="0.31883">
        <ele>836.83697509766</ele>
        <time>2020-08-23T20:34:19.973Z</time>
      </trkpt>
      <trkpt lat="42.82867" lon="0.31883">
        <ele>836.83557128906</ele>
        <time>2020-08-23T20:34:31.751Z</time>
      </trkpt>
      <trkpt lat="42.82826" lon="0.31871">
        <ele>832.50506591797</ele>
        <time>2020-08-23T20:34:43.535Z</time>
      </trkpt>
      <trkpt lat="42.82826" lon="0.31871">
        <ele>832.50396728516</ele>
        <time>2020-08-23T20:34:55.319Z</time>
      </trkpt>
      <trkpt lat="42.82742" lon="0.31839">
        <ele>825.54730224609</ele>
        <time>2020-08-23T20:35:07.117Z</time>
      </trkpt>
      <trkpt lat="42.82711" lon="0.31816">
        <ele>824.04241943359</ele>
        <time>2020-08-23T20:35:18.921Z</time>
      </trkpt>
      <trkpt lat="42.82671" lon="0.31797">
        <ele>820.98321533203</ele>
        <time>2020-08-23T20:35:30.732Z</time>
      </trkpt>
      <trkpt lat="42.82616" lon="0.31791">
        <ele>820.55004882812</ele>
        <time>2020-08-23T20:35:42.552Z</time>
      </trkpt>
      <trkpt lat="42.82594" lon="0.31799">
        <ele>819.85052490234</ele>
        <time>2020-08-23T20:35:54.375Z</time>
      </trkpt>
      <trkpt lat="42.82594" lon="0.31799">
        <ele>819.85046386719</ele>
        <time>2020-08-23T20:36:06.198Z</time>
      </trkpt>
      <trkpt lat="42.82588" lon="0.31788">
        <ele>820.26519775391</ele>
        <time>2020-08-23T20:36:18.023Z</time>
      </trkpt>
      <trkpt lat="42.82576" lon="0.3179">
        <ele>819.86785888672</ele>
        <time>2020-08-23T20:36:29.850Z</time>
      </trkpt>
      <trkpt lat="42.82573" lon="0.31812">
        <ele>818.70666503906</ele>
        <time>2020-08-23T20:36:41.679Z</time>
      </trkpt>
      <trkpt lat="42.82559" lon="0.31854">
        <ele>815.90625</ele>
        <time>2020-08-23T20:36:53.514Z</time>
      </trkpt>
      <trkpt lat="42.82559" lon="0.31854">
        <ele>815.90631103516</ele>
        <time>2020-08-23T20:37:05.349Z</time>
      </trkpt>
      <trkpt lat="42.82555" lon="0.31864">
        <ele>815.40417480469</ele>
        <time>2020-08-23T20:37:17.185Z</time>
      </trkpt>
      <trkpt lat="42.82555" lon="0.31864">
        <ele>815.404296875</ele>
        <time>2020-08-23T20:37:29.021Z</time>
      </trkpt>
      <trkpt lat="42.82546" lon="0.31891">
        <ele>813.81604003906</ele>
        <time>2020-08-23T20:37:40.861Z</time>
      </trkpt>
      <trkpt lat="42.82501" lon="0.32017">
        <ele>807.68853759766</ele>
        <time>2020-08-23T20:37:52.717Z</time>
      </trkpt>
      <trkpt lat="42.8238" lon="0.32265">
        <ele>805.73748779297</ele>
        <time>2020-08-23T20:38:04.608Z</time>
      </trkpt>
      <trkpt lat="42.8238" lon="0.32265">
        <ele>805.73742675781</ele>
        <time>2020-08-23T20:38:16.499Z</time>
      </trkpt>
      <trkpt lat="42.82358" lon="0.32311">
        <ele>806.6015625</ele>
        <time>2020-08-23T20:38:28.397Z</time>
      </trkpt>
      <trkpt lat="42.82332" lon="0.32371">
        <ele>806.11236572266</ele>
        <time>2020-08-23T20:38:40.303Z</time>
      </trkpt>
      <trkpt lat="42.82313" lon="0.32374">
        <ele>806.30902099609</ele>
        <time>2020-08-23T20:38:52.212Z</time>
      </trkpt>
      <trkpt lat="42.82308" lon="0.32391">
        <ele>806.50561523438</ele>
        <time>2020-08-23T20:39:04.123Z</time>
      </trkpt>
      <trkpt lat="42.82314" lon="0.32408">
        <ele>806.62139892578</ele>
        <time>2020-08-23T20:39:16.036Z</time>
      </trkpt>
      <trkpt lat="42.82325" lon="0.32412">
        <ele>806.54425048828</ele>
        <time>2020-08-23T20:39:27.951Z</time>
      </trkpt>
      <trkpt lat="42.82334" lon="0.32406">
        <ele>806.36401367188</ele>
        <time>2020-08-23T20:39:39.868Z</time>
      </trkpt>
      <trkpt lat="42.82352" lon="0.32435">
        <ele>806.19689941406</ele>
        <time>2020-08-23T20:39:51.789Z</time>
      </trkpt>
      <trkpt lat="42.82402" lon="0.32495">
        <ele>804.34069824219</ele>
        <time>2020-08-23T20:40:03.721Z</time>
      </trkpt>
      <trkpt lat="42.82415" lon="0.32512">
        <ele>803.68420410156</ele>
        <time>2020-08-23T20:40:15.656Z</time>
      </trkpt>
      <trkpt lat="42.82436" lon="0.32539">
        <ele>802.74877929688</ele>
        <time>2020-08-23T20:40:27.595Z</time>
      </trkpt>
      <trkpt lat="42.82436" lon="0.32539">
        <ele>802.74859619141</ele>
        <time>2020-08-23T20:40:39.534Z</time>
      </trkpt>
      <trkpt lat="42.82475" lon="0.32586">
        <ele>802.19250488281</ele>
        <time>2020-08-23T20:40:51.482Z</time>
      </trkpt>
      <trkpt lat="42.82496" lon="0.32611">
        <ele>801.98657226562</ele>
        <time>2020-08-23T20:41:03.434Z</time>
      </trkpt>
      <trkpt lat="42.82499" lon="0.32614">
        <ele>801.96081542969</ele>
        <time>2020-08-23T20:41:15.387Z</time>
      </trkpt>
      <trkpt lat="42.82518" lon="0.32637">
        <ele>801.85699462891</ele>
        <time>2020-08-23T20:41:27.344Z</time>
      </trkpt>
    </trkseg>
  </trk>
</gpx>